     2              OBSERVATION DATA    GPS                 RINEX VERSION / TYPE
teqc 1997Jul24 19970814                                     PGM / RUN BY / DATE
                                                            COMMENT
BIT 2 OF LLI FLAGS DATA COLLECTED UNDER A-S CONDITION       COMMENT
BIT 2 OF LLI FLAGS DATA COLLECTED UNDER A-S CONDITION       COMMENT
Original Marker Name: JUNC                                  COMMENT
Campaign Name: hpgn ca 1991                                 COMMENT
4-Character Station Name: JUNC                              COMMENT
6-Character Antenna Code: TRMSST                            COMMENT
Vertical Measurement Point: BPA                             COMMENT
Vertical Offset to Rinex Ref. Point: 0.0000                 COMMENT
Radial Measurement Point: RRP                               COMMENT
Radial Offset to Rinex Ref. Point: 0.0000                   COMMENT
Antenna Height from Field Measurement: 2.2200 m             COMMENT
Original XYZ: -2275557.2037 -4866204.9189 3426871.7234      COMMENT
New XYZ position is based on association with SCEC monument COMMENT
E1C9N1F4+0011. Position of that monument is believed to be  COMMENT
valid to within 1 m horizontally; vertical accuracy         COMMENT
should be no worse than 3-times this value.                 COMMENT
                                                            COMMENT
Revised Rinex header created by UCSD GPS archive for        COMMENT
GSAC on 12-Apr-1999 (1999:102) 00:58:25 GMT                 COMMENT
For assistance contact dagnew@ucsd.edu or hjohnson@ucsd.edu COMMENT
                                                            COMMENT
JUNCTION                                                    MARKER NAME
unknown CALIF DEPT TRANSPORTATION                           OBSERVER / AGENCY
621 TRIMBLE 4000 SST NP 4.30 / SP 4.20                      REC # / TYPE / VERS
9 TR 4000SST L1/L2 GEO                                      ANT # / TYPE
 -2275559.0000 -4866208.0000  3426870.0000                  APPROX POSITION XYZ
        2.2200        0.0000        0.0000                  ANTENNA: DELTA H/E/N
     1     1     0                                          WAVELENGTH FACT L1/2
     3    C1    L1    L2                                    # / TYPES OF OBSERV
     0                                                      INTERVAL
  1991     4     9    20    55   15.000000                  TIME OF FIRST OBS
  1991     4    10     2    57   60.000000                  TIME OF LAST OBS
     0                                                      # OF SATELLITES
                                                            END OF HEADER
 91  4  9 20 55 15.0000000  0  4G18G 2G11G19
  20733418.398          -0.96618
  23912789.0004         -0.93855
  23532563.9144         -0.83156
  21130292.438          -0.42016
 91  4  9 20 55 30.0000000  0  4G18G 2G11G19
  20734569.7974       6050.40248
  23902305.4774     -55088.22945
  23525326.4924     -38028.84446
  21127417.734      -15116.770 6
 91  4  9 20 55 45.0000000  0  4G18G 2G11G19
  20735746.2894      12233.03348        -0.30973
  23891833.789     -110111.506 5
  23518114.3594     -75935.62346
  21124549.6954     -30181.48546        -0.28772
 91  4  9 20 56  0.0000000  0  4G18G 2G11G19
  20736949.6804      18557.82948      4928.07363
  23881379.2114    -165059.66145        -0.11871
  23510926.0554    -113709.80446        -0.43971
  21121694.4534     -45183.71446    -11690.32663
 91  4  9 20 56 15.0000000  0  4G18G 2G11G19
  20738178.3204      25015.65748      9960.11863
  23870934.6884    -219941.53645    -42765.01561
  23503761.5784    -151360.11046    -29338.24561
  21118851.2194     -60132.21546    -23338.49963
 91  4  9 20 56 30.0000000  0  4G18G 2G11G19
  20739435.0394      31616.28448     15103.43263
  23860507.3204    -274747.12545    -85470.46361
  23496622.594     -188876.221 6    -58571.47221
  21116018.3594     -75017.20946    -34937.18962
 91  4  9 20 56 45.0000000  0  4G18G 2G11G19
  20740719.992       38368.300 8     20364.71623
  23850091.563     -329467.941 5   -128109.85821
  23489510.852     -226249.492 6    -87693.39521
  21113198.8914     -89830.16046    -46479.73762
 91  4  9 20 57  0.0000000  0  4G18G 2G11G19
  20742035.4614      45282.27248     25752.19963
  23839698.5234    -384093.13045   -170674.72861
  23482427.8054    -263468.89746   -116695.43161
  21110395.4064    -104560.39246    -57957.83362
 91  4  9 20 57 15.0000000  0  4G18G 2G11G19
  20743383.0784      52365.26748     31271.38263
  23829321.195     -438615.368 5   -213159.38521
  23475375.3444    -300526.89646   -145571.67961
  21107610.6174    -119200.71646    -69365.87062
 91  4  9 20 57 30.0000000  0  4G18G 2G11G19
  20744766.0394      59633.55048     36934.94863
  23818967.773     -493018.523 5   -255551.26221
  23468358.648     -337407.119 6   -174309.40121
  21104845.0474    -133735.05946    -80691.32662
 91  4  9 20 57 45.0000000  0  4G18G 2G11G19
  20746186.0944      67090.12148     42745.22963
  23808638.563     -547299.178 5   -297847.67021
  23461371.7664    -374106.16946   -202905.94161
  21102098.9454    -148160.44246    -91931.87562
 91  4  9 20 58  0.0000000  0  4G18G 2G11G19
  20747642.1024      74743.29848     48708.71563
  23798335.4064    -601448.92945   -340042.08661
  23454425.1954    -410615.29846   -231354.48961
  21099374.9534    -162468.40546   -103080.93262
 91  4  9 20 58 15.0000000  0  4G18G 2G11G19
  20749136.5944      82601.38948     54831.87063
  23788056.6334    -655459.20545   -382127.80661
  23447516.2814    -446925.76746   -259648.23961
  21096678.0784    -176650.57946   -114131.96762
 91  4  9 20 58 30.0000000  0  4G18G 2G11G19
  20750674.6484      90681.09048     61127.71063
  23777808.750     -709313.396 5   -424091.90821
  23440647.305     -483020.446 6   -287773.83321
  21094005.7424    -190690.33446   -125072.03062
 91  4  9 20 58 45.0000000  0  4G18G 2G11G19
  20752256.7584      98995.38048     67606.34463
  23767594.727     -762998.103 6   -465923.94521
  23433821.6174    -518885.99746   -315720.89661
  21091364.0704    -204574.46746   -135890.83062
 91  4  9 20 59  0.0000000  0  4G18G 2G11G19
  20753884.1334     107548.98548     74271.45663
  23757410.6254    -816508.49246   -507620.15061
  23427042.0394    -554517.43046   -343485.53061
  21088752.9064    -218298.22146   -146584.65262
 91  4  9 20 59 15.0000000  0  4G18G 2G11G19
  20755561.8284     116362.26848     81138.91663
  23747264.656     -869823.880 6   -549164.41721
  23420310.531     -589894.087 6   -371051.62221
  21086175.2734    -231841.26646   -157137.66462
 91  4  9 20 59 30.0000000  0  4G18G 2G11G19
  20757290.5164     125445.07148     88216.39063
  23737156.727     -922934.641 6   -590549.23521
  23413628.109     -625005.956 6   -398411.39421
  21083633.0784    -245193.95146   -167542.34362
 91  4  9 20 59 45.0000000  0  4G18G 2G11G19
  20759072.3914     134810.18748     95513.84763
  23727092.125     -975827.629 6   -631764.35121
  23407000.438     -659839.646 6   -425554.39821
  21081132.484     -258343.060 6   -177788.39122
 91  4  9 21  0  0.0000000  0  4G18G 2G11G19
  20760910.9614     144468.27848    103039.59763
  23717071.742    -1028491.922 6   -672801.25821
  23400426.0944    -694384.21746   -452472.13261
  21078668.8834    -271278.17646   -187867.69662
 91  4  9 21  0 15.0000000  0  4G18G 2G11G19
  20762806.9454     154435.24848    110806.03163
  23707094.711    -1080911.355 5   -713647.37421
  23393910.4224    -728623.13246   -479151.68261
  21076253.3594    -283983.12346   -197767.64562
 91  4  9 21  0 30.0000000  0  4G18G 2G11G19
  20764762.8134     164718.42848    118818.86063
  23697168.758    -1133078.397 6   -754296.81921
  23387454.9454    -762548.82846   -505587.16461
  21073879.2814    -296450.46346   -207482.44663
 91  4  9 21  0 45.0000000  0  4G18G 2G11G19
  20766783.0474     175330.23448    127087.76463
  23687290.4454   -1184980.77846   -794740.03361
  23381061.5784    -796148.69646   -531768.75961
  21071555.7114    -308667.86946   -217002.49562
 91  4  9 21  1  0.0000000  0  4G18G 2G11G19
  20768865.7424     186271.23148    135613.17863
  23677464.539    -1236617.462 6   -834976.21421
  23374728.8674    -829421.41646   -557695.42561
  21069277.695     -320634.646 6   -226327.24622
 91  4  9 21  1 15.0000000  0  4G18G 2G11G19
  20771012.5634     197551.63948    144403.06863
  23667689.688    -1287978.046 6   -874997.25121
  23368462.953     -862356.519 6   -583359.01221
  21067051.0704    -332340.56946   -235448.73662
 91  4  9 21  1 30.0000000  0  4G18G 2G11G19
  20773225.0164     209180.78048    153464.69663
  23657971.008    -1339053.175 6   -914795.85221
  23362260.0004    -894944.51746   -608752.12861
  21064873.805     -343776.450 6   -244359.80222
 91  4  9 21  1 45.0000000  0  4G18G 2G11G19
  20775504.1724     221155.94148    162795.95163
  23648306.188    -1389845.447 6   -954374.05421
  23356124.7344    -927187.66146   -633876.53061
  21062749.430     -354944.648 6   -253062.27823
 91  4  9 21  2  0.0000000  0  4G18G 2G11G19
  20777846.5704     233465.16548    172387.51563
  23638691.734    -1440366.361 6   -993740.80221
  23350052.1094    -959097.62846   -658741.32161
  21060674.711     -365857.111 6   -261565.48922
 91  4  9 21  2 15.0000000  0  4G18G 2G11G19
  20780254.4304     246117.84548    182246.70663
  23629130.648    -1490606.372 5  -1032888.66421
  23344044.7504    -990664.50546   -683338.76961
  21058647.148     -376504.381 6   -269862.04822
 91  4  9 21  2 30.0000000  0  4G18G 2G11G19
  20782722.8364     259090.97348    192355.59663
  23619620.172    -1540588.374 6  -1071835.48721
  23338099.5944   -1021910.96546   -707686.54461
  21056666.414     -386909.450 6   -277969.88422
 91  4  9 21  2 45.0000000  0  4G18G 2G11G19
  20785251.8984     272381.24548    202711.61563
  23610157.336    -1590315.454 6  -1110583.66321
  23332214.7114   -1052839.98746   -731786.95961
  21054731.516     -397075.496 6   -285891.46522
 91  4  9 21  3  0.0000000  0  4G18G 2G11G19
  20787838.0004     285971.98048    213301.76063
  23600740.609    -1639804.287 6  -1149146.19321
  23326385.1334   -1083468.00746   -755652.82761
  21052840.313     -407019.243 6   -293639.83022
 91  4  9 21  3 15.0000000  0  4G18G 2G11G19
  20790477.9224     299846.69448    224113.18763
  23591364.7034   -1689071.03046  -1187535.66861
  23320611.398    -1113810.968 6   -779296.58721
  21050987.8834    -416757.01046   -301227.68962
 91  4  9 21  3 30.0000000  0  4G18G 2G11G19
  20793167.4844     313981.15248    235127.01463
  23582027.180    -1738139.638 6  -1225770.75621
  23314887.1094   -1143892.79946   -802736.86161
  21049167.703     -426313.056 6   -308673.94722
 91  4  9 21  3 45.0000000  0  4G18G 2G11G19
  20795903.9694     328356.50648    246328.54763
  23572723.422    -1787028.803 6  -1263866.01521
  23309207.6884   -1173732.16446   -825988.20061
  21047381.414     -435706.297 6   -315993.34122
 91  4  9 21  4  0.0000000  0  4G18G 2G11G19
  20798681.1564     342952.74548    257702.19963
  23563450.633    -1835758.484 6  -1301837.00421
  23303572.813    -1203348.542 6   -849065.78021
  21045619.742     -444956.575 6   -323201.33722
 91  4  9 21  4 15.0000000  0  4G18G 2G11G19
  20801497.3594     357751.51748    269233.67163
  23554203.477    -1884346.842 6  -1339697.86421
  23297976.8524   -1232759.77446   -871983.51261
  21043884.695     -454081.868 6   -330311.94122
 91  4  9 21  4 30.0000000  0  4G18G 2G11G19
  20804348.1644     372732.48948    280907.11563
  23544980.3984   -1932814.08745  -1377464.35761
  23292412.6724   -1261986.05546   -894757.13961
  21042169.945     -463102.660 6   -337341.11723
 91  4  9 21  4 45.0000000  0  4G18G 2G11G19
  20807230.4224     387878.56548    292709.21163
  23535777.211    -1981176.938 6  -1415149.50821
  23286883.898    -1291044.058 6   -917399.62921
  21040468.8674    -472035.78446   -344301.98563
 91  4  9 21  5  0.0000000  0  4G18G 2G11G19
  20810141.039      403169.790 8    304624.40923
  23526591.852    -2029455.234 6  -1452768.76921
  23281381.7664   -1319953.39546   -939926.28161
  21038779.8284    -480901.14446   -351210.04762
 91  4  9 21  5 15.0000000  0  4G18G 2G11G19
  20813075.078      418592.372 7    316641.96323
  23517414.703    -2077662.753 6  -1490332.87621
  23275907.273    -1348727.571 6   -962347.62121
  21037103.4144    -489712.73246   -358076.20662
 91  4  9 21  5 30.0000000  0  4G18G 2G11G19
  20816032.047      434126.466 7    328746.40823
  23508254.516    -2125819.123 6  -1527857.12921
  23270453.6954   -1377386.05446   -984678.80661
  21035435.023     -498490.257 6   -364915.82722
 91  4  9 21  5 45.0000000  0  4G18G 2G11G19
  20819007.4224     449767.97948    340934.55963
  23499098.4224   -2173928.05946  -1565344.43661
  23265022.523    -1405932.464 6  -1006922.65621
  21033768.9534    -507237.60446   -371731.92962
 91  4  9 21  6  0.0000000  0  4G18G 2G11G19
  20822001.7344     465500.39547    353193.54263
  23489949.8914   -2222005.77546  -1602807.40161
  23259606.953    -1434382.775 6  -1029091.63121
  21032105.0314    -515970.97746   -378537.14062
 91  4  9 21  6 15.0000000  0  4G18G 2G11G19
  20825012.695      481322.640 7    365522.51923
  23480805.9924   -2270053.35046  -1640246.89061
  23254210.2814   -1462737.98246  -1051186.50061
  21030448.656     -524691.716 6   -385332.50922
 91  4  9 21  6 30.0000000  0  4G18G 2G11G19
  20828038.164      497224.642 8    377913.64523
  23471665.8754   -2318081.07246  -1677670.89761
  23248832.9384   -1491008.04846  -1073215.03461
  21028790.297     -533410.065 6   -392126.01322
 91  4  9 21  6 45.0000000  0  4G18G 2G11G19
  20831077.7344     513196.80348    390359.44663
  23462529.688    -2366097.835 6  -1715086.37621
  23243466.0474   -1519201.73846  -1095184.03861
  21027128.742     -542135.176 6   -398924.78722
 91  4  9 21  7  0.0000000  0  4G18G 2G11G19
  20834129.680      529231.117 8    402853.66923
  23453393.6024   -2414111.31746  -1752499.28961
  23238114.3284   -1547326.65546  -1117099.47661
  21025464.047     -550874.719 6   -405734.80822
 91  4  9 21  7 15.0000000  0  4G18G 2G11G19
  20837191.195      545321.787 8    415391.81023
  23444254.9924   -2462126.98046  -1789913.91261
  23232774.1724   -1575388.10746  -1138965.43861
  21023797.719     -559634.311 6   -412560.44822
 91  4  9 21  7 30.0000000  0  4G18G 2G11G19
  20840263.648      561466.525 8    427972.08423
  23435115.6564   -2510147.24846  -1827332.11961
  23227444.4924   -1603388.32146  -1160783.69661
  21022129.383     -568416.344 6   -419403.57822
 91  4  9 21  7 45.0000000  0  4G18G 2G11G19
  20843346.375      577667.648 8    440596.29123
  23425978.2274   -2558169.67846  -1864752.01461
  23222130.9384   -1631324.71146  -1182552.22561
  21020452.1884    -577218.62946   -426262.48762
 91  4  9 21  8  0.0000000  0  4G18G 2G11G19
  20846437.938      593912.339 8    453254.44523
  23416837.7974   -2606206.87246  -1902183.41161
  23216824.0394   -1659209.56746  -1204280.59061
  21018772.383     -586053.813 6   -433147.03622
 91  4  9 21  8 15.0000000  0  4G18G 2G11G19
  20849540.141      610213.762 8    465956.80823
  23407695.547    -2654245.534 6  -1939615.94921
  23211528.469    -1687029.538 6  -1225958.41021
  21017086.703     -594908.763 6   -440046.98122
 91  4  9 21  8 30.0000000  0  4G18G 2G11G19
  20852651.734      626566.399 8    478699.07823
  23398551.5554   -2702290.88546  -1977053.70561
  23206246.422    -1714789.668 6  -1247589.59421
  21015394.688     -603788.725 6   -446966.42022
 91  4  9 21  8 45.0000000  0  4G18G 2G11G19
  20855773.953      642968.984 8    491480.26423
  23389410.2974   -2750343.72946  -2014497.29561
  23200976.352    -1742490.610 6  -1269174.65421
  21013701.2034    -612694.58246   -453906.03862
 91  4  9 21  9  0.0000000  0  4G18G 2G11G19
  20858903.242      659416.850 7    504296.73923
  23380262.359    -2798408.887 6  -2051950.49021
  23195714.141    -1770137.126 6  -1290717.32221
  21011999.906     -621631.245 6   -460869.65822
 91  4  9 21  9 15.0000000  0  4G18G 2G11G19
  20862040.727      675903.880 8    517143.72523
  23371110.5784   -2846492.42846  -2089418.00361
  23190460.969    -1797734.735 6  -1312221.86421
  21010293.242     -630604.657 6   -467861.91622
 91  4  9 21  9 30.0000000  0  4G18G 2G11G19
  20865189.594      692451.915 7    530038.25523
  23361962.5164   -2894572.20246  -2126882.57961
  23185224.156    -1825261.376 6  -1333671.12021
  21008581.3524    -639593.04046   -474865.83662
 91  4  9 21  9 45.0000000  0  4G18G 2G11G19
  20868350.977      709064.940 7    542983.42223
  23352811.7734   -2942643.55546  -2164340.59661
  23179999.977    -1852712.349 6  -1355061.40921
  21006870.461     -648592.015 6   -481878.01522
 91  4  9 21 10  0.0000000  0  4G18G 2G11G19
  20871522.977      725735.916 7    555973.74923
  23343666.5394   -2990713.80746  -2201797.76161
  23174790.3524   -1880094.80446  -1376398.31061
  21005153.7974    -657608.99546   -488904.22262
 91  4  9 21 10 15.0000000  0  4G18G 2G11G19
  20874712.383      742495.915 8    569033.44323
  23334524.2584   -3038751.52046  -2239229.56161
  23169596.734    -1907377.133 6  -1397657.18821
  21003440.953     -666612.314 6   -495919.78322
 91  4  9 21 10 30.0000000  0  4G18G 2G11G19
  20877912.203      759308.548 7    582134.15523
  23325384.1644   -3086792.85646  -2276664.19361
  23164419.477    -1934595.303 6  -1418866.07721
  21001722.8444    -675638.27146   -502952.98362
 91  4  9 21 10 45.0000000  0  4G18G 2G11G19
  20881120.328      776169.499 8    595272.51423
  23316238.680    -3134841.861 6  -2314104.79621
  23159249.766    -1961753.215 6  -1440028.01521
  21000001.188     -684691.154 6   -510007.16722
 91  4  9 21 11  0.0000000  0  4G18G 2G11G19
  20884339.445      793084.430 8    608452.93623
  23307094.6884   -3182892.60846  -2351546.76561
  23154094.445    -1988844.767 6  -1461138.24521
  20998273.0004    -693764.99646   -517077.68262
 91  4  9 21 11 15.0000000  0  4G18G 2G11G19
  20887570.711      810062.388 8    621682.46923
  23297952.8054   -3230936.04146  -2388983.03361
  23148953.3674   -2015860.61946  -1482189.49261
  20996545.227     -702850.745 6   -524157.47222
 91  4  9 21 11 30.0000000  0  4G18G 2G11G19
  20890811.211      827095.487 8    634954.96923
  23288811.0164   -3278979.87046  -2426419.60661
  23143825.9534   -2042808.28546  -1503187.59961
  20994812.5474    -711956.23246   -531252.64862
 91  4  9 21 11 45.0000000  0  4G18G 2G11G19
  20894063.688      844184.194 8    648270.80123
  23279667.7344   -3327023.55246  -2463856.05961
  23138710.352    -2069687.276 6  -1524132.19621
  20993076.2894    -721081.22846   -538363.02562
 91  4  9 21 12  0.0000000  0  4G18G 2G11G19
  20897325.875      861329.042 8    661630.37823
  23270523.8204   -3375066.15446  -2501291.67961
  23133607.4224   -2096496.40746  -1545022.35961
  20991334.5474    -730224.59346   -545487.71762
 91  4  9 21 12 15.0000000  0  4G18G 2G11G19
  20900599.336      878529.493 8    675033.28223
  23261383.664    -3423107.775 6  -2538726.54121
  23128520.297    -2123235.657 6  -1565858.06621
  20989591.8134    -739386.64346   -552626.96662
 91  4  9 21 12 30.0000000  0  4G18G 2G11G19
  20903884.313      895790.848 8    688483.64423
  23252243.0704   -3471143.31246  -2576156.64961
  23123446.1564   -2149899.70446  -1586635.17961
  20987845.3754    -748562.28246   -559776.81062
 91  4  9 21 12 45.0000000  0  4G18G 2G11G19
  20907181.313      913117.083 8    701984.56023
  23243103.516    -3519168.426 6  -2613578.64021
  23118387.3054   -2176484.17446  -1607350.28261
  20986099.3364    -757747.49446   -566934.10962
 91  4  9 21 13  0.0000000  0  4G18G 2G11G19
  20910489.883      930503.540 7    715532.40323
  23233965.820    -3567187.533 6  -2650995.95821
  23113342.5394   -2202993.33946  -1628006.70961
  20984346.8914    -766946.71046   -574102.32362
 91  4  9 21 13 15.0000000  0  4G18G 2G11G19
  20913809.938      947950.428 8    729127.33623
  23224829.641    -3615200.216 6  -2688408.27721
  23108312.656    -2229426.674 6  -1648604.04421
  20982594.6094    -776159.59946   -581281.18962
 91  4  9 21 13 30.0000000  0  4G18G 2G11G19
  20917142.297      965462.524 7    742773.07923
  23215695.656    -3663201.664 6  -2725811.82921
  23103297.3834   -2255779.10846  -1669138.34061
  20980836.7114    -785381.29546   -588466.91862
 91  4  9 21 13 45.0000000  0  4G18G 2G11G19
  20920487.250      983038.835 7    756468.86223
  23206561.547    -3711192.258 6  -2763206.92921
  23098299.523    -2282050.949 6  -1689609.83021
  20979084.1564    -794612.17846   -595659.80463
 91  4  9 21 14  0.0000000  0  4G18G 2G11G19
  20923844.258     1000679.245 7    770214.58923
  23197431.820    -3759172.129 6  -2800593.67621
  23093314.375    -2308242.172 6  -1710018.50521
  20977324.2344    -803852.61846   -602860.14062
 91  4  9 21 14 15.0000000  0  4G18G 2G11G19
  20927213.336     1018389.878 7    784015.03523
  23188304.8754   -3807135.03846  -2837967.21261
  23088347.6334   -2334346.33146  -1730359.34261
  20975566.6024    -813096.21846   -610062.93962
 91  4  9 21 14 30.0000000  0  4G18G 2G11G19
  20930596.969     1036170.581 7    797870.08223
  23179180.648    -3855080.928 6  -2875327.47721
  23083396.328    -2360363.061 6  -1750632.04421
  20973806.3284    -822343.06146   -617268.26463
 91  4  9 21 14 45.0000000  0  4G18G 2G11G19
  20933994.102     1054021.243 7    811779.64223
  23170059.5314   -3903009.73946  -2912674.45261
  23078461.7274   -2386292.34246  -1770836.61661
  20972046.3524    -831593.30146   -624476.23562
 91  4  9 21 15  0.0000000  0  4G18G 2G11G19
  20937405.867     1071945.225 7    825746.33423
  23160943.2734   -3950917.45046  -2950004.97261
  23073545.266    -2412130.051 6  -1790969.81321
  20970284.8984    -840843.07446   -631683.84062
 91  4  9 21 15 15.0000000  0  4G18G 2G11G19
  20940830.813     1089943.774 7    839771.13223
  23151831.4924   -3998802.93746  -2987318.18761
  23068645.992    -2437874.940 6  -1811030.69121
  20968526.3284    -850091.35346   -638890.28762
 91  4  9 21 15 30.0000000  0  4G18G 2G11G19
  20944269.680     1108016.964 7    853854.08723
  23142722.1954   -4046666.02146  -3024613.93861
  23063765.4454   -2463526.41846  -1831018.78361
  20966767.8914    -859337.92546   -646095.40262
 91  4  9 21 15 45.0000000  0  4G18G 2G11G19
  20947722.883     1126163.106 7    867993.88823
  23133618.7424   -4094508.20146  -3061893.40661
  23058900.7504   -2489085.97846  -1850935.26061
  20965006.8444    -868584.17346   -653300.26162
 91  4  9 21 16  0.0000000  0  4G18G 2G11G19
  20951188.766     1144376.584 7    882186.16223
  23124517.0784   -4142334.84746  -3099160.77161
  23054053.422    -2514558.900 6  -1870784.21621
  20963245.6254    -877835.56546   -660509.13362
 91  4  9 21 16 15.0000000  0  4G18G 2G11G19
  20954668.305     1162660.522 7    896433.33923
  23115419.7894   -4190142.42246  -3136413.27761
  23049224.734    -2539941.653 6  -1890562.90721
  20961485.5474    -887088.89146   -667719.51262
 91  4  9 21 16 30.0000000  0  4G18G 2G11G19
  20958161.250     1181021.388 7    910740.45623
  23106327.7584   -4237924.26246  -3173645.73061
  23044411.070    -2565227.302 6  -1910265.93821
  20959724.3444    -896337.42446   -674926.15962
 91  4  9 21 16 45.0000000  0  4G18G 2G11G19
  20961672.109     1199466.414 7    925113.15623
  23097240.8444   -4285673.02646  -3210852.41161
  23039620.578    -2590408.444 6  -1929887.53921
  20957968.1644    -905573.86846   -682123.38062
 91  4  9 21 17  0.0000000  0  4G18G 2G11G19
  20965195.453     1217982.565 7    939541.27723
  23088159.6174   -4333401.43146  -3248043.23361
  23034844.9304   -2615497.66346  -1949437.50861
  20956212.6174    -914811.13246   -689321.24762
 91  4  9 21 17 15.0000000  0  4G18G 2G11G19
  20968734.227     1236576.981 7    954030.38323
  23079079.7344   -4381102.40946  -3285212.67961
  23030090.2274   -2640487.64746  -1968910.15361
  20954453.7974    -924042.17646   -696514.26262
 91  4  9 21 17 30.0000000  0  4G18G 2G11G19
  20972286.438     1255244.076 7    968576.11923
  23070007.117    -4428780.929 6  -3322364.62621
  23025353.4064   -2665383.32746  -1988309.31761
  20952696.3204    -933271.98546   -703706.31162
 91  4  9 21 17 45.0000000  0  4G18G 2G11G19
  20975852.086     1273984.112 7    983178.69823
  23060938.711    -4476436.318 6  -3359498.55321
  23020634.914    -2690183.975 6  -2007634.42721
  20950941.5234    -942500.12946   -710897.06462
 91  4  9 21 18  0.0000000  0  4G18G 2G11G19
  20979436.031     1292814.282 7    997851.50923
  23051878.7274   -4524051.80946  -3396601.38861
  23015935.008    -2714872.423 6  -2026872.11321
  20949189.8834    -951709.78546   -718073.41162
 91  4  9 21 18 15.0000000  0  4G18G 2G11G19
  20983035.172     1311725.999 7   1012587.85923
  23042822.938    -4571635.612 6  -3433679.52821
  23011257.0474   -2739456.86746  -2046028.74861
  20947438.2504    -960909.10646   -725241.70562
 91  4  9 21 18 30.0000000  0  4G18G 2G11G19
  20986648.492     1330715.801 7   1027385.05823
  23033774.086    -4619190.719 6  -3470735.31921
  23006597.8444   -2763940.32946  -2065106.71261
  20945687.6024    -970101.30847   -732404.44762
 91  4  9 21 18 45.0000000  0  4G18G 2G11G19
  20990278.281     1349788.863 7   1042247.13323
  23024731.133    -4666712.133 6  -3507764.84821
  23001959.2194   -2788317.40746  -2084101.77261
  20943942.5394    -979281.18746   -739557.59262
 91  4  9 21 19  0.0000000  0  4G18G 2G11G19
  20993924.195     1368949.364 7   1057177.33623
  23015693.6094   -4714195.03946  -3544764.37961
  22997339.9304   -2812583.23146  -2103010.14461
  20942201.586     -988444.110 6   -746697.51922
 91  4  9 21 19 15.0000000  0  4G18G 2G11G19
  20997586.578     1388193.646 7   1072172.83423
  23006666.352    -4761643.114 6  -3581736.76121
  22992742.9064   -2836741.35346  -2121834.58761
  20940457.2034    -997593.93946   -753827.24462
 91  4  9 21 19 30.0000000  0  4G18G 2G11G19
  21001265.984     1407527.505 7   1087238.12723
  22997644.367    -4809050.470 6  -3618677.41721
  22988167.1484   -2860785.75046  -2140570.42061
  20938718.2034   -1006724.70346   -760942.11362
 91  4  9 21 19 45.0000000  0  4G18G 2G11G19
  21004959.195     1426939.097 7   1102363.99323
  22988628.883    -4856428.452 6  -3655595.18921
  22983611.6644   -2884727.79046  -2159226.48661
  20936983.5864   -1015847.91846   -768051.10062
 91  4  9 21 20  0.0000000  0  4G18G 2G11G19
  21008670.836     1446441.270 7   1117560.43823
  22979621.320    -4903764.055 6  -3692479.94421
  22979078.3284   -2908554.20246  -2177792.46061
  20935253.3984   -1024950.55946   -775144.05962
 91  4  9 21 20 15.0000000  0  4G18G 2G11G19
  21012397.523     1466026.283 7   1132821.43323
  22970620.867    -4951064.866 6  -3729337.57721
  22974566.0234   -2932272.28646  -2196274.02361
  20933522.039    -1034040.095 6   -782226.80122
 91  4  9 21 20 30.0000000  0  4G18G 2G11G19
  21016140.102     1485693.719 7   1148146.65523
  22961626.875    -4998330.941 6  -3766168.14721
  22970071.5554   -2955882.25446  -2214671.33661
  20931795.8364   -1043116.82346   -789299.56762
 91  4  9 21 20 45.0000000  0  4G18G 2G11G19
  21019900.797     1505450.470 7   1163541.47523
  22952639.680    -5045555.391 6  -3802966.28621
  22965600.8054   -2979377.02646  -2232978.89161
  20930072.0164   -1052173.81546   -796356.95262
 91  4  9 21 21  0.0000000  0  4G18G 2G11G19
  21023676.773     1525296.235 7   1179005.65323
  22943659.594    -5092738.261 6  -3839732.01921
  22961152.4064   -3002756.54646  -2251196.63761
  20928349.906    -1061210.993 6   -803398.89722
 91  4  9 21 21 15.0000000  0  4G18G 2G11G19
  21027470.328     1545230.167 7   1194538.53323
  22934688.547    -5139879.865 6  -3876465.60321
  22956723.9304   -3026021.01246  -2269324.73261
  20926635.7194   -1070228.98146   -810425.88862
 91  4  9 21 21 30.0000000  0  4G18G 2G11G19
  21031281.398     1565261.697 7   1210147.46223
  22925728.391    -5186970.673 6  -3913159.60221
  22952320.977    -3049160.797 6  -2287355.67921
  20924924.422    -1079218.461 6   -817430.66522
 91  4  9 21 21 45.0000000  0  4G18G 2G11G19
  21035110.680     1585384.021 7   1225827.13923
  22916776.203    -5234017.320 6  -3949819.18721
  22947940.094    -3072182.377 6  -2305294.51621
  20923219.336    -1088185.975 6   -824418.32522
 91  4  9 21 22  0.0000000  0  4G18G 2G11G19
  21038956.461     1605596.293 7   1241576.90823
  22907830.094    -5281020.586 6  -3986444.97421
  22943581.828    -3095086.356 6  -2323141.71221
  20921514.789    -1097132.313 6   -831389.48522
 91  4  9 21 22 15.0000000  0  4G18G 2G11G19
  21042820.617     1625900.464 7   1257398.28523
  22898893.3284   -5327978.16846  -4023035.16561
  22939245.6644   -3117870.27646  -2340895.36561
  20919818.563    -1106055.152 6   -838342.33322
 91  4  9 21 22 30.0000000  0  4G18G 2G11G19
  21046701.5554    1646292.71847   1273288.29563
  22889966.781    -5374893.691 6  -4059592.57721
  22934932.609    -3140537.902 6  -2358558.39921
  20918124.273    -1114958.347 6   -845279.87522
 91  4  9 21 22 45.0000000  0  4G18G 2G11G19
  21050600.570     1666784.170 7   1289255.60423
  22881049.4534   -5421755.66846  -4096108.27661
  22930644.328    -3163077.530 6  -2376121.69321
  20916436.3134   -1123830.39746   -852193.14762
 91  4  9 21 23  0.0000000  0  4G18G 2G11G19
  21054518.0314    1687368.03647   1305294.92263
  22872141.070    -5468570.789 6  -4132587.45321
  22926378.406    -3185495.726 6  -2393590.35921
  20914749.9774   -1132678.00746   -859087.38062
 91  4  9 21 23 15.0000000  0  4G18G 2G11G19
  21058453.9694    1708050.21347   1321410.84663
  22863241.4384   -5515332.85546  -4169025.30261
  22922136.0164   -3207786.09246  -2410959.41761
  20913074.078    -1141494.996 6   -865957.74822
 91  4  9 21 23 30.0000000  0  4G18G 2G11G19
  21062407.0004    1728821.68147   1337596.34663
  22854351.469    -5562050.489 6  -4205428.52021
  22917917.602    -3229957.253 6  -2428235.59321
  20911400.414    -1150290.113 6   -872811.07322
 91  4  9 21 23 45.0000000  0  4G18G 2G11G19
  21066376.5234    1749682.47347   1353851.45163
  22845471.5634   -5608723.61346  -4241797.06061
  22913720.469    -3252008.904 6  -2445418.65121
  20909731.1644   -1159063.18546   -879647.22262
 91  4  9 21 24  0.0000000  0  4G18G 2G11G19
  21070363.2424    1770637.64847   1370180.09863
  22836598.2814   -5655346.98746  -4278126.83861
  22909549.281    -3273935.719 6  -2462504.43021
  20908066.711    -1167809.106 6   -886462.21522
 91  4  9 21 24 15.0000000  0  4G18G 2G11G19
  21074369.6024    1791686.51147   1386581.75363
  22827735.0234   -5701921.13646  -4314418.25661
  22905399.328    -3295738.165 6  -2479493.29221
  20906406.6024   -1176528.35346   -893256.42162
 91  4  9 21 24 30.0000000  0  4G18G 2G11G19
  21078392.7194    1812829.97847   1403057.12163
  22818881.8204   -5748444.76846  -4350670.30961
  22901274.563    -3317414.719 6  -2496384.07021
  20904753.0164   -1185219.65046   -900028.85162
 91  4  9 21 24 45.0000000  0  4G18G 2G11G19
  21082435.3754    1834070.81547   1419608.36263
  22810038.609    -5794915.116 6  -4386880.83921
  22897174.2584   -3338962.37346  -2513174.39361
  20903105.867    -1193880.310 6   -906777.40522
 91  4  9 21 25  0.0000000  0  4G18G 2G11G19
  21086496.602     1855408.530 7   1436235.09523
  22801205.5084   -5841332.06046  -4423049.76061
  22893096.383    -3360381.224 6  -2529864.36621
  20901458.4454   -1202510.25546   -913502.02962
 91  4  9 21 25 15.0000000  0  4G18G 2G11G19
  21090572.8444    1876834.52447   1452930.61763
  22792381.6884   -5887704.20046  -4459183.76861
  22889045.109    -3381679.635 6  -2546460.47221
  20899826.305    -1211118.061 6   -920209.39922
 91  4  9 21 25 30.0000000  0  4G18G 2G11G19
  21094667.4224    1898354.78847   1469699.59363
  22783567.0864   -5934025.42346  -4495278.10561
  22885016.063    -3402851.402 6  -2562957.91321
  20898191.3524   -1219697.60946   -926894.74962
 91  4  9 21 25 45.0000000  0  4G18G 2G11G19
  21098781.5394    1919974.49747   1486546.05963
  22774762.992    -5980290.233 6  -4531328.47021
  22881011.8984   -3423890.92246  -2579352.29361
  20896566.586    -1228243.599 6   -933553.95122
 91  4  9 21 26  0.0000000  0  4G18G 2G11G19
  21102913.6804    1941686.82347   1503464.69563
  22765967.6954   -6026505.27646  -4567340.06761
  22877032.914    -3444804.828 6  -2595648.79321
  20894944.3524   -1236762.69946   -940192.20062
 91  4  9 21 26 15.0000000  0  4G18G 2G11G19
  21107064.0004    1963494.11347   1520457.32863
  22757183.922    -6072667.750 6  -4603310.69321
  22873076.750    -3465590.140 6  -2611845.08821
  20893329.898    -1245252.219 6   -946807.40022
 91  4  9 21 26 30.0000000  0  4G18G 2G11G19
  21111231.7114    1985398.81647   1537525.86763
  22748409.3524   -6118775.08546  -4639238.35861
  22869145.859    -3486244.431 6  -2627939.29021
  20891718.5704   -1253709.73146   -953397.66162
 91  4  9 21 26 45.0000000  0  4G18G 2G11G19
  21115417.1954    2007396.29947   1554666.70363
  22739645.2664   -6164831.68546  -4675126.48861
  22865238.867    -3506771.815 6  -2643934.59621
  20890116.6804   -1262139.46346   -959966.27862
 91  4  9 21 27  0.0000000  0  4G18G 2G11G19
  21119623.1334    2029492.65947   1571884.58763
  22730891.875    -6210831.527 6  -4710970.39021
  22861359.352    -3527165.992 6  -2659826.11021
  20888518.7424   -1270535.25546   -966508.44962
 91  4  9 21 27 15.0000000  0  4G18G 2G11G19
  21123846.2034    2051685.34147   1589177.52363
  22722148.5084   -6256776.56746  -4746771.59261
  22857504.9304   -3547428.99246  -2675615.40161
  20886927.4534   -1278899.16846   -973025.77462
 91  4  9 21 27 30.0000000  0  4G18G 2G11G19
  21128086.8524    2073966.31747   1606539.26363
  22713414.5234   -6302674.46846  -4782536.06361
  22853670.7974   -3567568.33846  -2691308.34361
  20885338.7424   -1287239.02246   -979524.35762
 91  4  9 21 27 45.0000000  0  4G18G 2G11G19
  21132343.5084    2096341.15747   1623974.14563
  22704690.266    -6348519.727 6  -4818259.50821
  22849864.2894   -3587578.45046  -2706900.57161
  20883758.4304   -1295549.52546   -986000.06962
 91  4  9 21 28  0.0000000  0  4G18G 2G11G19
  21136620.3284    2118812.25647   1641484.02963
  22695976.633    -6394309.509 6  -4853939.72721
  22846081.7734   -3607456.53946  -2722389.92261
  20882183.2034   -1303827.61846   -992450.52362
 91  4  9 21 28 15.0000000  0  5G18G 2G11G19G16
  21140914.1024    2141379.38347   1659068.74763
  22687273.383    -6440043.797 6  -4889576.70221
  22842324.6334   -3627202.28646  -2737776.16061
  20880613.5784   -1312073.23846   -998875.67763
  24218279.633          -0.58415
 91  4  9 21 28 30.0000000  0  5G18G 2G11G19G16
  21145226.4924    2164038.15547   1676724.87263
  22678579.1174   -6485726.73946  -4925173.67561
  22838590.2274   -3646819.79546  -2753062.47761
  20879049.0704   -1320290.68446  -1005278.87362
  24213494.969      -25137.579 5
 91  4  9 21 28 45.0000000  0  5G18G 2G11G19G16
  21149557.6564    2186796.68547   1694458.73163
  22669899.094    -6531350.021 6  -4960724.15521
  22834884.0234   -3666300.75546  -2768242.38061
  20877493.7344   -1328471.80846  -1011653.76962
  24208735.055      -50153.524 5
 91  4  9 21 29  0.0000000  0  5G18G 2G11G19G16
  21153905.2974    2209648.23547   1712265.07463
  22661226.781    -6576920.451 6  -4996233.44121
  22831201.2504   -3685651.58846  -2783320.88361
  20875941.6484   -1336623.05046  -1018005.38262
  24204000.4224     -75055.01145        -0.01371
 91  4  9 21 29 15.0000000  0  5G18G 2G11G19G16
  21158272.5784    2232597.77247   1730147.77863
  22652565.141    -6622432.704 6  -5031697.40421
  22827542.6094   -3704867.06646  -2798293.91661
  20874398.4064   -1344739.05946  -1024329.53662
  24199282.6334     -99836.81045    -19310.47361
 91  4  9 21 29 30.0000000  0  5G18G 2G11G19G16
  21162658.7194    2255646.32647   1748107.62063
  22643916.688    -6667885.489 6  -5067115.03021
  22823911.8054   -3723945.90446  -2813160.49061
  20872862.3834   -1352818.78646  -1030625.42462
  24194590.727     -124497.916 5    -38526.90321
 91  4  9 21 29 45.0000000  0  5G18G 2G11G19G16
  21167064.3054    2278789.09647   1766140.88763
  22635276.930    -6713283.350 6  -5102489.85121
  22820307.0784   -3742892.53746  -2827924.03161
  20871329.2114   -1360866.89846  -1036896.67863
  24189916.672     -149042.698 5    -57652.68321
 91  4  9 21 30  0.0000000  0  5G18G 2G11G19G16
  21171485.6094    2302028.11347   1784249.15363
  22626647.359    -6758623.932 6  -5137820.04421
  22816727.6804   -3761704.50146  -2842582.64561
  20869803.6724   -1368880.96946  -1043141.40362
  24185269.203     -173468.866 5    -76686.04621
 91  4  9 21 30 15.0000000  0  5G18G 2G11G19G16
  21175923.7114    2325356.23547   1802426.84963
  22618029.9304   -6803914.03646  -5173110.90161
  22813171.8204   -3780388.58446  -2857141.60361
  20868284.8444   -1376867.86346  -1049364.95363
  24180645.164     -197783.430 5    -95632.44221
 91  4  9 21 30 30.0000000  0  5G18G 2G11G19G16
  21180382.5234    2348781.29747   1820680.08563
  22609424.305    -6849145.684 6  -5208356.20421
  22809642.5394   -3798936.71346  -2871594.62861
  20866771.1884   -1384819.66146  -1055561.15862
  24176037.164     -221978.119 5   -114485.43521
 91  4  9 21 30 45.0000000  0  5G18G 2G11G19G16
  21184858.9304    2372303.54547   1839009.04963
  22600827.383    -6894318.331 6  -5243555.54021
  22806139.8834   -3817348.12246  -2885941.12061
  20865263.9384   -1392735.71646  -1061729.50762
  24171457.898     -246052.426 5   -133244.60821
 91  4  9 21 31  0.0000000  0  5G18G 2G11G19G16
  21189351.9224    2395918.18747   1857410.00863
  22592240.3984   -6939436.55746  -5278712.47061
  22802660.9694   -3835627.27346  -2900184.54961
  20863761.7344   -1400620.62146  -1067873.59062
  24166900.023     -270010.867 5   -151913.51021
 91  4  9 21 31 15.0000000  0  5G18G 2G11G19G16
  21193864.0084    2419624.93047   1875882.73563
  22583664.664    -6984500.640 6  -5313827.20821
  22799206.7424   -3853774.46846  -2914325.15761
  20862270.2894   -1408474.62246  -1073993.58762
  24162362.3204    -293853.70845   -170492.32861
 91  4  9 21 31 30.0000000  0  5G18G 2G11G19G16
  21198393.7734    2443432.12747   1894433.74163
  22575101.9224   -7029501.77846  -5348892.90061
  22795779.7274   -3871780.85446  -2928356.04961
  20860784.8364   -1416289.23646  -1080082.89862
  24157848.0394    -317572.33445   -188974.37161
 91  4  9 21 31 45.0000000  0  5G18G 2G11G19G16
  21202941.9534    2467335.69947   1913059.83763
  22566550.461    -7074443.937 6  -5383912.62621
  22792380.5944   -3889650.28446  -2942280.21861
  20859301.9614   -1424068.14846  -1086144.38362
  24153358.641     -341170.701 5   -207362.70221
 91  4  9 21 32  0.0000000  0  5G18G 2G11G19G16
  21207508.8524    2491330.62347   1931757.12263
  22558006.953    -7119331.739 6  -5418890.00321
  22789003.500    -3907387.417 6  -2956101.30421
  20857826.8914   -1431816.02346  -1092181.69162
  24148886.6094    -364653.58745   -225661.03361
 91  4  9 21 32 15.0000000  0  5G18G 2G11G19G16
  21212092.7734    2515423.17747   1950530.48163
  22549477.078    -7164158.796 6  -5453820.04721
  22785657.5784   -3924985.68946  -2969814.19161
  20856360.2734   -1439526.62446  -1098189.94762
  24144442.688     -388014.535 5   -243864.34721
 91  4  9 21 32 30.0000000  0  5G18G 2G11G19G16
  21216696.7344    2539615.46947   1969381.55463
  22540957.883    -7208922.536 6  -5488700.74321
  22782333.7974   -3942442.50546  -2983416.84561
  20854901.2734   -1447197.41446  -1104167.18362
  24140022.9224    -411251.04445   -261970.72261
 91  4  9 21 32 45.0000000  0  5G18G 2G11G19G16
  21221319.1884    2563905.16747   1988308.52963
  22532450.1254   -7253625.25646  -5523533.90061
  22779037.781    -3959760.094 6  -2996911.01921
  20853448.1804   -1454830.63746  -1110115.14862
  24135624.5004    -434365.41545   -279981.90961
 91  4  9 21 33  0.0000000  0  5G18G 2G11G19G16
  21225959.6024    2588290.79147   2007310.25463
  22523957.883    -7298268.361 6  -5558320.60421
  22775769.313    -3976939.757 6  -3010297.71821
  20852002.9064   -1462427.58246  -1116034.84362
  24131247.6174    -457358.86645   -297898.85961
 91  4  9 21 33 15.0000000  0  5G18G 2G11G19G16
  21230617.6954    2612769.29047   2026384.34763
  22515471.5944   -7342854.24046  -5593062.72061
  22772526.609    -3993983.895 6  -3023578.81521
  20850563.4534   -1469990.82746  -1121928.27962
  24126894.523     -480234.085 5   -315723.69821
 91  4  9 21 33 30.0000000  0  5G18G 2G11G19G16
  21235293.0234    2637341.25647   2045531.26963
  22506998.7814   -7387382.42746  -5627759.88061
  22769309.063    -4010891.938 6  -3036753.86121
  20849129.7584   -1477519.78846  -1127795.00262
  24122564.961     -502990.530 5   -333455.97521
 91  4  9 21 33 45.0000000  0  5G18G 2G11G19G16
  21239988.1254    2662012.35147   2064755.43663
  22498537.2584   -7431846.88046  -5662407.37962
  22766117.906    -4027657.585 6  -3049817.95321
  20847705.6414   -1485008.29646  -1133630.19762
  24118256.2974    -525621.90445   -351090.79261
 91  4  9 21 34  0.0000000  0  5G18G 2G11G19G16
  21244703.1414    2686785.62747   2084059.22463
  22490088.109    -7476244.359 6  -5697002.68621
  22762955.953    -4044277.668 6  -3062768.62021
  20846288.2664   -1492453.26046  -1139431.46462
  24113975.352     -548124.836 5   -368625.52521
 91  4  9 21 34 15.0000000  0  5G18G 2G11G19G16
  21249434.6254    2711652.76947   2103436.15563
  22481651.1804   -7520582.81946  -5731552.00661
  22759819.297    -4060759.962 6  -3075611.92021
  20844879.4224   -1499862.70646  -1145205.06162
  24109714.6954    -570507.80545   -386066.79961
 91  4  9 21 34 30.0000000  0  5G18G 2G11G19G16
  21254183.6884    2736611.88247   2122884.75263
  22473223.9774   -7564863.89446  -5766056.61261
  22756708.016    -4077106.213 6  -3088349.21321
  20843473.7814   -1507238.17546  -1150952.17162
  24105479.8984    -592772.50045   -403415.90061
 91  4  9 21 34 45.0000000  0  5G18G 2G11G19G16
  21258953.8204    2761669.81547   2142410.34963
  22464810.7194   -7609080.60946  -5800511.07061
  22753624.4454   -4093309.24846  -3100974.91061
  20842079.6804   -1514572.51646  -1156667.23662
  24101266.3984    -614911.54345   -420667.10461
 91  4  9 21 35  0.0000000  0  5G18G 2G11G19G16
  21263738.6174    2786825.80147   2162012.34863
  22456407.8914   -7653233.43646  -5834915.74261
  22750569.047    -4109369.527 6  -3113489.37421
  20840690.4694   -1521866.43146  -1162350.79862
  24097077.234     -636925.758 5   -437821.02321
 91  4  9 21 35 15.0000000  0  5G18G 2G11G19G16
  21268546.0164    2812079.85547   2181690.76763
  22448018.0394   -7697322.20446  -5869270.50161
  22747538.8134   -4125286.76846  -3125892.38261
  20839312.1484   -1529119.73246  -1168002.71762
  24092910.3984    -658814.70745   -454877.34061
 91  4  9 21 35 30.0000000  0  5G18G 2G11G19G16
  21273367.2664    2837424.38647   2201439.68763
  22439639.7894   -7741354.15646  -5903580.98961
  22744536.5634   -4141068.22146  -3138189.57761
  20837936.7974   -1536339.78646  -1173628.73162
  24088767.0554    -680585.93645   -471841.92861
 91  4  9 21 35 45.0000000  0  5G18G 2G11G19G16
  21278209.7034    2862864.63847   2221263.19563
  22431272.0084   -7785323.86446  -5937842.96961
  22741560.0164   -4156708.38846  -3150376.68761
  20836571.6334   -1543520.91046  -1179224.40662
  24084649.125     -702233.937 5   -488710.47721
 91  4  9 21 36  0.0000000  0  6G18G 2G11G19G16G 6
  21283069.0704    2888402.26447   2241162.57863
  22422916.2664   -7829229.26546  -5972054.85261
  22738611.9384   -4172205.30646  -3162452.17561
  20835210.1414   -1550661.34746  -1184788.38062
  24080554.0164    -723756.87345   -505481.60061
  24309188.7734         -0.11054
 91  4  9 21 36 15.0000000  0  6G18G 2G11G19G16G 6
  21287948.1884    2914039.03947   2261139.21463
  22414574.5944   -7873068.26646  -6006214.98461
  22735689.5634   -4187556.83846  -3174414.37161
  20833861.9694   -1557758.99546  -1190319.00662
  24076482.328     -745152.633 5   -522153.59521
  24301353.7274     -41181.52844
 91  4  9 21 36 30.0000000  0  6G18G 2G11G19G16G 6
  21292844.8914    2939771.91847   2281190.74263
  22406243.9384   -7916843.98846  -6040325.81962
  22732795.7664   -4202765.80746  -3186265.48861
  20832518.1334   -1564816.71546  -1195818.52762
  24072437.1484    -766424.20845   -538728.85961
  24293514.1884     -82365.63144
 91  4  9 21 36 45.0000000  0  6G18G 2G11G19G16G 6
  21297762.1094    2965605.62547   2301320.83663
  22397927.9144   -7960551.35346  -6074383.38261
  22729929.234    -4217827.043 6  -3198001.48921
  20831182.7344   -1571829.54946  -1201283.06562
  24068408.7664    -787566.46245   -555203.34161
  24285677.9534    -123547.61344
 91  4  9 21 37  0.0000000  0  6G18G 2G11G19G16G 6
  21302694.2974    2991532.02847   2321523.16063
  22389619.8524   -8004198.08146  -6108393.70461
  22727090.4694   -4232748.31346  -3209628.42561
  20829854.7344   -1578805.15046  -1206718.59562
  24064412.0474    -808587.08445   -571583.04261
  24277840.820     -164735.288 4
 91  4  9 21 37 15.0000000  0  6G18G 2G11G19G16G 6
  21307646.195     3017552.605 7   2341798.86323
  22381326.4144   -8047782.49646  -6142355.46462
  22724277.9534   -4247527.91746  -3221144.96961
  20828536.7664   -1585741.76046  -1212123.73962
  24060433.891     -829484.784 5   -587866.98321
  24270000.078     -205927.089 4        -0.06631
 91  4  9 21 37 30.0000000  0  6G18G 2G11G19G16G 6
  21312616.4384    3043669.41247   2362149.55363
  22373046.2894   -8091302.51346  -6176267.04462
  22721492.266    -4262163.687 6  -3232549.44021
  20827223.2584   -1592637.26946  -1217496.86262
  24056481.6564    -850257.44245   -604053.45661
  24262162.469     -247121.042 4    -32099.08421
 91  4  9 21 37 45.0000000  0  6G18G 2G11G19G16G 6
  21317605.406     3069879.688 7   2382573.07423
  22364775.8054   -8134760.37446  -6210130.19362
  22718733.8834   -4276657.79746  -3243843.52661
  20825920.3834   -1599494.17346  -1222839.89962
  24052551.0084    -870907.45045   -620144.38361
  24254321.3444    -288319.57244    -64201.65961
 91  4  9 21 38  0.0000000  0  6G18G 2G11G19G16G 6
  21322609.328     3096184.763 7   2403070.46423
  22356518.3204   -8178154.70246  -6243943.84261
  22716002.5394   -4291008.93846  -3255026.20561
  20824620.5554   -1606311.16846  -1228151.83762
  24048646.3284    -891433.21645   -636138.49061
  24246484.1334    -329521.51344    -96306.88861
 91  4  9 21 38 14.9990000  0  6G18G 2G11G19G16G 6
  21327634.5194    3122588.78947   2423644.96063
  22348274.6834   -8221476.32746  -6277700.83062
  22713301.230    -4305209.908 6  -3266091.86921
  20823333.0194   -1613081.19946  -1233427.17962
  24044766.3154    -911827.28945   -652029.98361
  24238643.5034    -370717.91944   -128407.78761
 91  4  9 21 38 29.9990000  0  6G18G 2G11G19G16G 6
  21332678.081     3149087.418 7   2444293.16623
  22340042.628    -8264738.671 6  -6311411.63321
  22710625.5584   -4319269.98346  -3277047.74161
  20822051.6674   -1619812.77246  -1238672.55862
  24040907.690     -932100.097 5   -667826.97421
  24230801.7224    -411921.80944   -160514.56361
 91  4  9 21 38 44.9990000  0  6G18G 2G11G19G16G 6
  21337735.565     3175677.301 7   2465012.48423
  22331820.2374   -8307940.13446  -6345074.99362
  22707975.2374   -4333189.44146  -3287894.04161
  20820778.8314   -1626506.84346  -1243888.71162
  24037076.612     -952251.304 5   -683529.20921
  24222958.8004    -453131.93444   -192626.17661
 91  4  9 21 38 59.9990000  0  6G18G 2G11G19G16G 6
  21342814.675     3202360.028 7   2485804.14423
  22323610.847    -8351078.937 6  -6378689.53122
  22705354.8944   -4346966.62246  -3298629.48361
  20819510.6904   -1633161.76346  -1249074.36162
  24033263.269     -972279.239 5   -699135.39721
  24215116.9404    -494346.79344   -224741.46561
 91  4  9 21 39 14.9990000  0  6G18G 2G11G19G16G 6
  21347909.300     3229139.098 7   2506670.87823
  22315415.190    -8394151.569 6  -6412252.50622
  22702760.7144   -4360597.83946  -3309251.17361
  20818255.0344   -1639773.81246  -1254226.59562
  24029473.8624    -992180.44745   -714642.85861
  24207269.1514    -535562.88044   -256857.75461
 91  4  9 21 39 29.9990000  0  6G18G 2G11G19G16G 6
  21353025.097     3256012.260 7   2527610.92623
  22307230.269    -8437159.691 6  -6445765.21322
  22700194.628    -4374084.602 6  -3319760.31121
  20817003.8554   -1646344.69046  -1259346.76062
  24025711.5584   -1011956.50745   -730052.76261
  24199426.7694    -576781.84144   -288976.24161
 91  4  9 21 39 44.9990000  0  6G18G 2G11G19G16G 6
  21358155.698     3282979.616 7   2548624.37423
  22299058.519    -8480102.973 6  -6479227.39722
  22697655.3154   -4387426.74546  -3330156.75261
  20815763.2764   -1652873.91746  -1264434.46462
  24021970.9094   -1031607.34445   -745365.10661
  24191583.2064    -618003.48844   -321096.85061
 91  4  9 21 39 59.9990000  0  6G18G 2G11G19G16G 6
  21363304.737     3310041.719 7   2569711.64923
  22290898.894    -8522980.850 6  -6512638.62022
  22695144.6984   -4400623.65846  -3340440.03161
  20814525.4804   -1659360.95846  -1269489.30262
  24018254.9724   -1051132.42545   -760579.47361
  24183740.198     -659227.320 4   -353219.15521
 91  4  9 21 40 14.9990000  0  6G18G 2G11G19G16G 6
  21368473.730     3337194.994 7   2590869.96423
  22282751.644    -8565796.776 6  -6546001.57422
  22692659.6124   -4413678.77046  -3350612.80961
  20813298.8234   -1665809.42746  -1274514.07862
  24014564.0584   -1070535.25945   -775698.57161
  24175894.1204    -700457.04944   -385346.03961
 91  4  9 21 40 29.9990000  0  6G18G 2G11G19G16G 6
  21373657.323     3364442.869 7   2612101.99523
  22274615.339    -8608546.654 6  -6579313.05422
  22690202.8624   -4426587.95446  -3360671.88261
  20812082.3624   -1672215.12746  -1279505.53162
  24010893.1124   -1089811.98345   -790719.40861
  24168045.597     -741688.750 3   -417474.49321
 91  4  9 21 40 44.9990000  0  6G18G 2G11G19G16G 6
  21378861.308     3391784.351 7   2633406.96523
  22266494.269    -8651231.403 6  -6612573.78421
  22687773.5344   -4439352.03246  -3370617.87961
  20810871.1984   -1678578.90346  -1284464.31462
  24007251.081    -1108963.202 5   -805642.43121
  24160200.5894    -782923.27644   -449605.12461
 91  4  9 21 40 59.9990000  0  6G18G 2G11G19G16G 6
  21384083.269     3419224.532 7   2654788.84323
  22258384.112    -8693845.454 6  -6645779.42922
  22685372.7534   -4451965.46946  -3380446.49761
  20809668.4644   -1684895.25946  -1289386.14162
  24003633.8864   -1127983.49645   -820463.44761
  24152355.237     -824155.269 4   -481733.79721
 91  4  9 21 41 14.9990000  0  6G18G 2G11G19G16G 6
  21389320.808     3446757.624 7   2676243.12023
  22250286.362    -8736394.689 6  -6678934.56722
  22683002.526    -4464434.000 6  -3390162.19821
  20808474.2374   -1691169.93046  -1294275.49062
  24000038.144    -1146878.803 5   -835187.07321
  24144506.105     -865390.564 4   -513865.03021
 91  4  9 21 41 29.9990000  0  6G18G 2G11G19G16G 6
  21394580.237     3474389.102 7   2697774.05623
  22242203.753    -8778873.073 6  -6712034.49822
  22680656.597    -4476751.634 6  -3399760.31521
  20807288.2304   -1697396.92946  -1299127.69463
  23996466.565    -1165643.429 5   -849808.86721
  24136661.112     -906623.397 4   -545994.35421
 91  4  9 21 41 44.9990000  0  6G18G 2G11G19G16G 6
  21399856.980     3502113.721 7   2719377.57423
  22234132.542    -8821285.950 6  -6745083.38322
  22678339.839    -4488923.517 6  -3409244.85821
  20806112.0114   -1703581.56946  -1303946.89262
  23992917.8154   -1184282.39145   -864332.75061
  24128814.0194    -947858.99644   -578125.81861
 91  4  9 21 41 59.9990000  0  6G18G 2G11G19G16G 6
  21405149.683     3529932.014 7   2741054.07923
  22226073.519    -8863632.213 6  -6778080.35722
  22676052.706    -4500948.517 6  -3418614.94421
  20804944.7694   -1709722.67346  -1308732.16762
  23989395.175    -1202794.581 5   -878757.85021
  24120965.722     -989096.356 4   -610258.68021
 91  4  9 21 42 14.9990000  0  6G18G 2G11G19G16G 6
  21410463.128     3557849.004 7   2762807.49423
  22218029.800    -8905906.534 6  -6811021.28022
  22673793.612    -4512821.699 6  -3427866.73121
  20803783.9484   -1715815.12546  -1313479.52562
  23985896.386    -1221175.048 5   -893080.30221
  24113117.3474   -1030330.56344   -642389.08661
 91  4  9 21 42 29.9990000  0  6G18G 2G11G19G16G 6
  21415794.769     3585863.334 7   2784636.75723
  22209998.175    -8948110.331 6  -6843907.25122
  22671562.4564   -4524544.28546  -3437001.17661
  20802633.3234   -1721860.26746  -1318190.01962
  23982426.167    -1239425.554 5   -907301.47121
  24105274.050    -1071563.086 4   -674518.17621
 91  4  9 21 42 44.9990000  0  6G18G 2G11G19G16G 6
  21421140.4724    3613969.00447   2806537.19463
  22201980.464    -8990249.214 6  -6876742.63322
  22669358.7614   -4536121.62546  -3446022.43961
  20801491.6364   -1727863.50846  -1322867.86462
  23978975.9254   -1257551.38245   -921425.50761
  24097428.214    -1112799.391 4   -706650.20521
 91  4  9 21 42 59.9990000  0  6G18G 2G11G19G16G 6
  21426508.987     3642172.892 7   2828514.16523
  22193975.503    -9032315.994 6  -6909521.83922
  22667185.839    -4547546.561 6  -3454924.94321
  20800359.3554   -1733817.61846  -1327507.42563
  23975551.0974   -1275545.16645   -935446.65261
  24089578.7844   -1154032.39744   -738779.66561
 91  4  9 21 43 14.9990000  0  6G18G 2G11G19G16G 6
  21431895.4804    3670473.09447   2850566.18363
  22185982.940    -9074312.366 6  -6942246.17922
  22665038.940    -4558820.776 6  -3463710.00321
  20799233.7694   -1739724.41346  -1332110.11762
  23972152.573    -1293408.850 5   -949366.42221
  24081733.1444   -1195264.02944   -770908.09161
 91  4  9 21 43 29.9990000  0  6G18G 2G11G19G16G 6
  21437297.1124    3698868.19947   2872692.15163
  22178006.190    -9116239.680 6  -6974916.70422
  22662922.894    -4569945.651 6  -3472378.69421
  20798116.3084   -1745585.08846  -1336676.86962
  23968776.3314   -1311143.76945   -963185.83161
  24073886.823    -1236495.713 4   -803036.49821
 91  4  9 21 43 44.9990000  0  6G18G 2G11G19G16G 6
  21442722.0584    3727369.62247   2894900.96663
  22170041.105    -9158086.133 6  -7007524.22322
  22660836.761    -4580909.336 6  -3480921.78121
  20797014.7374   -1751387.80146  -1341198.45362
  23965429.8154   -1328738.02245   -976895.65461
  24066042.4174   -1277715.59944   -835155.74861
 91  4  9 21 43 59.9990000  0  6G18G 2G11G19G16G 6
  21448164.2144    3755966.04747   2917183.80763
  22162090.206    -9199862.652 6  -7040077.24522
  22658776.9564   -4591722.81246  -3489347.82661
  20795923.8864   -1757143.61046  -1345683.49762
  23962104.878    -1346202.863 5   -990504.64021
  24058200.2224   -1318934.80444   -867274.46161
 91  4  9 21 44 14.9990000  0  6G18G 2G11G19G16G 6
  21453622.730     3784656.240 7   2939539.71722
  22154153.597    -9241570.358 6  -7072576.65122
  22656749.464    -4602387.115 6  -3497657.63121
  20794833.4404   -1762853.51146  -1350132.76262
  23958807.3944   -1363539.58745  -1004013.79261
  24050354.3784   -1360154.47844   -899393.52761
 91  4  9 21 44 29.9990000  0  6G18G 2G11G19G16G 6
  21459099.706     3813444.918 7   2961972.37022
  22146232.222    -9283204.150 6  -7105018.45722
  22654750.0654   -4612897.09146  -3505847.18261
  20793754.4254   -1768512.31646  -1354542.21662
  23955533.3234   -1380742.78145  -1017418.88661
  24042510.089    -1401369.618 4   -931509.06221
 91  4  9 21 44 44.9990000  0  6G18G 2G11G19G16G 6
  21464598.9644    3842333.85047   2984483.13562
  22138322.847    -9324762.085 6  -7137401.16022
  22652779.136    -4623250.825 6  -3513914.98221
  20792689.3394   -1774118.18446  -1358910.42062
  23952286.2534   -1397810.78545  -1030718.61661
  24034673.5424   -1442578.38744   -963619.65261
 91  4  9 21 44 59.9990000  0  6G18G 2G11G19G16G 6
  21470116.0734    3871319.96147   3007069.62962
  22130429.448    -9366246.989 6  -7169726.95222
  22650838.2694   -4633450.98646  -3521863.11861
  20791632.8784   -1779673.62146  -1363239.32462
  23949062.2844   -1414746.27145  -1043915.12061
  24026830.394    -1483783.676 4   -995727.49921
 91  4  9 21 45 14.9990000  0  6G18G 2G11G19G16G 6
  21475648.8474    3900402.09347   3029730.94462
  22122546.901    -9407660.109 6  -7201996.80722
  22648926.7454   -4643498.84746  -3529692.58761
  20790584.5344   -1785179.95346  -1367529.96562
  23945862.894    -1431550.721 5  -1057009.50221
  24018991.878    -1524986.788 4  -1027833.68621
 91  4  9 21 45 29.9990000  0  6G18G 2G11G19G16G 6
  21481200.472     3929576.556 7   3052464.20422
  22114680.620    -9449004.476 6  -7234213.08622
  22647041.847    -4653397.530 6  -3537405.80321
  20789547.2614   -1790640.38646  -1371784.84462
  23942692.167    -1448227.221 5  -1070004.19421
  24011148.7764   -1566191.03545  -1059940.76761
 91  4  9 21 45 44.9990000  0  6G18G 2G11G19G16G 6
  21486769.8624    3958839.93447   3075266.74662
  22106824.995    -9490283.233 6
  22645184.800    -4663150.242 6  -3545005.27821
  20788515.5584   -1796057.98846  -1376006.34863
  23939541.4724   -1464779.07345  -1082901.74561
  24003304.9174   -1607399.55045
 91  4  9 21 45 59.9990000  0  6G18G 2G11G19G16G 6
  21492357.1204    3988199.42447   3098144.18462
  22098983.331    -9531489.033 6
  22643359.425    -4672749.711 6  -3552485.33721
  20787492.2454   -1801425.27046  -1380188.63662
  23936415.605    -1481199.008 5  -1095696.50921
  23995462.3864   -1648605.13345
 91  4  9 21 46 14.9990000  0  6G18G 2G11G19G16G 6
  21497960.3004    4017650.53347   3121093.01062
  22091156.480    -9572625.946 6  -7330541.19322
  22641562.0654   -4682199.88146  -3559849.07661
  20786479.5034   -1806746.16646  -1384334.78862
  23933314.909    -1497490.948 5  -1108391.55521
  23987622.792    -1689811.836 5  -1156268.22121
 91  4  9 21 46 29.9990000  0  6G18G 2G11G19G16G 6
  21503581.5734    4047189.79647   3144110.52862
  22083339.558    -9613697.369 6  -7362544.79722
  22639790.1984   -4691504.22146  -3567099.17361
  20785477.1834   -1812024.26446  -1388447.58863
  23930241.1834   -1513658.78045  -1120989.86761
  23979780.7764   -1731023.21545  -1188380.83261
 91  4  9 21 46 44.9990000  0  6G18G 2G11G19G16G 6
  21509220.6754    4076819.18447   3167198.27162
  22075536.3944   -9654701.16746  -7394495.70562
  22638048.2454   -4700660.35246  -3574233.78861
  20784480.7064   -1817257.20146  -1392525.19762
  23927188.222    -1529699.910 5  -1133489.50121
  23971939.386    -1772237.066 5  -1220495.41221
 91  4  9 21 46 59.9990000  0  6G18G 2G11G19G16G 6
  21514876.2374    4106537.61147   3190355.39962
  22067746.886    -9695638.060 6  -7426394.47822
  22636334.9094   -4709669.03446  -3581253.50661
  20783492.5974   -1822445.73646  -1396568.21062
  23924158.362    -1545615.261 5  -1145891.07921
  23964094.339    -1813454.171 5  -1252612.47321
 91  4  9 21 47 14.9990000  0  6G18G 2G11G19G16G 6
  21520549.3624    4136347.98147   3213584.17062
  22059970.558    -9736504.968 6  -7458238.71722
  22634649.7924   -4718527.21446  -3588155.94261
  20782514.4404   -1827586.73846  -1400574.18263
  23921154.9874   -1561401.97845  -1158192.44861
  23956249.315    -1854671.681 5  -1284729.86721
 91  4  9 21 47 29.9990000  0  6G18G 2G11G19G16G 6
  21526238.0264    4166245.95047   3236881.19962
  22052206.5894   -9777305.63246  -7490031.34262
  22632990.011    -4727238.770 6  -3594944.12721
  20781545.1514   -1832684.16346  -1404546.19863
  23918175.589    -1577063.784 5  -1170396.48121
  23948408.5194   -1895893.50645  -1316850.62461
 91  4  9 21 47 44.9990000  0  6G18G 2G11G19G16G 6
  21531944.4874    4196235.87447   3260249.88162
  22044455.933    -9818035.607 6  -7521768.88422
  22631361.7454   -4735799.24746  -3601614.59061
  20780583.7304   -1837733.41646  -1408480.67462
  23915218.6204   -1592596.36145  -1182499.81861
  23940563.784    -1937115.219 5  -1348971.31621
 91  4  9 21 47 59.9990000  0  6G18G 2G11G19G16G 6
  21537667.0584    4226310.58647   3283684.63062
  22036717.589    -9858701.948 6  -7553456.83422
  22629761.4874   -4744215.56446  -3608172.71861
  20779629.1204   -1842741.43446  -1412383.02263
  23912285.253    -1608006.764 5  -1194507.92921
  23932714.526    -1978343.794 5  -1381097.31921
 91  4  9 21 48 14.9990000  0  6G18G 2G11G19G16G 6
  21543407.5734    4256476.96147   3307190.80663
  22028992.5894   -9899297.50546  -7585089.63962
  22628186.9804   -4752480.51946  -3614612.90661
  20778686.1594   -1847700.90846  -1416247.54463
  23909380.823    -1623287.873 5  -1206415.31121
  23924868.933    -2019572.145 5  -1413223.17821
 91  4  9 21 48 29.9990000  0  6G18G 2G11G19G16G 6
  21549166.1124    4286734.61947   3330768.11063
  22021280.315    -9939822.455 6  -7616667.41522
  22626643.581    -4760594.279 6  -3620935.27921
  20777751.5034   -1852611.82146  -1420074.22463
  23906495.401    -1638439.880 5  -1218222.09221
  23917025.8084   -2060800.55845  -1445349.05261
 91  4  9 21 48 44.9990000  0  6G18G 2G11G19G16G 6
  21554942.6514    4317086.43047   3354418.78162
  22013582.628    -9980273.424 6  -7648187.54622
  22625129.1834   -4768553.49446  -3627137.23561
  20776827.7304   -1857471.05646  -1423860.63663
  23903636.276    -1653459.602 5  -1229925.80421
  23909181.1514   -2102025.72445  -1477472.44761
 91  4  9 21 48 59.9990000  0  6G18G 2G11G19G16G 6
  21560737.4564    4347539.27047   3378148.17662
  22005900.526   -10020643.433 6  -7679644.59822
  22623646.3474   -4776351.19846  -3633213.33061
  20775913.4804   -1862271.53346  -1427601.26862
  23900807.128    -1668340.232 5  -1241521.12821
  23901337.7454   -2143240.78045  -1509587.90761
 91  4  9 21 49 14.9990000  0  6G18G 2G11G19G16G 6
  21566549.8784    4378081.42547   3401947.16562
  21998230.8784  -10060944.01046  -7711047.55162
  22622190.7614   -4783999.06646  -3639172.67461
  20775009.5584   -1867024.90346  -1431305.19463
  23897998.659    -1683093.392 5  -1253017.10721
  23893495.425    -2184457.434 5  -1541704.63621
 91  4  9 21 49 29.9990000  0  6G18G 2G11G19G16G 6
  21572378.5264    4408717.11847   3425819.04362
  21990575.8084  -10101170.58446  -7742392.83162
  22620763.6674   -4791492.50146  -3645011.68161
  20774114.0894   -1871726.41146  -1434968.70563
  23895215.3084   -1697714.40945  -1264410.12061
  23885651.128    -2225671.235 5  -1573819.15321
 91  4  9 21 49 44.9990000  0  6G18G 2G11G19G16G 6
  21578226.4014    4439441.38347   3449759.93662
  21982934.6904  -10141327.93746  -7773684.17462
  22619364.0114   -4798836.39246  -3650734.15261
  20773231.6364   -1876380.67146  -1438595.40262
  23892458.386    -1712208.095 5  -1275703.93321
  23877806.581    -2266886.833 5  -1605935.05821
 91  4  9 21 49 59.9990000  0  6G18G 2G11G19G16G 6
  21584089.1674    4470254.15747   3473769.80362
  21975305.9014  -10181415.78546  -7804921.36062
  22617996.9174   -4806030.24246  -3656339.71061
  20772352.2064   -1880987.30446  -1442184.98863
  23889723.808    -1726574.114 5  -1286898.25121
  23869965.753    -2308104.042 5  -1638052.22821
 91  4  9 21 50 14.9990000  0  6G18G 2G11G19G16G 6
  21589968.7304    4501155.53847   3497848.70962
  21967690.7924  -10221433.72046  -7836104.06962
  22616656.9564   -4813073.68046  -3661828.06761
  20771485.7694   -1885546.03946  -1445737.24662
  23887015.0034   -1740812.44745  -1297993.08261
  23862121.4564   -2349322.51045  -1670170.35261
 91  4  9 21 50 29.9990000  0  6G18G 2G11G19G16G 6
  21595867.5584    4532148.91247   3521999.30062
  21960089.7844  -10261378.06846  -7867229.43562
  22615344.1284   -4819963.10646  -3667196.41461
  20770627.3554   -1890053.14646  -1449249.27762
  23884332.1754   -1754919.38145  -1308985.49561
  23854276.6754   -2390538.76545  -1702286.76961
 91  4  9 21 50 44.9990000  0  6G18G 2G11G19G16G 6
  21601781.7694    4563230.10147   3546218.32262
  21952502.3784  -10301252.74246  -7898300.51462
  22614062.9874   -4826702.49446  -3672447.84561
  20769778.2224   -1894512.42346  -1452724.03462
  23881669.987    -1768898.955 5  -1319878.69921
  23846433.6204   -2431756.68045  -1734404.47561
 91  4  9 21 50 59.9990000  0  6G18G 2G11G19G16G 6
  21607713.1594    4594396.43747   3570503.68762
  21944926.7064  -10341060.46846  -7929319.42562
  22612808.597    -4833294.415 6  -3677584.36221
  20768938.5654   -1898926.51246  -1456163.58062
  23879034.8474   -1782754.06845  -1330674.90261
  23838587.7454   -2472979.03045  -1766525.63161
 91  4  9 21 51 14.9990000  0  6G18G 2G11G19G16G 6
  21613661.6594    4625656.27147   3594861.90962
  21937366.0194  -10380792.31746  -7960279.21162
  22611581.7224   -4839730.19346  -3682599.22361
  20768111.2064   -1903286.64546  -1459561.08262
  23876421.5974   -1796475.88045  -1341367.24861
  23830744.4954   -2514197.21145  -1798643.54961
 91  4  9 21 51 29.9990000  0  6G18G 2G11G19G16G 6
  21619627.3314    4657003.11947   3619287.93262
  21929817.4564  -10420454.48146  -7991184.69662
  22610388.3944   -4846015.99546  -3687497.21862
  20767287.0654   -1907598.93646  -1462921.30963
  23873837.2844   -1810070.70245  -1351960.61761
  23822900.800    -2555417.331 5  -1830762.95221
 91  4  9 21 51 44.9990000  0  6G18G 2G11G19G16G 6
  21625610.8944    4688446.76547   3643789.38462
  21922285.5424  -10460037.16646  -8022028.25262
  22609223.0264   -4852141.92546  -3692270.64061
  20766478.2614   -1911853.27646  -1466236.37763
  23871273.4804   -1823528.63345  -1362447.32261
  23815056.2924   -2596629.48145  -1862876.17461
 91  4  9 21 51 59.9990000  0  6G18G 2G11G19G16G 6
  21631611.4644    4719974.82547   3668356.60962
  21914766.2374  -10499552.47846  -8052819.31062
  22608082.4954   -4858119.99246  -3696928.83961
  20765679.6984   -1916061.60946  -1469515.59963
  23868736.9724   -1836861.64045  -1372836.67461
  23807215.1984   -2637845.86645  -1894992.69661
 91  4  9 21 52 14.9990000  0  6G18G 2G11G19G16G 6
  21637628.2224    4751592.42347   3692993.60562
  21907260.0974  -10538995.12546  -8083553.74262
  22606975.5424   -4863945.12146  -3701467.86461
  20764887.8314   -1920218.76246  -1472754.93663
  23866226.1054   -1850064.72745  -1383124.80361
  23799371.3624   -2679061.29445  -1927108.49461
 91  4  9 21 52 29.9990000  0  6G18G 2G11G19G16G 6
  21643659.8154    4783294.50047   3717696.42762
  21899766.2304  -10578369.50146  -8114234.98462
  22605893.3154   -4869621.67746  -3705891.12661
  20764105.4174   -1924329.00846  -1475957.72763
  23863736.933    -1863142.331 5  -1393315.15921
  23791529.6124   -2720280.24545  -1959226.98961
 91  4  9 21 52 44.9990000  0  6G18G 2G11G19G16G 6
  21649707.5894    4815079.47647   3742463.84462
  21892286.9174  -10617677.24246  -8144864.29762
  22604842.151    -4875151.246 6  -3710199.85721
  20763332.3784   -1928394.03346  -1479125.27662
  23861274.300    -1876096.229 5  -1403409.13321
  23783686.3624   -2761504.29045  -1991349.47061
 91  4  9 21 52 59.9990000  0  6G18G 2G11G19G16G 6
  21655773.0894    4846948.10447   3767296.45562
  21884819.6364  -10656916.95646  -8175440.60262
  22603818.245    -4880532.661 6  -3714393.14321
  20762568.7064   -1932412.66946  -1482256.67462
  23858827.565    -1888925.309 5  -1413405.83321
  23775837.5974   -2802732.41345  -2023475.11961
 91  4  9 21 53 14.9990000  0  6G18G 2G11G19G16G 6
  21661853.3234    4878902.84947   3792196.15862
  21877365.5424  -10696086.38346  -8205962.14362
  22602823.433    -4885763.472 6  -3718469.07721
  20761810.4644   -1936382.34646  -1485349.93263
  23856411.300    -1901627.134 5  -1423303.38221
  23767993.433    -2843962.118 5  -2055602.00221
 91  4  9 21 53 29.9990000  0  6G18G 2G11G19G16G 6
  21667950.7374    4910942.10647   3817161.72062
  21869924.5654  -10735186.87046  -8236429.96262
  22601855.839    -4890845.105 6  -3722428.77521
  20761065.4334   -1940304.21146  -1488405.92962
  23854017.1204   -1914203.39545  -1433103.07361
  23760146.9484   -2885194.95845  -2087731.32061
 91  4  9 21 53 44.9990000  0  6G18G 2G11G19G16G 6
  21674064.6204    4943069.47747   3842195.94162
  21862499.3004  -10774214.35246  -8266840.89862
  22600917.292    -4895773.578 6  -3726269.11821
  20760330.1834   -1944174.31246  -1491421.59462
  23851651.7454   -1926649.92645  -1442801.69661
  23752299.4404   -2926426.86545  -2119859.92361
 91  4  9 21 53 59.9990000  0  6G18G 2G11G19G16G 6
  21680194.4094    4975282.63247   3867297.00162
  21855086.1514  -10813170.88046  -8297196.54362
  22600009.784    -4900551.019 6  -3729991.78521
  20759600.1284   -1947994.73746  -1494398.55462
  23849306.8314   -1938969.01845  -1452401.00561
  23744454.6834   -2967660.02645  -2151989.51761
 91  4  9 21 54 14.9990000  0  6G18G 2G11G19G16G 6
  21686340.2064    5007581.51347   3892464.86562
  21847686.5814  -10852056.21646  -8327496.71362
  22599128.128    -4905177.198 6  -3733596.58421
  20758885.3314   -1951765.03546  -1497336.44963
  23846987.1594   -1951160.75945  -1461901.08561
  23736605.0654   -3008894.18145  -2184119.84461
 91  4  9 21 54 29.9990000  0  6G18G 2G11G19G16G 6
  21692501.5894    5039954.20147   3917690.23762
  21840296.9564  -10890882.10446  -8357750.56162
  22598274.276    -4909663.728 6  -3737092.57021
  20758175.6594   -1955496.83046  -1500244.34563
  23844690.3704   -1963236.54545  -1471310.81261
  23728757.495    -3050141.073 5  -2216260.10821
 91  4  9 21 54 44.9990000  0  6G18G 2G11G19G16G 6
  21698678.3784    5072417.57147   3942986.26862
  21832923.9484  -10929631.37146  -8387944.70662
  22597449.9254   -4913993.47146  -3740466.38861
  20757476.1754   -1959172.93146  -1503108.84162
  23842418.394    -1975179.280 5  -1480616.84721
  23720908.636    -3091383.587 5  -2248396.96321
 91  4  9 21 54 59.9990000  0  6G18G 2G11G19G16G 6
  21704871.831     5104964.145 7   3968347.13722
  21825563.6754  -10968311.40646  -8418084.90562
  22596658.6124   -4918173.94846  -3743723.89361
  20756782.4954   -1962800.55446  -1505935.56463
  23840165.620    -1986996.338 5  -1489824.96621
  23713061.222    -3132629.188 5  -2280536.22621
 91  4  9 21 55 14.9990000  0  6G18G 2G11G19G16G 6
  21711082.7454    5137596.72947   3993775.02562
  21818215.3314  -11006918.82846  -8448168.52062
  22595889.3624   -4922201.93746  -3746862.58061
  20756103.9404   -1966376.56746  -1508722.06762
  23837944.4094   -1998684.61745  -1498932.72561
  23705212.2454   -3173874.61445  -2312675.35461
 91  4  9 21 55 29.9990000  0  6G18G 2G11G19G16G 6
  21717308.4804    5170314.07647   4019268.96562
  21810882.0114  -11045454.92046  -8478196.55562
  22595150.1834   -4926078.70346  -3749883.43761
  20755436.0424   -1969901.95046  -1511469.12162
  23835743.409    -2010245.788 5  -1507941.45121
  23697362.448    -3215121.198 5  -2344815.38821
 91  4  9 21 55 44.9990000  0  6G18G 2G11G19G16G 6
  21723552.073     5203117.247 7   4044829.77522
  21803564.0584  -11083918.35146  -8508167.97162
  22594443.4724   -4929802.75946  -3752785.29161
  20754773.3944   -1973375.33846  -1514175.65563
  23833568.5114   -2021678.36745  -1516849.97661
  23689513.315    -3256367.509 5  -2376955.20821
 91  4  9 21 55 59.9990000  0  6G18G 2G11G19G16G 6
  21729809.5654    5236006.51547   4070457.67362
  21796258.636   -11122308.556 6  -8538082.33322
  22593764.2064   -4933373.69546  -3755567.83661
  20754120.2924   -1976796.24646  -1516841.30662
  23831417.7534   -2032981.95145  -1525657.97161
  23681662.3314   -3297613.24245  -2409094.58561
 91  4  9 21 56 14.9990000  0  6G18G 2G11G19G16G 6
  21736083.355     5268979.879 7   4096151.10422
  21788967.003   -11160627.267 6  -8567940.98522
  22593114.3394   -4936793.27546
  20753480.0734   -1980166.21146
  23829291.019    -2044158.294 5  -1534366.83621
  23673811.6364   -3338859.99745  -2441234.75461
 91  4  9 21 56 29.9990000  0  6G18G 2G11G19G16G 6
  21742375.120     5302044.236 7   4121915.43622
  21781689.9724  -11198867.18846  -8597738.23762
  22592492.3624   -4940054.19146  -3760773.40961
  20752853.6984   -1983477.67946  -1522047.63062
  23827187.448    -2055200.061 5  -1542970.82421
  23665965.722    -3380100.435 5  -2473370.01821
 91  4  9 21 56 44.9990000  0  6G18G 2G11G19G16G 6
  21748684.0034    5335195.34447   4147747.37262
  21774426.0654  -11237032.49346  -8627477.34362
  22591900.237    -4943160.749 6  -3763194.08621
  20752230.8704   -1986734.81146  -1524585.66162
  23825112.089    -2066111.773 5  -1551473.48021
  23658118.815    -3421338.979 5  -2505503.79921
 91  4  9 21 56 59.9990000  0  6G18G 2G11G19G16G 6
  21755009.464     5368434.113 7   4173647.60922
  21767178.4014  -11275121.99346  -8657157.38262
  22591338.6984   -4946111.78146  -3765493.58261
  20751621.6124   -1989936.52446  -1527080.50962
  23823061.1124   -2076892.09545  -1559873.73161
  23650271.870    -3462574.369 5  -2537635.11221
 91  4  9 21 57 14.9990000  0  6G18G 2G11G19G16G 6
  21761350.144     5401758.906 7   4199614.87522
  21759945.3474  -11313136.80346  -8686779.22062
  22590807.9724   -4948908.48646  -3767672.83061
  20751022.7454   -1993084.04046  -1529533.12362
  23821036.042    -2087542.459 5  -1568172.73621
  23642425.1514   -3503807.91345  -2569764.98961
 91  4  9 21 57 29.9990000  0  6G18G 2G11G19G16G 6
  21767707.526     5435163.414 7   4225644.25822
  21752723.386   -11351083.140 6  -8716347.70922
  22590303.261    -4951557.092 6  -3769736.66421
  20750432.7144   -1996183.40546  -1531948.22062
  23819032.5424   -2098069.41145  -1576375.55861
  23634578.972    -3545045.803 5  -2601898.25621
 91  4  9 21 57 44.9990000  0  6G18G 2G11G19G16G 6
  21774081.605     5468654.042 7   4251740.74922
  21745516.659   -11388954.260 7  -8745857.59122
  22589827.456    -4954050.873 6  -3771679.85921
  20749855.6754   -1999227.62546  -1534320.34962
  23817053.4254   -2108466.24345  -1584477.00361
  23626731.784    -3586281.250 5  -2634029.59821
 91  4  9 21 57 59.9990000  0  6G18G 2G11G19G16G 6
  21780470.589     5502226.804 7   4277901.23522
  21738322.3944  -11426753.93147  -8775311.79362
  22589383.136    -4956393.751 6  -3773505.46621
  20749284.6984   -2002220.59746  -1536652.53762
  23815098.198    -2118736.519 5  -1592479.84421
  23618887.222    -3627518.121 5  -2666162.09521
 91  4  9 21 58 14.9990000  0  6G18G 2G11G19G16G 6
  21786874.105     5535879.934 7   4304124.34922
  21731144.058   -11464483.708 7  -8804711.53422
  22588964.901    -4958587.231 6  -3775214.65021
  20748724.5034   -2005163.75746  -1538945.91562
  23813168.261    -2128882.107 5  -1600385.51021
  23611035.472    -3668758.083 5  -2698296.97521
 91  4  9 21 58 29.9990000  0  6G18G 2G11G19G16G 6
  21793293.706     5569614.012 7   4330410.53722
  21723976.8704  -11502142.87847  -8834056.25462
  22588576.417    -4960630.720 6  -3776806.96821
  20748171.0264   -2008056.36346  -1541199.90262
  23811263.0504   -2138902.43345  -1608193.57761
  23603185.784    -3710000.418 5  -2730433.69121
 91  4  9 21 58 44.9990000  0  6G18G 2G11G19G16G 6
  21799728.308     5603428.153 7   4356759.11322
  21716823.5584  -11539731.91847  -8863346.33062
  22588214.370    -4962524.715 6  -3778282.79621
  20747632.6674   -2010898.83346  -1543414.82362
  23809377.159    -2148798.069 5  -1615904.48721
  23595340.214    -3751245.751 5  -2762572.76921
 91  4  9 21 58 59.9990000  0  6G18G 2G11G19G16G 6
  21806176.190     5637321.876 7   4383169.69922
  21709684.3474  -11577251.12647  -8892581.98762
  22587885.183    -4964269.492 6  -3779642.34321
  20747099.5894   -2013691.24846  -1545590.73863
  23807518.1124   -2158569.20645  -1623518.36661
  23587492.0114   -3792494.22845  -2794714.29561
 91  4  9 21 59 14.9990000  0  6G18G 2G11G19G16G 6
  21812642.909     5671298.251 7   4409644.68822
  21702558.753   -11614697.073 7  -8921760.56322
  22587583.019    -4965861.603 6  -3780882.93421
  20746577.9954   -2016430.13346  -1547724.94063
  23805684.4804   -2168212.67445  -1631032.78761
  23579641.1904   -3833742.41145  -2826855.57061
 91  4  9 21 59 29.9990000  0  6G18G 2G11G19G16G 6
  21819125.995     5705360.630 7   4436186.69722
  21695447.4804  -11652066.28947  -8950879.34562
  22587307.456    -4967297.674 6  -3782001.92921
  20746068.8154   -2019111.82746  -1549814.57862
  23803874.5114   -2177725.20045  -1638445.16761
  23571790.8704   -3874986.92245  -2858994.00561
 91  4  9 21 59 44.9990000  0  6G18G 2G11G19G16G 6
  21825622.417     5739507.117 7   4462794.23922
  21688350.644   -11689360.135 7  -8979939.40422
  22587062.714    -4968579.206 6  -3783000.50521
  20745570.0194   -2021737.75046  -1551860.75863
  23802087.9644   -2187108.15845  -1645756.57061
  23563943.683    -3916229.209 5  -2891130.69521
 91  4  9 21 59 59.9990000  0  6G18G 2G11G19G16G 6
  21832135.120     5773729.120 7   4489460.62622
  21681267.362   -11726586.954 7  -9008947.23622
  22586846.784    -4969714.641 6  -3783885.24121
  20745079.5344   -2024316.08946  -1553869.86163
  23800325.378    -2196370.163 5  -1652973.74521
  23556090.745    -3957477.683 5  -2923272.21221
 91  4  9 22  0 14.9990000  0  6G18G 2G11G19G16G 6
  21838661.714     5808028.999 7   4516187.69622
  21674197.120   -11763744.062 7  -9037900.73922
  22586658.659    -4970701.292 6  -3784654.04021
  20744599.4254   -2026844.05146  -1555839.70963
  23798586.894    -2205508.211 5  -1660094.33421
  23548244.714    -3998729.668 5  -2955416.47521
 91  4  9 22  0 29.9990000  0  6G18G 2G11G19G16G 6
  21845203.753     5842406.074 7   4542974.91822
  21667137.815   -11800832.312 7  -9066800.59222
  22586498.448    -4971539.907 6  -3785307.48021
  20744125.7694   -2029322.38146  -1557770.88462
  23796872.105    -2214523.332 5  -1667119.11721
  23540396.2764   -4039985.90845  -2987564.05561
 91  4  9 22  0 44.9990000  0  6G18G 2G11G19G16G 6
  21851762.472     5876861.694 7   4569823.34422
  21660093.769   -11837849.983 7  -9095645.45022
  22586367.589    -4972229.037 6  -3785844.45621
  20743664.2064   -2031749.39646  -1559662.07263
  23795177.112    -2223414.186 5  -1674047.07321
  23532541.3154   -4081244.78945  -3019713.68061
 91  4  9 22  0 59.9990000  0  6G18G 2G11G19G16G 6
  21858331.097     5911389.207 6   4596727.78722
  21653062.448   -11874803.438 7  -9124440.27422
  22586269.105    -4972774.924 6  -3786269.80321
  20743209.034    -2034131.343 6  -1561518.14422
  23793509.683    -2232187.135 5  -1680883.16321
  23524688.894    -4122512.599 5  -3051870.27821
 91  4  9 22  1 14.9990000  0  6G18G 2G11G19G16G 6
  21864917.253     5945989.885 7   4623689.24022
  21646043.714   -11911691.024 7  -9153183.76322
  22586191.573    -4973176.052 6  -3786582.35321
  20742767.894    -2036466.552 6  -1563337.79722
  23791864.315    -2240840.773 5  -1687626.27721
  23516832.440    -4163787.810 5  -3084032.63821
 91  4  9 22  1 29.9990000  0  6G18G 2G11G19G16G 6
  21871514.823     5980670.346 6   4650712.86022
  21639035.315   -11948505.782 7  -9181870.51022
  22586138.5734   -4973425.74746  -3786776.90461
  20742334.050    -2038747.925 6  -1565115.50222
  23790240.620    -2249368.205 5  -1694271.04521
  23508979.7144   -4205063.58345  -3116195.44961
 91  4  9 22  1 44.9990000  0  6G18G 2G11G19G16G 6
  21878129.097     6015422.391 7   4677792.26222
  21632043.089   -11985255.999 7  -9210506.96822
  22586124.237    -4973532.202 6
  20741907.190    -2040983.642 6  -1566857.63122
  23788640.6444   -2257777.62045  -1700823.85761
  23501121.542    -4246348.136 5  -3148365.09121
 91  4  9 22  1 59.9990000  0  6G18G 2G11G19G16G 6
  21884756.964     6050247.965 7   4704928.96222
  21625062.636   -12021939.175 7  -9239091.19122
  22586128.769    -4973493.094 6
  20741490.433    -2043171.346 6  -1568562.34422
  23787061.401    -2266066.770 5  -1707282.95221
  23493267.1754   -4287639.06645  -3180539.70561
 91  4  9 22  2 14.9990000  0  6G18G 2G11G19G16G 6
  21891399.167     6085156.110 6   4732130.00422
  21618096.237   -12058545.947 7  -9267615.87422
  22586165.8474   -4973298.98446
  20741086.0504   -2045301.49546  -1570222.20762
  23785508.8314   -2274226.46645  -1713641.18761
  23485409.2454   -4328926.93545  -3212711.93761
 91  4  9 22  2 29.9990000  0  6G18G 2G11G19G16G 6
  21898055.6754    6120137.57747   4759388.17362
  21611143.7614  -12095085.52147  -9296088.20062
  22586230.480    -4972959.227 6
  20740689.6984   -2047383.11846  -1571844.26262
  23783980.1204   -2282266.24145  -1719905.97361
  23477550.2144   -4370220.99145  -3244888.98961
 91  4  9 22  2 44.9990000  0  6G18G 2G11G19G16G 6
  21904727.440     6155192.783 7   4786703.80422
  21604203.753   -12131557.165 7  -9324507.59122
  22586322.894    -4972473.042 6  -3786034.46821
  20740302.8394   -2049415.63846  -1573428.05462
  23782473.386    -2290185.165 5  -1726076.58921
  23469689.4094   -4411520.61545  -3277070.37361
 91  4  9 22  2 59.9990000  0  6G18G 2G11G19G16G 6
  21911411.4644    6190321.45047   4814076.67262
  21597275.886   -12167961.006 7  -9352874.15222
  22586442.753    -4971840.664 6  -3785541.69421
  20739922.7844   -2051398.86046  -1574973.42562
  23780991.190    -2297983.755 5  -1732153.44521
  23461831.190    -4452825.839 5  -3309256.12721
 91  4  9 22  3 14.9990000  0  6G18G 2G11G19G16G 6
  21918109.3314    6225524.88046   4841507.80362
  21590360.6284  -12204295.26147  -9381186.48562
  22586592.745    -4971060.477 6  -3784933.74621
  20739559.2614   -2053330.88846  -1576478.91162
  23779527.105    -2305660.395 5  -1738135.26521
  23453971.706    -4494134.872 5  -3341444.84421
 91  4  9 22  3 29.9990000  0  6G18G 2G11G19G16G 6
  21924823.683     6260799.283 7   4868994.23422
  21583458.909   -12240563.524 7  -9409447.40722
  22586765.706    -4970136.151 6  -3784213.48221
  20739197.9014   -2055215.34746  -1577947.32462
  23778091.7304   -2313218.49545  -1744024.73261
  23446107.730    -4535451.450 5  -3373639.44721
 91  4  9 22  3 44.9990000  0  6G18G 2G11G19G16G 6
  21931550.4404    6296150.60646   4896540.60462
  21576572.019   -12276759.353 7  -9437651.87022
  22586972.464    -4969061.444 6  -3783376.03221
  20738851.3784   -2057045.75146  -1579373.61363
  23776674.503    -2320652.066 5  -1749817.14821
  23438244.8554   -4576769.30745  -3405835.06061
 91  4  9 22  3 59.9990000  0  6G18G 2G11G19G16G 6
  21938292.3084    6331577.33546   4924145.73162
  21569696.683   -12312884.074 7  -9465800.92822
  22587206.245    -4967837.724 6  -3782422.47621
  20738509.7454   -2058823.38746  -1580758.79263
  23775284.659    -2327962.538 5  -1755513.64521
  23430382.972    -4618089.739 5  -3438032.66921
 91  4  9 22  4 14.9990000  0  6G18G 2G11G19G16G 6
  21945045.761     6367072.377 6   4951804.09022
  21562835.3784  -12348944.72047  -9493900.06262
  22587465.058    -4966472.043 6  -3781358.29121
  20738182.8394   -2060555.14246  -1582108.20463
  23773913.8864   -2335156.74345  -1761119.55461
  23422515.9644   -4659419.67745  -3470237.69761
 91  4  9 22  4 29.9990000  0  6G18G 2G11G19G16G 6
  21951815.8004    6402642.84146   4979521.21662
  21555987.1834  -12384933.81847  -9521943.44362
  22587752.433    -4964957.015 6  -3780177.73521
  20737864.2764   -2062233.49046  -1583416.01663
  23772570.620    -2342227.247 5  -1766629.06021
  23414653.933    -4700751.673 5  -3502444.30021
 91  4  9 22  4 44.9990000  0  6G18G 2G11G19G16G 6
  21958598.370     6438283.031 6   5007292.67622
  21549151.394   -12420857.012 7  -9549935.47222
  22588068.636    -4963298.202 6  -3778885.14021
  20737556.0504   -2063863.87446  -1584686.44763
  23771248.839    -2349180.157 5  -1772046.93821
  23406784.3704   -4742091.30245  -3534656.88561
 91  4  9 22  4 59.9990000  0  6G18G 2G11G19G16G 6
  21965392.0654    6473995.86746   5035120.74562
  21542327.495   -12456710.851 7  -9577873.45522
  22588412.253    -4961492.152 6  -3777477.81221
  20737252.2534   -2065442.65146  -1585916.67163
  23769946.1444   -2356012.25245  -1777370.67761
  23398917.948    -4783435.008 5  -3566872.62321
 91  4  9 22  5 14.9990000  0  6G18G 2G11G19G16G 6
  21972201.433     6509777.390 6   5063002.33322
  21535518.128   -12492499.318 7  -9605760.50122
  22588783.886    -4959543.053 6  -3775959.01521
  20736961.7064   -2066973.85446  -1587109.82163
  23768671.065    -2362727.590 5  -1782603.44721
  23391048.948    -4824786.908 5  -3599094.77021
 91  4  9 22  5 29.9990000  0  6G18G 2G11G19G16G 6
  21979024.1984    6545622.82446   5090933.71861
  21528718.198   -12528226.890 7  -9633600.09022
  22589181.519    -4957455.455 6  -3774332.29921
  20736679.7304   -2068461.79246  -1588269.25663
  23767410.597    -2369330.751 5  -1787748.78821
  23383179.3154   -4866151.46845  -3631326.75661
 91  4  9 22  5 44.9990000  0  6G18G 2G11G19G16G 6
  21985856.8784    6581536.10046   5118917.98062
  21521932.222   -12563889.143 7  -9661388.78422
  22589603.909    -4955225.114 6  -3772594.35421
  20736405.5264   -2069902.10046  -1589391.58263
  23766178.0344   -2375817.15345  -1792803.17161
  23375304.933    -4907524.317 5  -3663565.22421
 91  4  9 22  5 59.9990000  0  6G18G 2G11G19G16G 6
  21992704.7614    6617513.63446   5146952.30161
  21515158.128   -12599489.545 7  -9689129.28122
  22590057.034    -4952855.359 6  -3770747.77221
  20736137.2844   -2071297.78546  -1590479.13163
  23764964.0114   -2382190.47845  -1797769.41261
  23367429.4334   -4948908.71545  -3695812.68161
 91  4  9 22  6 14.9990000  0  6G18G 2G11G19G16G 6
  21999563.9954    6653561.11346   5175041.12661
  21508395.440   -12635022.186 7  -9716816.98122
  22590534.058    -4950340.585 6  -3768788.19721
  20735883.8864   -2072643.14246  -1591527.46763
  23763776.995    -2388444.952 5  -1802643.06221
  23359551.683    -4990298.967 5  -3728064.71321
 91  4  9 22  6 29.9990000  0  6G18G 2G11G19G16G 6
  22006438.5894    6689681.20346   5203186.53262
  21501647.370   -12670484.076 7  -9744449.54622
  22591042.769    -4947677.817 6  -3766713.30122
  20735634.8084   -2073935.12646  -1592534.21463
  23762609.8084   -2394577.83145  -1807421.95261
  23351677.7064   -5031692.12145  -3760318.98861
 91  4  9 22  6 44.9990000  0  6G18G 2G11G19G16G 6
  22013323.3314    6725865.92246   5231382.30061
  21494911.4724  -12705882.92047  -9772032.98862
  22591574.9874   -4944874.81946  -3764529.13461
  20735400.8004   -2075181.13246  -1593505.13063
  23761464.2694   -2400596.76345  -1812112.06661
  23343796.5814   -5073095.76745  -3792581.45161
 91  4  9 22  6 59.9990000  0  6G18G 2G11G19G16G 6
  22020222.9174    6762118.33246   5259630.81662
  21488187.331   -12741215.510 7  -9799564.80322
  22592134.675    -4941928.599 6  -3762233.37021
  20735173.8624   -2076378.08246  -1594437.82063
  23760340.6444   -2406499.02845  -1816711.26961
  23335918.1364   -5114506.78845  -3824849.66561
 91  4  9 22  7 14.9990000  0  6G18G 2G11G19G16G 6
  22027133.6514    6798437.77546   5287931.55962
  21481477.323   -12776482.284 7  -9827045.33222
  22592724.0894   -4938839.69246  -3759826.41861
  20734953.2374   -2077526.41546  -1595332.62663
  23759239.440    -2412285.085 5  -1821219.91021
  23328034.128    -5155925.771 5  -3857124.08121
 91  4  9 22  7 29.9990000  0  6G18G 2G11G19G16G 6
  22034056.8864    6834821.55346   5316282.43561
  21474776.753   -12811685.313 7  -9854476.19122
  22593338.026    -4935610.221 6  -3757309.93521
  20734741.4404   -2078628.00746  -1596191.01563
  23758157.808    -2417957.120 5  -1825639.69621
  23320151.706    -5197354.687 5  -3889406.21721
 91  4  9 22  7 44.9990000  0  6G18G 2G11G19G16G 6
  22040992.6514    6871266.10746   5344680.67161
  21468090.198   -12846827.929 7  -9881859.97222
  22593978.2924   -4932243.56746  -3754686.56061
  20734542.0344   -2079686.07746  -1597015.48963
  23757101.8864   -2423518.51245  -1829973.28661
  23312262.8314   -5238796.94445  -3921698.76661
 91  4  9 22  7 59.9990000  0  6G18G 2G11G19G16G 6
  22047939.8704    6907772.85046   5373127.35761
  21461414.8704  -12881908.60347  -9909195.48962
  22594645.355    -4928738.302 6  -3751955.17621
  20734349.9804   -2080698.95446  -1597804.74763
  23756064.769    -2428967.786 5  -1834219.50621
  23304375.565    -5280250.882 5  -3954000.41821
 91  4  9 22  8 14.9990000  0  6G18G 2G11G19G16G 6
  22054900.4334    6944349.51746   5401628.53361
  21454751.995   -12916919.622 7  -9936476.73222
  22595340.534    -4925086.647 6  -3749109.72121
  20734168.4954   -2081658.76546  -1598552.65563
  23755053.230    -2434297.562 5  -1838372.62421
  23296486.4014   -5321708.62845  -3986305.04261
 91  4  9 22  8 29.9990000  0  6G18G 2G11G19G16G 6
  22061873.2694    6980987.01546   5430177.11661
  21448101.120   -12951869.619 7  -9963710.41922
  22596060.722    -4921297.553 6  -3746157.16621
  20733990.1674   -2082574.27946  -1599266.04763
  23754057.831    -2439516.730 5  -1842439.52221
  23288595.6204   -5363179.05245  -4018619.54061
 91  4  9 22  8 44.9990000  0  6G18G 2G11G19G16G 6
  22068855.2924    7017685.21746   5458772.99061
  21441461.589   -12986758.382 7  -9990896.39222
  22596809.269    -4917370.978 6  -3743097.49421
  20733827.3004   -2083445.17246  -1599944.66663
  23753080.628    -2444625.157 4  -1846420.16921
  23280702.964    -5404661.932 5  -4050943.74921
 91  4  9 22  8 59.9990000  0  6G18G 2G11G19G16G 6
  22075850.2764    7054439.95346   5487412.92261
  21434834.276   -13021589.747 7 -10018037.63922
  22597581.6364   -4913310.86746  -3739933.76461
  20733669.8624   -2084275.11946  -1600591.38063
  23752132.815    -2449626.786 5  -1850317.57421
  23272804.112    -5446161.076 5  -4083280.62321
 91  4  9 22  9 14.9990000  0  6G18G 2G11G19G16G 6
  22082855.933     7091262.693 6   5516105.83621
  21428218.355   -13056352.029 7 -10045125.05822
  22598379.9724   -4909105.64446  -3736656.96361
  20733521.5894   -2085052.35346  -1601197.02363
  23751205.6984   -2454510.33045  -1854122.96661
  23264906.855    -5487664.902 5  -4115621.16521
 91  4  9 22  9 29.9990000  0  6G18G 2G11G19G16G 6
  22089876.573     7128148.157 6   5544847.62421
  21421616.011   -13091050.173 7 -10072162.49022
  22599207.2224   -4904760.09946  -3733270.82261
  20733381.0894   -2085781.50046  -1601765.19663
  23750297.1674   -2459280.30845  -1857839.86061
  23257005.597    -5529178.035 5  -4147968.95021
 91  4  9 22  9 44.9990000  0  6G18G 2G11G19G16G 6
  22096907.4644    7165094.33446   5573636.73061
  21415024.972   -13125686.025 7 -10099151.39622
  22600060.7454   -4900276.23446  -3729776.88861
  20733252.6984   -2086464.47946  -1602297.39363
  23749411.878    -2463939.258 5  -1861470.26521
  23249106.394    -5570702.550 5  -4180325.60821
 91  4  9 22  9 59.9990000  0  6G18G 2G11G19G16G 6
  22103950.7374    7202109.67746   5602479.72961
  21408446.073   -13160251.023 7 -10126085.08323
  22600941.6904   -4895645.59846  -3726168.60061
  20733135.5654   -2087092.53746  -1602786.79663
  23748546.026    -2468478.569 5  -1865007.43321
  23241202.0584   -5612229.72945  -4212684.33961
 91  4  9 22 10 14.9990000  0  6G18G 2G11G19G16G 6
  22111006.628     7239190.056 6   5631373.39821
  21401882.417   -13194748.893 7 -10152966.46723
  22601851.2374   -4890872.10446  -3722448.98861
  20733023.5114   -2087669.33046  -1603236.24963
  23747705.698    -2472902.071 5  -1868454.35521
  23233297.823    -5653763.465 5  -4245048.18121
 91  4  9 22 10 29.9990000  0  6G18G 2G11G19G16G 6
  22118075.542     7276336.944 6   5660318.89321
  21395331.034   -13229177.911 7 -10179794.19822
  22602785.8784   -4885954.05546  -3718616.74161
  20732925.0424   -2088193.08046  -1603644.37263
  23746885.3004   -2477208.08145  -1871809.71461
  23225393.331    -5695301.804 5  -4277415.61621
 91  4  9 22 10 44.9990000  0  6G18G 2G11G19G16G 6
  22125156.261     7313546.205 6   5689312.99421
  21388791.323   -13263542.082 7 -10206571.39823
  22603750.0654   -4880895.52246  -3714675.02361
  20732834.2614   -2088667.63346  -1604014.15863
  23746086.808    -2481400.748 5  -1875076.78321
  23217486.315    -5736848.913 5  -4309789.86521
 91  4  9 22 10 59.9990000  0  6G18G 2G11G19G16G 6
  22132250.206     7350820.223 6   5718357.54221
  21382264.7454  -13297838.65847 -10233295.93062
  22604738.9334   -4875693.81146  -3710621.73561
  20732751.7144   -2089090.25746  -1604343.48263
  23745311.9254   -2485477.46345  -1878253.49061
  23209580.956    -5778402.012 5  -4342168.79421
 91  4  9 22 11 14.9990000  0  6G18G 2G11G19G16G 6
  22139354.4174    7388156.32446   5747450.48061
  21375751.198   -13332070.180 7 -10259969.77023
  22605754.7304   -4870351.61246  -3706458.98061
  20732683.3314   -2089463.23146  -1604634.11763
  23744555.253    -2489441.090 5  -1881342.08821
  23201670.964    -5819963.539 5  -4374554.28621
 91  4  9 22 11 29.9990000  0  6G18G 2G11G19G16G 6
  22146472.659     7425556.878 6   5776593.63021
  21369250.792   -13366233.765 7 -10286590.67123
  22606799.6594   -4864866.19346  -3702184.62461
  20732621.0264   -2089783.52346  -1604883.70063
  23743822.8234   -2493288.93544  -1884340.44261
  23193760.9334   -5861530.60345  -4406944.08861
 91  4  9 22 11 44.9990000  0  6G18G 2G11G19G16G 6
  22153600.597     7463020.427 6   5805785.87421
  21362761.480   -13400330.764 7 -10313159.68723
  22607872.3784   -4859239.06446  -3697799.84261
  20732569.2924   -2090052.58046  -1605093.36163
  23743117.5654   -2497022.29045  -1887249.59761
  23185849.831    -5903104.629 5  -4439339.32721
 91  4  9 22 11 59.9990000  0  6G18G 2G11G19G16G 6
  22160742.331     7500549.771 6   5835029.38221
  21356286.1904  -13434357.89947 -10339674.26763
  22608969.0584   -4853467.30346  -3693302.35661
  20732525.9954   -2090267.13546  -1605260.55663
  23742424.089    -2500638.255 5  -1890067.27721
  23177937.894    -5944682.384 5  -4471737.46121
 91  4  9 22 12 14.9990000  0  6G18G 2G11G19G16G 6
  22167897.0264    7538142.62046   5864322.38161
  21349822.823   -13468317.343 7 -10366136.09723
  22610094.5424   -4847552.95746  -3688693.77161
  20732498.7534   -2090429.03446
  23741760.5034   -2504139.05445  -1892795.20161
  23170024.4724   -5986265.87845  -4504140.06861
 91  4  9 22 12 29.9990000  0  6G18G 2G11G19G16G 6
  22175064.440     7575803.892 6   5893668.68621
  21343374.7374  -13502204.16247 -10392541.34463
  22611247.8234   -4841491.18246  -3683970.30661
  20732478.5504   -2090533.20146
  23741116.511    -2507519.660 5  -1895429.50821
  23162112.9804   -6027850.28345  -4536543.38461
 91  4  9 22 12 44.9990000  0  6G18G 2G11G19G16G 6
  22182243.417     7613529.632 6   5923065.23121
  21336940.2224  -13536021.81447 -10418892.69362
  22612429.2374   -4835285.58346  -3679134.77661
  20732468.2614   -2090583.14346
  23740496.9014   -2510783.92245  -1897973.12361
  23154197.0654   -6069438.89945  -4568949.97961
 91  4  9 22 12 59.9990000  0  6G18G 2G11G19G16G 6
  22189434.612     7651318.908 6   5952511.28321
  21330517.5264  -13569771.17747 -10445190.82862
  22613637.3624   -4828937.03546  -3674187.85261
  20732468.0504   -2090579.48546
  23739895.1204   -2513932.93845  -1900426.95461
  23146283.6834   -6111032.66045  -4601360.57361
 91  4  9 22 13 14.9990000  0  6G18G 2G11G19G16G 6
  22196636.339     7689171.070 6   5982006.33621
  21324108.5034  -13603452.34347 -10471435.82562
  22614872.8314   -4822445.76946  -3669129.71861
  20732482.4564   -2090522.22146
  23739320.980    -2516966.859 5  -1902791.10221
  23138363.2614   -6152631.53145  -4633775.16561
 91  4  9 22 13 29.9990000  0  6G18G 2G11G19G16G 6
  22203852.636     7727089.622 6   6011553.11821
  21317711.7304  -13637061.53147 -10497624.73662
  22616133.7614   -4815808.16246  -3663957.55761
  20732503.7614   -2090407.73646
  23738764.2614   -2519882.05445  -1905062.74261
  23130449.1674   -6194231.80145  -4666190.83361
 91  4  9 22 13 44.9990000  0  6G18G 2G11G19G16G 6
  22211082.472     7765077.768 6   6041154.13521
  21311331.5264  -13670595.59647 -10523755.11163
  22617425.9254   -4809021.16746  -3658668.98761
  20732536.386    -2090232.551 6
  23738232.456    -2522675.511 5  -1907239.50821
  23122534.5814   -6235830.26145  -4698605.09261
 91  4  9 22 13 59.9990000  0  6G18G 2G11G19G16G 6
  22218323.269     7803127.214 6   6070802.91321
  21304962.4334  -13704062.35847 -10549833.04063
  22618745.222    -4802092.851 6  -3653270.29321
  20732579.9644   -2090004.33946
  23737722.620    -2525355.763 5  -1909328.07821
  23114616.9954   -6277434.74645  -4731024.05361
 91  4  9 22 14 14.9990000  0  6G18G 2G11G19G16G 6
  22225577.128     7841244.910 6   6100504.86821
  21298608.6984  -13737454.83147 -10575853.07863
  22620090.2844   -4795016.35846  -3647756.13461
  20732635.5034   -2089716.25446  -1604831.37263
  23737235.628    -2527915.584 5  -1911322.79721
  23106699.6594   -6319038.25445  -4763442.24161
 91  4  9 22 14 29.9990000  0  6G18G 2G11G19G16G 6
  22232841.7374    7879421.67646   6130252.85761
  21292266.8864  -13770781.83347 -10601822.10963
  22621465.542    -4787800.717 6  -3642133.55021
  20732695.6904   -2089377.03646  -1604567.05663
  23736771.401    -2530363.716 5  -1913230.48721
  23098781.042    -6360649.740 5  -4795866.65821
 91  4  9 22 14 44.9990000  0  6G18G 2G11G19G16G 6
  22240118.5974    7917667.05746   6160054.31661
  21285938.9644  -13804033.53347 -10627732.45763
  22622865.9564   -4780435.91146  -3636394.73561
  20732776.3154   -2088976.46746  -1604254.93063
  23736331.0814   -2532690.55745  -1915043.65961
  23090863.1514   -6402259.04745  -4828289.36061
 91  4  9 22 14 59.9990000  0  6G18G 2G11G19G16G 6
  22247408.714     7955969.690 6   6189900.37721
  21279622.6364  -13837220.79147 -10653592.59363
  22624295.1904   -4772933.12546  -3630548.40061
  20732858.5504   -2088525.18146  -1603903.28763
  23735903.9724   -2534907.02645  -1916770.84861
  23082941.6124   -6443877.04945  -4860718.84861
 91  4  9 22 15 14.9990000  0  6G18G 2G11G19G16G 6
  22254707.909     7994328.118 6   6219789.92321
  21273319.8314  -13870344.99647 -10679403.59962
  22625747.4014   -4765293.86646  -3624595.73061
  20732957.3084   -2088024.48846  -1603513.14163
  23735504.550    -2537014.794 5  -1918413.30821
  23075021.5424   -6485505.23545  -4893156.26861
 91  4  9 22 15 29.9990000  0  6G18G 2G11G19G16G 6
  22262017.1904    8032748.70646   6249727.89461
  21267029.5114  -13903399.74747 -10705160.48763
  22627228.8474   -4757511.74846  -3618531.73961
  20733060.8004   -2087468.03246  -1603079.54563
  23735127.1984   -2539007.77745  -1919966.34661
  23067098.8944   -6527137.02845  -4925596.50161
 91  4  9 22 15 44.9990000  0  6G18G 2G11G19G16G 6
  22269342.612     8071235.273 6   6279717.28221
  21260753.6514  -13936380.62347 -10730859.80962
  22628737.5034   -4749582.78746  -3612353.32561
  20733179.4334   -2086851.51146  -1602599.14663
  23734769.144    -2540882.016 5  -1921426.85121
  23059175.5264   -6568768.30445  -4958036.32661
 91  4  9 22 15 59.9990000  0  6G18G 2G11G19G16G 6
  22276678.378     8109781.937 6   6309753.49721
  21254490.3624  -13969293.18447 -10756505.90262
  22630273.4724   -4741512.58546  -3606064.85161
  20733306.3944   -2086180.07546  -1602075.95863
  23734434.198    -2542643.005 5  -1922799.10421
  23051254.0114   -6610404.36045  -4990479.86961
 91  4  9 22 16 14.9980000  0  6G18G 2G11G19G16G 6
  22284023.436     8148385.001 6   6339833.66721
  21248240.7954  -14002136.46547 -10782098.00662
  22631834.6864   -4733302.94146  -3599667.71661
  20733445.6394   -2085454.87346  -1601510.87063
  23734122.1544   -2544291.86245  -1924084.00261
  23043328.9124   -6652043.61145  -5022925.91861
 91  4  9 22 16 29.9980000  0  6G18G 2G11G19G16G 6
  22291381.6474    8187052.64146   6369964.15661
  21242003.5294  -14034911.24647 -10807636.73562
  22633424.8814   -4724949.22346  -3593158.33361
  20733593.3974   -2084672.26446  -1600901.05763
  23733827.7094   -2545825.23145  -1925278.87861
  23035404.678    -6693687.957 5  -5055375.91921
 91  4  9 22 16 44.9980000  0  6G18G 2G11G19G16G 6
  22298752.967     8225783.435 6   6400143.84121
  21235779.9124  -14067614.03047 -10833119.36862
  22635041.2174   -4716450.83646  -3586536.21161
  20733755.8894   -2083830.93546  -1600245.48363
  23733559.6314   -2547241.87245  -1926382.83461
  23027478.232    -6735333.287 5  -5087826.70121
 91  4  9 22 16 59.9980000  0  6G18G 2G11G19G16G 6
  22306134.076     8264566.232 6   6430364.05821
  21229568.4904  -14100255.71147 -10858554.38662
  22636685.0844   -4707818.89046  -3579810.01661
  20733923.7484   -2082941.57546  -1599552.48463
  23733311.5224   -2548552.92645  -1927404.49161
  23019553.8344   -6776990.61745  -5120286.82761
 91  4  9 22 17 14.9980000  0  6G18G 2G11G19G16G 6
  22313523.9364    8303404.90746   6460627.81361
  21223369.701   -14132832.252 7 -10883938.64722
  22638353.0764   -4699049.55046  -3572976.75861
  20734103.5294   -2082000.08946  -1598818.86863
  23733078.053    -2549754.791 5  -1928341.08121
  23011623.9674   -6818655.79245  -5152753.07161
 91  4  9 22 17 29.9980000  0  6G18G 2G11G19G16G 6
  22320924.7874    8342300.75646   6490936.11761
  21217183.5614  -14165342.09847 -10909270.94062
  22640048.4284   -4690141.24046  -3566035.21661
  20734289.6784   -2081004.73946  -1598043.28463
  23732875.725    -2550845.824 5  -1929191.30321
  23003694.600    -6860327.036 5  -5185224.03221
 91  4  9 22 17 44.9980000  0  6G18G 2G11G19G16G 6
  22328338.4594    8381251.55446   6521287.24161
  21211009.8574  -14197787.19447 -10934552.77762
  22641769.7484   -4681096.13646  -3558987.08061
  20734491.2254   -2079957.37046  -1597227.15763
  23732684.647    -2551828.462 5  -1929957.05621
  22995765.0374   -6902006.45345  -5217701.38261
 91  4  9 22 17 59.9980000  0  6G18G 2G11G19G16G 6
  22335760.1474    8420248.33946   6551674.19161
  21204846.4364  -14230176.23447 -10959790.93262
  22643515.3894   -4671922.97046  -3551839.15461
  20734699.9984   -2078866.30146  -1596376.98363
  23732515.9754   -2552711.35445  -1930645.09861
  22987827.9674   -6943702.63445  -5250191.78161
 91  4  9 22 18 14.9980000  0  6G18G 2G11G19G16G 6
  22343191.9514    8459306.57146   6582109.03161
  21198695.139   -14262493.410 7 -10984973.08923
  22645289.0144   -4662606.13846  -3544579.28461
  20734918.6474   -2077715.83246  -1595480.52463
  23732372.748    -2553478.939 5  -1931243.27821
  22979894.0454   -6985399.59145  -5282682.78861
 91  4  9 22 18 29.9980000  0  6G18G 2G11G19G16G 6
  22350634.0764    8498414.89846   6612582.89361
  21192557.6234  -14294749.82247 -11010107.89962
  22647086.8424   -4653156.88646  -3537216.22261
  20735145.584    -2076517.096 6  -1594546.45923
  23732246.5614   -2554142.49445  -1931760.40061
  22971956.0764   -7027108.54345  -5315183.15461
 91  4  9 22 18 44.9980000  0  6G18G 2G11G19G16G 6
  22358085.2724    8537575.23846   6643097.29961
  21186432.1544  -14326943.62847 -11035193.92262
  22648911.3034   -4643573.33246  -3529748.51861
  20735384.7564   -2075267.78346  -1593572.97863
  23732140.139    -2554699.998 5  -1932194.88921
  22964018.592    -7068827.461 5  -5347691.27521
 91  4  9 22 18 59.9980000  0  6G18G 2G11G19G16G 6
  22365546.8574    8576787.59046   6673652.22761
  21180316.7644  -14359074.36347 -11060230.80363
  22650759.3424   -4633855.26146  -3522175.98761
  20735630.256    -2073967.411 6  -1592559.71023
  23732053.936    -2555151.151 5  -1932546.47221
  22956077.131    -7110555.874 5  -5380206.79321
 91  4  9 22 19 14.9980000  0  6G18G 2G11G19G16G 6
  22373020.9204    8616059.02146   6704253.18661
  21174214.584   -14391134.634 7 -11085212.77723
  22652634.1314   -4623995.51146  -3514493.06461
  20735891.022    -2072608.660 6  -1591500.96223
  23731989.162    -2555489.234 5  -1932809.99821
  22948135.6544   -7152286.25445  -5412723.85661
 91  4  9 22 19 29.9980000  0  6G18G 2G11G19G16G 6
  22380504.6934    8655383.79846   6734895.71761
  21168127.436   -14423129.914 7 -11110144.10723
  22654537.4984   -4613999.63346  -3506704.06661
  20736158.7254   -2071196.91246  -1590400.91163
  23731944.498    -2555719.523 5  -1932989.49721
  22940192.553    -7194024.292 5  -5445246.87821
 91  4  9 22 19 44.9980000  0  6G18G 2G11G19G16G 6
  22387996.0224    8694754.35146   6765573.91961
  21162051.1154  -14455067.58847 -11135030.55062
  22656464.3184   -4603875.08346  -3498814.80561
  20736435.959    -2069739.312 6  -1589265.13323
  23731919.8034   -2555849.83845
  22932246.4204   -7235777.27445  -5477781.55361
 91  4  9 22 19 59.9980000  0  6G18G 2G11G19G16G 6
  22395498.3974    8734180.66846   6796295.55961
  21155985.107   -14486937.254 7 -11159864.00023
  22658417.4284   -4593611.81846  -3490817.45661
  20736723.865    -2068225.482 6  -1588085.53923
  23731917.0144   -2555870.08545
  22924301.6544   -7277534.83845  -5510319.78961
 91  4  9 22 20 14.9980000  0  6G18G 2G11G19G16G 6
  22403011.4364    8773660.93946   6827059.26161
  21149933.6074  -14518740.61347 -11184645.78162
  22660397.3424   -4583211.75746  -3482713.50961
  20737022.3114   -2066656.93146  -1586863.30163
  23731934.9754   -2555781.94445
  22916353.5924   -7319298.51545  -5542862.79561
 91  4  9 22 20 29.9980000  0  6G18G 2G11G19G16G 6
  22410534.568     8813196.266 6   6857865.84821
  21143894.803   -14550476.120 7 -11209374.69123
  22662402.4124   -4572673.32046  -3474501.73561
  20737331.772    -2065032.090 6  -1585597.20323
  23731972.350    -2555583.879 5
  22908406.5534   -7361066.67745  -5575409.28761
 91  4  9 22 20 44.9980000  0  6G18G 2G11G19G16G 6
  22418069.5454    8852786.74546   6888715.41561
  21137867.7724  -14582143.79247 -11234050.74662
  22664433.2724   -4561996.54546  -3466182.16861
  20737653.2174   -2063350.60146  -1584286.96563
  23732031.2724   -2555276.11645
  22900456.0064   -7402839.11745  -5607959.11661
 91  4  9 22 20 59.9980000  0  6G18G 2G11G19G16G 6
  22425613.4044    8892431.73746   6919607.45961
  21131854.9044  -14613743.78847 -11258674.06362
  22666491.6784   -4551181.93346  -3457755.19761
  20737980.592    -2061612.647 6  -1582932.72923
  23732112.326    -2554859.405 5  -1932319.67421
  22892506.537    -7444616.248 5  -5640512.60621
 91  4  9 22 21 14.9980000  0  6G18G 2G11G19G16G 6
  22433169.670     8932134.530 6   6950544.53821
  21125855.217   -14645272.309 7 -11283241.68523
  22668575.5614   -4540225.92946  -3449218.04561
  20738325.287    -2059814.510 6  -1581531.59723
  23732211.756    -2554329.952 4  -1931907.16921
  22884556.4754   -7486394.20645  -5673066.73961
 91  4  9 22 21 29.9980000  0  6G18G 2G11G19G16G 6
  22440733.2174    8971886.83346   6981520.19761
  21119867.0924  -14676737.86747 -11307760.24663
  22670685.6934   -4529137.08246  -3440577.38861
  20738679.4044   -2057964.39346  -1580089.95763
  23732330.9044   -2553696.25545  -1931413.47461
  22876604.9204   -7528181.23345  -5705627.94861
 91  4  9 22 21 44.9980000  0  6G18G 2G11G19G16G 6
  22448311.1864    9011698.58046   7012542.18361
  21113893.232   -14708129.918 7 -11332221.53023
  22672823.8184   -4517904.99146  -3431825.10761
  20739041.3504   -2056051.61246  -1578599.49263
  23732472.2874   -2552948.12444  -1930830.55661
  22868653.3264   -7569966.93245  -5738188.10161
 91  4  9 22 21 59.9980000  0  6G18G 2G11G19G16G 6
  22455897.8344    9051570.93046   7043611.39061
  21107933.6704  -14739447.06047 -11356624.44163
  22674988.4594   -4506528.32146  -3422960.17661
  20739416.357    -2054074.590 6  -1577058.96623
  23732641.1314   -2552084.34045  -1930157.55661
  22860702.2014   -7611749.92345  -5770746.16661
 91  4  9 22 22 14.9980000  0  6G18G 2G11G19G16G 6
  22463497.068     9091502.899 6   7074727.04821
  21101988.600   -14770690.561 7 -11380969.97423
  22677181.9904   -4495008.44946  -3413983.65261
  20739806.5844   -2052034.35346  -1575469.18263
  23732826.6314   -2551106.42645  -1929395.61561
  22852750.8504   -7653531.09145  -5803302.80161
 91  4  9 22 22 29.9980000  0  6G18G 2G11G19G16G 6
  22471104.982     9131487.228 6   7105883.50421
  21096056.311   -14801866.948 7 -11405263.20723
  22679399.0454   -4483352.09146  -3404900.78261
  20740204.8734   -2049937.42246  -1573835.22263
  23733030.3574   -2550020.77044  -1928549.72261
  22844800.443    -7695316.901 5  -5835863.05121
 91  4  9 22 22 44.9980000  0  6G18G 2G11G19G16G 6
  22478726.412     9171536.893 6   7137090.87321
  21090138.3344  -14832962.96447 -11429493.81163
  22681645.6004   -4471546.19946  -3395701.38961
  20740616.4364   -2047770.54646  -1572146.75863
  23733261.186    -2548814.350 4  -1927609.72621
  22836849.553    -7737094.180 5  -5868416.66521
 91  4  9 22 22 59.9980000  0  6G18G 2G11G19G16G 6
  22486359.670     9211647.771 6   7168345.93721
  21084234.6394  -14863982.50147 -11453664.81963
  22683919.8734   -4459594.88846  -3386388.67961
  20741043.0844   -2045537.50546  -1570406.73963
  23733516.4044   -2547491.40445  -1926578.94561
  22828899.076    -7778867.011 5  -5900966.80721
 91  4  9 22 23 14.9980000  0  6G18G 2G11G19G16G 6
  22494005.772     9251829.348 6   7199656.09221
  21078349.0144  -14894915.88847 -11477768.70263
  22686224.8654   -4447488.62046  -3376955.22861
  20741482.2794   -2043228.39046  -1568607.43863
  23733788.0614   -2546042.28145  -1925449.82261
  22820953.100    -7820625.438 5  -5933505.72121
 91  4  9 22 23 29.9980000  0  6G18G 2G11G19G16G 6
  22501665.5844    9292083.42946   7231022.74261
  21072478.6314  -14925760.89847 -11501803.71763
  22688558.4754   -4435225.45546  -3367399.51861
  20741934.506    -2040841.005 6  -1566747.15323
  23734089.1864   -2544465.14045  -1924220.94361
  22813009.9594   -7862367.09345  -5966031.57761
 91  4  9 22 23 44.9980000  0  6G18G 2G11G19G16G 6
  22509339.865     9332413.384 6   7262448.51821
  21066627.5924  -14956514.04247 -11525767.14663
  22690921.9284   -4422802.01946  -3357718.91961
  20742405.6314   -2038371.67646  -1564823.01263
  23734412.8264   -2542756.70744  -1922889.78761
  22805070.725    -7904088.512 5  -5998541.66721
 91  4  9 22 23 59.9980000  0  6G18G 2G11G19G16G 6
  22517026.717     9372803.575 6   7293921.22721
  21060789.037   -14987190.796 7 -11549671.05223
  22693313.4124   -4410233.87946  -3347925.57661
  20742887.3034   -2035835.69546  -1562846.93563
  23734763.8114   -2540932.38344  -1921468.32061
  22797131.873    -7945805.015 5  -6031047.92021
 91  4  9 22 24 14.9980000  0  6G18G 2G11G19G16G 6
  22524717.842     9413227.790 6   7325420.44721
  21054962.7254  -15017816.93947 -11573535.52163
  22695729.2794   -4397547.06846  -3338039.74461
  20743378.5614   -2033258.83346  -1560838.99963
  23735122.1934   -2539018.66444  -1919977.16561
  22789189.412    -7987542.574 5  -6063570.57921
 91  4  9 22 24 29.9980000  0  6G18G 2G11G19G16G 6
  22532415.553     9453670.335 6   7356933.95421
  21049139.9364  -15048408.13547 -11597372.75963
  22698161.6624   -4384757.27846  -3328073.67861
  20743872.1934   -2030656.55246  -1558811.25563
  23735504.1704   -2537031.00244  -1918428.41561
  22781239.740    -8029316.540 5  -6096121.61721
 91  4  9 22 24 44.9980000  0  6G18G 2G11G19G16G 6
  22540097.990     9494040.774 6   7388391.27021
  21043309.0064  -15079054.55947 -11621253.02663
  22700598.4044   -4371954.81146  -3318097.73061
  20744356.6154   -2028118.93446  -1556833.89763
  23735881.029    -2535059.549 4  -1916892.29721
  22773268.482    -8071216.951 5  -6128771.17621
 91  4  9 22 24 59.9980000  0  6G18G 2G11G19G16G 6
  22547698.3114    9533980.34946   7419513.33261
  21037397.545   -15110114.622 7 -11645455.11823
  22702968.3184   -4359498.29746  -3308390.85961
  20744758.686    -2026004.110 6  -1555185.49523
  23736180.1544   -2533463.46544  -1915648.15861
  22765201.686    -8113602.340 5  -6161798.14621
 91  4  9 22 25 14.9980000  0  6G18G 2G11G19G16G 6
  22555275.818     9573798.434 6   7450539.74321
  21031467.2484  -15141278.87747 -11669739.39163
  22705332.4284   -4347078.30846  -3298713.45061
  20745140.3344   -2024002.69246  -1553626.45963
  23736470.795    -2531933.409 4  -1914456.50821
  22757102.639    -8156163.032 6  -6194962.71621
 91  4  9 22 25 29.9980000  0  6G18G 2G11G19G16G 6
  22562825.014     9613467.366 6   7481450.42721
  21025512.3574  -15172574.43147 -11694125.47863
  22707682.0064   -4334722.29546  -3289085.38761
  20745492.764    -2022141.608 6  -1552176.27523
  23736747.795    -2530496.163 4  -1913336.63021
  22748964.8344   -8198926.27746  -6228284.63161
 91  4  9 22 25 44.9980000  0  6G18G 2G11G19G16G 6
  22570355.084     9653043.776 6   7512289.02221
  21019542.2954  -15203944.50547 -11718569.62663
  22710032.2094   -4322373.75346  -3279463.15561
  20745833.318    -2020363.904 6  -1550791.06523
  23737017.295    -2529095.354 4  -1912245.19621
  22740799.107    -8241834.961 6  -6261719.85521
 91  4  9 22 25 59.9980000  0  6G18G 2G11G19G16G 6
  22577890.732     9692646.299 6   7543147.95421
  21013581.5374  -15235270.28047 -11742979.26263
  22712404.475    -4309913.915 6  -3269754.20321
  20746175.959    -2018550.516 6  -1549378.04523
  23737293.553    -2527612.349 4  -1911089.67321
  22732628.6394   -8284770.21545  -6295175.80961
 91  4  9 22 26 14.9980000  0  6G18G 2G11G19G16G 6
  22585414.725     9732175.061 6   7573949.41221
  21007608.7724  -15266651.52347 -11767432.12163
  22714777.178    -4297442.701 6  -3260036.38721
  20746510.295    -2016801.155 6  -1548014.92023
  23737574.6934   -2526147.27344  -1909948.14361
  22724434.654    -8327831.872 5  -6328730.23821
 91  4  9 22 26 29.9980000  0  6G18G 2G11G19G16G 6
  22592936.3574    9771699.90346   7604747.82061
  21001641.3504  -15298017.80447 -11791873.32163
  22717165.0144   -4284889.96546  -3250255.04861
  20746844.123    -2015045.321 6  -1546646.74923
  23737865.2324   -2524629.94944  -1908765.90061
  22716227.9904   -8370949.52046  -6362328.30661
 91  4  9 22 26 44.9980000  0  6G18G 2G11G19G16G 6
  22600464.8264    9811259.40046   7635573.21961
  20995682.0684  -15329330.43747 -11816272.71163
  22719576.561    -4272217.054 6  -3240380.06221
  20747186.9044   -2013244.30146  -1545243.36663
  23738172.725    -2523021.879 4  -1907512.92821
  22708020.6234   -8414084.32646  -6395939.74361
 91  4  9 22 26 59.9980000  0  6G18G 2G11G19G16G 6
  22607994.5144    9850830.84146   7666407.93961
  20989730.4594  -15360611.80247 -11840647.74263
  22722007.068    -4259446.598 6  -3230429.07021
  20747532.4284   -2011420.31046  -1543822.08463
  23738489.482    -2521345.654 4  -1906206.87621
  22699804.365    -8457258.624 6  -6429581.95221
 91  4  9 22 27 14.9980000  0  6G18G 2G11G19G16G 6
  22615531.9284    9890445.03546   7697275.96161
  20983788.6074  -15391830.86147 -11864974.21863
  22724461.897    -4246547.678 6  -3220377.98421
  20747891.4364   -2009542.15946
  23738826.061    -2519570.286 3
  22691586.951    -8500441.141 6  -6463230.56421
 91  4  9 22 27 29.9980000  0  6G18G 2G11G19G16G 6
  22623079.014     9930097.397 6   7728173.72921
  20977858.8184  -15422992.20447 -11889255.72863
  22726940.482    -4233525.082 6  -3210230.51421
  20748257.7174   -2007614.35046
  23739182.084    -2517700.583 4
  22683369.045    -8543636.414 6  -6496889.12021
 91  4  9 22 27 44.9980000  0  5G18G 2G11G19G 6
  22630628.2794    9969781.44146   7759096.18161
  20971938.6704  -15454101.70547 -11913496.83763
  22729440.373    -4220384.939 6  -3199991.45021
  20748633.123    -2005642.604 6  -1539320.00823
  22675143.7564   -8586850.18646  -6530562.08561
 91  4  9 22 27 59.9980000  0  5G18G 2G11G19G 6
  22638190.7794   10009506.52746   7790050.61861
  20966030.6074  -15485149.67947 -11937690.00663
  22731965.7794   -4207117.83446  -3189653.45961
  20749016.3654   -2003617.39146  -1537741.93063
  22666919.0844   -8630073.04246  -6564242.12961
 91  4  9 22 28 14.9980000  0  5G18G 2G11G19G 6
  22645756.2174   10049279.81546   7821042.60761
  20960135.7174  -15516129.03147 -11961829.70363
  22734515.748    -4193716.528 6  -3179210.90221
  20749415.6784   -2001530.87646  -1536116.08663
  22658693.5144   -8673297.53346  -6597923.46261
 91  4  9 22 28 29.9980000  0  5G18G 2G11G19G 6
  22653335.0924   10089097.69046   7852069.34261
  20954252.2404  -15547043.13947 -11985918.56063
  22737091.592    -4180184.696 6  -3168666.63021
  20749822.2484   -1999386.68746  -1534445.29863
  22650467.4514   -8716526.88846  -6631608.56461
 91  4  9 22 28 44.9980000  0  5G18G 2G11G19G 6
  22660919.1934   10128954.40846   7883126.34361
  20948380.9594  -15577897.42147 -12009960.80463
  22739688.686    -4166527.913 6  -3158025.00221
  20750242.459    -1997189.936 6  -1532733.55723
  22642240.1314   -8759766.51446  -6665301.67061
 91  4  9 22 28 59.9980000  0  5G18G 2G11G19G 6
  22668514.6474   10168861.61146   7914222.67661
  20942523.162   -15608679.869 7 -12033947.06723
  22742314.3114   -4152734.51146  -3147276.90661
  20750670.459    -1994928.682 6  -1530971.55423
  22634009.9674   -8803004.31046  -6698993.36961
 91  4  9 22 29 14.9980000  0  5G18G 2G11G19G 6
  22676117.7954   10208816.24646   7945355.97561
  20936678.7644  -15639393.48847 -12057879.70263
  22744964.498    -4138807.505 6  -3136424.71121
  20751113.928    -1992605.693 6  -1529161.44523
  22625783.8344   -8846243.23546  -6732685.93561
 91  4  9 22 29 29.9980000  0  5G18G 2G11G19G 6
  22683729.4284   10248814.56546   7976523.31561
  20930846.389   -15670041.577 7 -12081761.27523
  22747639.936    -4124750.385 6  -3125471.13521
  20751567.443    -1990224.396 6  -1527305.90823
  22617552.826    -8889486.641 6  -6766381.99221
 91  4  9 22 29 44.9980000  0  5G18G 2G11G19G 6
  22691347.053    10288853.689 6   8007722.46121
  20925025.5374  -15700627.00447 -12105594.01563
  22750338.076    -4110566.291 6  -3114418.61021
  20752032.053    -1987787.288 6  -1525406.87723
  22609323.584    -8932737.121 6  -6800083.56821
 91  4  9 22 29 59.9980000  0  5G18G 2G11G19G 6
  22698974.834    10328929.768 6   8038950.37921
  20919217.4364  -15731153.28747 -12129380.67363
  22753062.225    -4096258.904 6  -3103270.01421
  20752503.850    -1985297.788 6  -1523467.02023
  22601091.584    -8975997.905 6  -6833793.16221
 91  4  9 22 30 14.9980000  0  5G18G 2G11G19G 6
  22706608.600    10369047.088 6   8070210.43721
  20913421.4754  -15761615.68647 -12153117.54963
  22755808.061    -4081823.774 6  -3092021.87821
  20752991.256    -1982751.224 6  -1521482.69323
  22592857.8424   -9019264.62746  -6867507.39361
 91  4  9 22 30 29.9980000  0  5G18G 2G11G19G 6
  22714250.022    10409203.689 6   8101501.10721
  20907637.3734  -15792016.13347 -12176806.14963
  22758575.084    -4067262.806 6  -3080675.68821
  20753485.834    -1980149.054 6  -1519455.04723
  22584624.428    -9062538.846 6  -6901227.46021
 91  4  9 22 30 44.9980000  0  5G18G 2G11G19G 6
  22721900.920    10449399.514 6   8132822.33521
  20901862.1704  -15822354.37347 -12200446.27963
  22761372.6704   -4052576.06346  -3069231.48161
  20753991.850    -1977491.039 6  -1517383.87923
  22576386.232    -9105820.218 6  -6934953.09821
 91  4  9 22 30 59.9980000  0  5G18G 2G11G19G 6
  22729556.8114   10489638.60846   8164177.28261
  20896102.404   -15852625.836 7 -12224034.37523
  22764192.912    -4037759.249 6  -3057685.92921
  20754506.779    -1974772.679 6  -1515265.69223
  22568150.7954   -9149104.33546  -6968680.88161
 91  4  9 22 31 14.9980000  0  5G18G 2G11G19G 6
  22737223.709    10529921.592 6   8195566.43421
  20890354.2254  -15882829.88247 -12247569.93563
  22767037.2404   -4022811.80446  -3046038.58261
  20755038.522    -1971993.077 6  -1513099.78223
  22559914.373    -9192390.322 6  -7002410.11721
 91  4  9 22 31 29.9980000  0  5G18G 2G11G19G 6
  22744896.936    10570244.726 6   8226986.86921
  20884618.475   -15912970.005 7 -12271055.69123
  22769905.0454   -4007737.51146  -3034292.39061
  20755575.639    -1969155.568 6  -1510888.74823
  22551675.779    -9235681.574 6  -7036143.45421
 91  4  9 22 31 44.9980000  0  5G18G 2G11G19G 6
  22752577.732    10610600.888 6   8258433.04421
  20878893.998   -15943053.058 7 -12294496.97423
  22772797.842    -3992543.266 6  -3022452.73221
  20756127.1544   -1966266.73346  -1508637.71863
  22543434.318    -9278984.720 6  -7069886.06121
 91  4  9 22 31 59.9980000  0  5G18G 2G11G19G 6
  22760261.857    10650999.697 6   8289912.43821
  20873182.5844  -15973069.43247 -12317886.30163
  22775713.9594   -3977219.73946  -3010512.33261
  20756690.076    -1963316.893 6  -1506339.15523
  22535193.959    -9322290.167 6  -7103630.45721
 91  4  9 22 32 14.9980000  0  5G18G 2G11G19G 6
  22767960.4204   10691442.40946   8321426.05961
  20867483.5064  -16003017.28147 -12341222.23163
  22778654.6394   -3961765.29046  -2998469.90961
  20757261.850    -1960304.261 6  -1503991.66623
  22526953.303    -9365595.970 6  -7137375.13221
 91  4  9 22 32 29.9980000  0  5G18G 2G11G19G 6
  22775663.631    10731923.682 6   8352969.70821
  20861796.9824  -16032901.75947 -12364508.77963
  22781618.4124   -3946185.25646  -2986329.63761
  20757843.803    -1957233.894 6  -1501599.18523
  22518711.209    -9408907.169 6  -7171124.00321
 91  4  9 22 32 44.9980000  0  5G18G 2G11G19G 6
  22783373.428    10772439.173 6   8384540.02321
  20856121.014   -16062727.133 7 -12387749.27623
  22784607.670    -3930484.021 6  -2974094.91521
  20758440.100    -1954109.682 6  -1499164.75023
  22510466.334    -9452227.872 6  -7204880.29421
 91  4  9 22 32 59.9980000  0  5G18G 2G11G19G 6
  22791089.0454   10812985.43046   8416134.33461
  20850455.959   -16092496.408 7 -12410946.05923
  22787617.7724   -3914664.85446  -2961768.31061
  20759044.803    -1950934.572 6  -1496690.65223
  22502221.029    -9495561.011 6  -7238646.26521
 91  4  9 22 33 14.9980000  0  5G18G 2G11G19G 6
  22798813.990    10853569.545 6   8447758.10221
  20844802.545   -16122202.373 7 -12434093.51023
  22790651.7724   -3898720.78546  -2949344.36661
  20759661.522    -1947701.244 6  -1494171.19123
  22493973.428    -9538899.437 6  -7272416.36121
 91  4  9 22 33 29.9980000  0  5G18G 2G11G19G 6
  22806543.0294   10894186.69946   8479407.65961
  20839160.732   -16151849.622 7 -12457195.20923
  22793708.8424   -3882656.55346  -2936826.79161
  20760282.412    -1944414.113 6  -1491609.80223
  22485724.623    -9582247.431 6  -7306193.91021
 91  4  9 22 33 44.9980000  0  5G18G 2G11G19G 6
  22814277.225    10934834.013 6   8511080.69821
  20833530.201   -16181440.687 7 -12480253.12823
  22796787.0764   -3866475.05146  -2924217.83161
  20760920.9124   -1941075.74446  -1489008.48663
  22477474.389    -9625607.606 6  -7339980.95121
 91  4  9 22 33 59.9980000  0  5G18G 2G11G19G 6
  22822017.576    10975508.936 6   8542775.24621
  20827909.068   -16210977.958 7 -12503269.13723
  22799889.6004   -3850178.65446  -2911519.35261
  20761567.1704   -1937688.20346  -1486368.85663
  22469219.709    -9668982.095 6  -7373779.14521
 91  4  9 22 34 14.9980000  0  5G18G 2G11G19G 6
  22829763.5144   11016223.35746   8574500.59261
  20822300.857   -16240449.280 7 -12526233.74823
  22803014.514    -3833755.440 6  -2898722.05421
  20762222.186    -1934239.280 6  -1483681.40123
  22460965.7954   -9712358.64346  -7407578.95561
 91  4  9 22 34 29.9980000  0  5G18G 2G11G19G 6
  22837518.842    11056971.415 6   8606252.13521
  20816703.561   -16269860.151 7 -12549151.26023
  22806164.1474   -3817211.22646  -2885830.46561
  20762887.287    -1930734.461 6  -1480950.38223
  22452705.8974   -9755742.71346  -7441384.61461
 91  4  9 22 34 44.9980000  0  5G18G 2G11G19G 6
  22845277.357    11097745.182 6   8638023.69621
  20811117.998   -16299218.017 7 -12572027.46823
  22809332.0454   -3800553.54146  -2872850.45661
  20763564.365    -1927180.991 6  -1478181.45923
  22444451.357    -9799141.724 6  -7475201.91521
 91  4  9 22 34 59.9980000  0  5G18G 2G11G19G 6
  22853043.459    11138552.669 6   8669821.54321
  20805543.092   -16328515.000 7 -12594856.23523
  22812525.1074   -3783774.73446  -2859776.07761
  20764252.772    -1923570.914 6  -1475368.43123
  22436190.498    -9842547.583 6  -7509024.55621
 91  4  9 22 35 14.9980000  0  5G18G 2G11G19G 6
  22860814.3894   11179383.95746   8701637.94061
  20799976.803   -16357760.756 7 -12617645.08323
  22815739.7644   -3766884.76646  -2846615.06861
  20764948.428    -1919913.734 6  -1472518.69423
  22427929.178    -9885969.828 6  -7542859.97321
 91  4  9 22 35 29.9980000  0  5G18G 2G11G19G 6
  22868589.607    11220239.109 6   8733472.92121
  20794421.709   -16386954.983 7 -12640393.78023
  22818974.2404   -3749883.36246  -2833367.23461
  20765653.936    -1916208.939 6  -1469631.85323
  22419662.022    -9929408.160 6  -7576707.91521
 91  4  9 22 35 44.9980000  0  5G18G 2G11G19G 6
  22876367.3184   11261121.51446   8765329.13861
  20788877.037   -16416094.000 7 -12663099.45623
  22822232.3974   -3732767.06146  -2820029.86361
  20766369.248    -1912452.676 6  -1466704.91423
  22411393.404    -9972858.624 6  -7610565.30821
 91  4  9 22 35 59.9980000  0  5G18G 2G11G19G 6
  22884152.123    11302024.106 6   8797201.09021
  20783341.490   -16445184.782 7 -12685767.54623
  22825508.5144   -3715542.97546  -2806608.50061
  20767088.748    -1908651.547 6  -1463743.01623
  22403121.357   -10016327.951 6  -7644437.40421
 91  4  9 22 36 14.9980000  0  5G18G 2G11G19G 6
  22891940.4044   11342955.36745   8829095.39161
  20777815.857   -16474218.446 7 -12708391.13023
  22828808.0064   -3698202.60746  -2793096.53361
  20767824.592    -1904796.803 6  -1460739.33923
  22394847.0614  -10059807.19446  -7678317.23161
 91  4  9 22 36 29.9980000  0  5G18G 2G11G19G 6
  22899735.6234   11383912.32945   8861009.69161
  20772300.717   -16503197.660 7 -12730972.28323
  22832130.389    -3680748.709 6  -2779496.10121
  20768568.248    -1900891.051 6  -1457695.91423
  22386570.756   -10103299.114 6  -7712206.93521
 91  4  9 22 36 44.9980000  0  5G18G 2G11G19G 6
  22907536.303    11424899.479 5   8892947.52521
  20766797.670   -16532117.611 7 -12753507.25923
  22835473.1704   -3663176.89046  -2765803.78861
  20769322.217    -1896929.472 6  -1454608.98823
  22378292.9824  -10146798.78546  -7746102.68961
 91  4  9 22 36 59.9980000  0  5G18G 2G11G19G 6
  22915340.029    11465915.959 5   8924908.21621
  20761306.193   -16560979.264 7 -12775996.80823
  22838839.6474   -3645488.20146  -2752020.39761
  20770084.404    -1892912.628 6  -1451478.99723
  22370013.732   -10190307.087 6  -7780005.14821
 91  4  9 22 37 14.9980000  0  5G18G 2G11G19G 6
  22923150.8654   11506960.79745   8956891.00061
  20755824.381   -16589783.028 7 -12798441.24723
  22842227.381    -3627683.192 6  -2738146.37321
  20770862.568    -1888840.915 6  -1448306.25223
  22361732.4364  -10233824.16746  -7813914.47361
 91  4  9 22 37 29.9980000  0  5G18G 2G11G19G 6
  22930967.967    11548030.591 6   8988893.21121
  20750353.873   -16618531.959 7 -12820842.95723
  22845638.139    -3609765.157 6  -2724184.28321
  20771644.600    -1884717.262 6  -1445093.03123
  22353448.803   -10277353.049 6  -7847832.97921
 91  4  9 22 37 44.9980000  0  5G18G 2G11G19G 6
  22938788.092    11589130.556 6   9020918.96521
  20744894.115   -16647220.937 7 -12843197.95723
  22849069.764    -3591729.218 6  -2710130.31621
  20772442.107    -1880536.331 6  -1441835.17823
  22345165.6704  -10320888.43346  -7881756.55661
 91  4  9 22 37 59.9980000  0  5G18G 2G11G19G 6
  22946611.131    11630240.409 6   9052952.41721
  20739441.701   -16675869.860 7 -12865521.74023
  22852521.4514   -3573595.38746  -2696000.07361
  20773242.139    -1876317.861 6  -1438548.07223
  22336877.0144  -10364450.08546  -7915700.60661
 91  4  9 22 38 14.9980000  0  5G18G 2G11G19G 6
  22954439.373    11671378.200 6   9085007.63521
  20734002.318   -16704460.418 7 -12887800.04923
  22855994.053    -3555345.575 6  -2681779.45821
  20774056.936    -1872043.514 6  -1435217.42923
  22328584.764   -10408019.538 6  -7949650.73321
 91  4  9 22 38 29.9980000  0  5G18G 2G11G19G 6
  22962271.272    11712534.356 6   9117077.14721
  20728570.193   -16733002.250 7 -12910040.38523
  22859486.8654   -3536989.72746  -2667476.21161
  20774877.154    -1867722.891 6  -1431850.73023
  22320288.9204  -10451606.47046  -7983614.48061
 91  4  9 22 38 44.9980000  0  5G18G 2G11G19G 6
  22970107.654    11753709.107 6   9149161.15021
  20723148.084   -16761494.270 7 -12932241.91123
  22863000.607    -3518527.143 6  -2653089.79821
  20775710.772    -1863354.854 6  -1428447.07823
  22311992.3814  -10495209.78546  -8017590.99961
 91  4  9 22 38 59.9980000  0  5G18G 2G11G19G 6
  22977946.5684   11794907.06346   9181263.25161
  20717737.014   -16789931.960 7 -12954401.09923
  22866533.3184   -3499953.34646  -2638616.72461
  20776549.951    -1858934.624 6  -1425002.76123
  22303691.990   -10538824.578 6  -8051576.46921
 91  4  9 22 39 14.9980000  0  5G18G 2G11G19G 6
  22985792.0294   11836131.25145   9213385.78661
  20712336.647   -16818312.217 7 -12976515.53323
  22870090.803    -3481265.302 6  -2624054.62721
  20777404.232    -1854458.685 6  -1421515.03523
  22295390.7324  -10582447.61846  -8085568.36061
 91  4  9 22 39 29.9980000  0  5G18G 2G11G19G 6
  22993639.3184   11877377.07846   9245525.17461
  20706945.365   -16846639.013 7 -12998588.31123
  22873668.451    -3462467.421 6  -2609406.94321
  20778262.686    -1849931.218 6  -1417987.15123
  22287088.1864  -10626082.97846  -8119569.85061
 91  4  9 22 39 44.9980000  0  5G18G 2G11G19G 6
  23001493.459    11918640.964 6   9277678.63521
  20701565.193   -16874915.780 7 -13020622.10223
  22877265.4514   -3443563.26446  -2594676.43661
  20779135.756    -1845355.397 6  -1414421.59323
  22278780.1934  -10669733.75046  -8153583.34561
 91  4  9 22 39 59.9980000  0  5G18G 2G11G19G 6
  23009351.0454   11959927.47546   9309849.72161
  20696194.365   -16903137.957 7 -13042613.35723
  22880883.264    -3424548.647 6  -2579859.86521
  20780014.881    -1840726.802 6  -1410814.91023
  22270473.209   -10713395.276 6  -8187605.23121
 91  4  9 22 40 14.9980000  0  5G18G 2G11G19G 6
  23017211.3734   12001232.26046   9342035.06961
  20690833.779   -16931309.530 7 -13064565.18023
  22884521.1394   -3405427.51346  -2564960.29261
  20780908.420    -1836049.000 6  -1407169.88623
  22262161.115   -10757071.418 6  -8221638.51321
 91  4  9 22 40 29.9980000  0  5G18G 2G11G19G 6
  23025073.639    12042564.929 5   9374242.14221
  20685483.857   -16959420.752 7 -13086469.97823
  22888182.428    -3386190.361 6  -2549970.31821
  20781805.865    -1831312.026 6  -1403478.75323
  22253848.264   -10800752.256 6  -8255675.44621
 91  4  9 22 40 44.9980000  0  5G18G 2G11G19G 6
  23032944.303    12083921.794 5   9406468.05221
  20680145.045   -16987474.906 7 -13108330.30723
  22891865.272    -3366840.708 6  -2534892.68321
  20782721.357    -1826519.078 6  -1399744.00923
  22245534.7874  -10844440.99146  -8289718.52661
 91  4  9 22 40 59.9980000  0  5G18G 2G11G19G 6
  23040818.842    12125297.481 5   9438708.62621
  20674816.842   -17015477.263 7 -13130150.27723
  22895566.670    -3347384.111 6  -2519731.71521
  20783640.772    -1821675.294 6  -1395969.65223
  22237219.193   -10888142.834 6  -8323771.83621
 91  4  9 22 41 14.9980000  0  5G18G 2G11G19G 6
  23048695.389    12166685.662 5   9470958.93621
  20669496.881   -17043433.952 7 -13151934.66023
  22899289.279    -3327826.791 6  -2504492.26221
  20784572.928    -1816786.709 6  -1392160.38423
  22228898.928   -10931863.637 6  -8357839.92121
 91  4  9 22 41 29.9980000  0  5G18G 2G11G19G 6
  23056577.397    12208093.996 5   9503224.93521
  20664187.303   -17071336.692 7 -13173677.00523
  22903031.272    -3308160.949 6  -2489168.24221
  20785511.123    -1811845.140 6  -1388309.82723
  22220578.318   -10975595.253 6  -8391916.41621
 91  4  9 22 41 44.9980000  0  5G18G 2G11G19G 6
  23064458.8184   12249525.20045   9535508.77361
  20658887.826   -17099182.728 7 -13195375.16423
  22906794.779    -3288383.964 6  -2473757.62321
  20786464.881    -1806847.370 6  -1384415.48523
  22212254.076   -11019334.589 6  -8425998.94321
 91  4  9 22 41 59.9980000  0  5G18G 2G11G19G 6
  23072347.6544   12290977.43745   9567808.98261
  20653600.084   -17126973.781 7 -13217030.47623
  22910580.678    -3268497.782 6  -2458261.91421
  20787425.568    -1801795.104 6  -1380478.67623
  22203927.772   -11063083.242 6  -8460088.72321
 91  4  9 22 42 14.9980000  0  5G18G 2G11G19G 6
  23080240.1074   12332453.61745   9600127.85561
  20648322.139   -17154706.663 7 -13238640.46723
  22914385.006    -3248499.504 6  -2442678.86121
  20788397.467    -1796685.099 6  -1376496.87423
  22195602.889   -11106837.974 6  -8494183.24521
 91  4  9 22 42 29.9980000  0  5G18G 2G11G19G 6
  23088136.1394   12373948.65845   9632461.42261
  20643054.912   -17182386.061 7 -13260208.77523
  22918211.365    -3228393.959 6  -2427012.22321
  20789377.654    -1791521.976 6  -1372473.68123
  22187272.772   -11150603.426 6  -8528286.11721
 91  4  9 22 42 44.9980000  0  5G18G 2G11G19G 6
  23096036.7174   12415466.54145   9664812.80961
  20637798.576   -17210007.678 7 -13281732.06423
  22922057.412    -3208177.107 6  -2411258.84921
  20790373.826    -1786301.203 6  -1368405.56723
  22178944.607   -11194374.959 6  -8562393.72621
 91  4  9 22 42 59.9980000  0  5G18G 2G11G19G 6
  23103942.006    12457011.278 5   9697185.10921
  20632554.248   -17237567.647 7 -13303207.31223
  22925926.170    -3187845.107 6  -2395415.75621
  20791377.873    -1781018.647 6  -1364289.31323
  22170613.9204  -11238148.46846  -8596502.88661
 91  4  9 22 43 14.9980000  0  5G18G 2G11G19G 6
  23111850.897    12498573.026 5   9729570.65621
  20627319.170   -17265075.278 7 -13324641.77823
  22929815.506    -3167407.625 6  -2379490.46221
  20792394.818    -1775683.750 6  -1360132.27023
  22162283.1704  -11281933.37546  -8630620.92761
 91  4  9 22 43 29.9980000  0  5G18G 2G11G19G 6
  23119763.240    12540147.026 5   9761965.75021
  20622094.451   -17292535.154 7 -13346039.03223
  22933723.982    -3146869.477 6  -2363486.74421
  20793417.756    -1770300.951 6  -1355937.89723
  22153947.420   -11325734.064 6  -8664751.26121
 91  4  9 22 43 44.9980000  0  5G18G 2G11G19G 6
  23127680.1544   12581738.29045   9794374.29761
  20616878.639   -17319942.004 7 -13367394.96623
  22937652.061    -3126225.661 6  -2347400.66721
  20794451.951    -1764864.790 6  -1351701.94823
  22145609.7954  -11369545.12346  -8698889.68061
 91  4  9 22 43 59.9980000  0  5G18G 2G11G19G 6
  23135596.6234   12623341.29745   9826791.98761
  20611672.701   -17347301.337 7 -13388713.87123
  22941600.936    -3105481.848 6  -2331236.69021
  20795496.428    -1759380.467 6  -1347428.47523
  22137270.201   -11413371.790 6  -8733040.25921
 91  4  9 22 44 14.9980000  0  5G18G 2G11G19G 6
  23143514.9514   12664958.29545   9859220.58461
  20606476.162   -17374610.528 7 -13409993.70723
  22945566.443    -3084635.634 6  -2314992.90221
  20796550.607    -1753845.305 6  -1343115.38023
  22128928.2564  -11457211.38046  -8767200.91561
 91  4  9 22 44 29.9980000  0  5G18G 2G11G19G 6
  23151437.357    12706585.687 5   9891657.28021
  20601287.3974  -17401872.89647 -13431237.05763
  22949553.811    -3063690.441 6  -2298671.99521
  20797613.178    -1748262.408 6  -1338765.09023
  22120582.5924  -11501067.06546  -8801374.11061
 91  4  9 22 44 44.9980000  0  5G18G 2G11G19G 6
  23159359.7874   12748222.26145   9924101.13761
  20596107.951   -17429089.403 7 -13452444.67323
  22953557.381    -3042647.628 6  -2282275.02221
  20798685.553    -1742632.504 6  -1334378.17223
  22112235.6624  -11544939.70346  -8835560.52261
 91  4  9 22 44 59.9980000  0  5G18G 2G11G19G 6
  23167286.131    12789870.343 5   9956553.96321
  20590938.576   -17456257.557 7 -13473614.61223
  22957580.4824   -3021504.99746  -2265800.25561
  20799763.787    -1736953.173 6  -1329952.74523
  22103882.342   -11588826.669 6  -8869758.09621
 91  4  9 22 45 14.9980000  0  5G18G 2G11G19G 6
  23175213.006    12831529.772 5   9989015.61821
  20585778.287   -17483377.095 7 -13494746.66723
  22961622.553    -3000262.600 6  -2249247.76021
  20800855.232    -1731224.222 6  -1325488.64423
  22095529.1314  -11632727.60546  -8903966.55661
 91  4  9 22 45 29.9980000  0  5G18G 2G11G19G 6
  23183141.443    12873191.649 5  10021479.19721
  20580624.826   -17510456.849 7 -13515847.72323
  22965683.311    -2978929.361 6  -2232624.47921
  20801953.670    -1725454.175 6  -1320992.52323
  22087171.5924  -11676651.08546  -8938192.58061
 91  4  9 22 45 44.9980000  0  5G18G 2G11G19G 6
  23191071.1784   12914858.16545  10053946.38561
  20575480.826   -17537494.646 7 -13536916.08523
  22969761.186    -2957503.170 6  -2215928.76321
  20803059.139    -1719640.414 6  -1316462.34323
  22078808.3974  -11720594.55346  -8972434.17361
 91  4  9 22 45 59.9980000  0  5G18G 2G11G19G 6
  23199000.0924   12956527.67945  10086415.89461
  20570342.029   -17564491.455 7 -13557952.50923
  22973854.107    -2935985.478 6  -2199161.75421
  20804171.607    -1713784.036 6  -1311898.95123
  22070441.6004  -11764559.09246  -9006692.18561
 91  4  9 22 46 14.9980000  0  5G18G 2G11G19G 6
  23206929.350    12998197.205 5  10118885.41821
  20565211.389   -17591449.997 7 -13578959.11223
  22977966.779    -2914379.357 6  -2182325.83121
  20805296.826    -1707887.672 6  -1307304.40523
  22062070.248   -11808547.455 6  -9040968.75621
 91  4  9 22 46 29.9980000  0  5G18G 2G11G19G 6
  23214861.873    13039871.780 5  10151358.87721
  20560090.357   -17618364.984 7 -13599931.78023
  22982095.928    -2892679.538 6  -2165416.90021
  20806428.740    -1701945.889 6  -1302674.46623
  22053699.4824  -11852553.90946  -9075259.43161
 91  4  9 22 46 44.9980000  0  5G18G 2G11G19G 6
  23222792.7724   13081551.24545  10183836.16161
  20554977.459   -17645236.655 7 -13620870.69523
  22986241.662    -2870886.511 6  -2148435.33221
  20807566.623    -1695958.840 6  -1298009.26023
  22045318.7874  -11896578.70746  -9109564.39861
 91  4  9 22 46 59.9980000  0  5G18G 2G11G19G 6
  23230724.8894   13123239.02345  10216319.90061
  20549872.311   -17672061.156 7 -13641772.84823
  22990408.443    -2848996.712 6  -2131378.36621
  20808712.967    -1689922.694 6  -1293305.79223
  22036937.9434  -11940617.73246  -9143880.44961
 91  4  9 22 47 14.9980000  0  5G18G 2G11G19G 6
  23238659.9434   13164937.51445  10248811.99061
  20544777.772   -17698835.895 7 -13662636.23223
  22994592.412    -2827007.759 6  -2114244.13521
  20809872.998    -1683834.479 6  -1288561.75223
  22028555.8034  -11984668.36546  -9178205.54961
 91  4  9 22 47 29.9980000  0  5G18G 2G11G19G 6
  23246597.162    13206641.005 5  10281307.98421
  20539690.779   -17725566.436 7 -13683465.17323
  22998793.3424   -2804925.33646  -2097037.07261
  20811041.779    -1677699.664 6  -1283781.40123
  22020170.9284  -12028735.72346  -9212543.68161
 91  4  9 22 47 44.9980000  0  5G18G 2G11G19G 6
  23254531.7484   13248346.94745  10313805.89661
  20534611.592   -17752255.257 7 -13704261.60523
  23003014.420    -2782752.222 6  -2079759.34221
  20812217.201    -1671520.533 6  -1278966.51823
  22011781.6624  -12072822.29846  -9246896.78661
 91  4  9 22 47 59.9980000  0  5G18G 2G11G19G 6
  23262468.928    13290054.072 5  10346304.71921
  20529540.842   -17778903.019 7 -13725026.04723
  23007249.693    -2760489.365 6  -2062411.67421
  20813401.529    -1665297.648 6  -1274117.53623
  22003386.022   -12116928.650 6  -9281265.30421
 91  4  9 22 48 14.9980000  0  5G18G 2G11G19G 6
  23270406.0534   13331760.90745  10378803.30861
  20524476.678   -17805510.913 7 -13745759.42423
  23011504.529    -2738138.260 6  -2044995.24821
  20814593.326    -1659032.160 6  -1269235.36023
  21994989.318   -12161055.795 6  -9315650.01221
 91  4  9 22 48 29.9980000  0  5G18G 2G11G19G 6
  23278342.8034   13373466.90545  10411301.24661
  20519421.115   -17832079.564 7 -13766462.21723
  23015773.436    -2715699.780 6  -2027510.73021
  20815792.006    -1652724.704 6  -1264320.48123
  21986588.998   -12205204.324 6  -9350051.39221
 91  4  9 22 48 44.9980000  0  5G18G 2G11G19G 6
  23286279.717    13415174.215 5  10443800.19321
  20514373.897   -17858606.465 7 -13787132.48223
  23020059.9204   -2693171.56646  -2009956.28861
  20817001.709    -1646372.387 6  -1259370.64623
  21978185.381   -12249371.287 6  -9384467.12521
 91  4  9 22 48 59.9980000  0  5G18G 2G11G19G 6
  23294216.6784   13456890.19845  10476305.92461
  20509334.889   -17885083.911 7 -13807764.21423
  23024366.0374   -2670546.10846  -1992326.08161
  20818220.998    -1639967.721 6  -1254380.02223
  21969777.943   -12293549.157 6  -9418891.36121
 91  4  9 22 49 14.9970000  0  5G18G 2G11G19G 6
  23302156.056    13498606.087 5  10508811.56921
  20504305.384   -17911516.075 7 -13828360.65823
  23028689.392    -2647831.229 6  -1974626.18921
  20819448.181    -1633516.789 6  -1249353.34323
  21961368.728   -12337740.645 6  -9453326.21221
 91  4  9 22 49 29.9970000  0  5G18G 2G11G19G 6
  23310095.806    13540324.810 5  10541319.41721
  20499283.212   -17937908.661 7 -13848926.26423
  23033027.7744   -2625026.26046  -1956856.09061
  20820683.204    -1627020.638 6  -1244291.42723
  21952955.517   -12381953.584 6  -9487777.76921
 91  4  9 22 49 44.9970000  0  5G18G 2G11G19G 6
  23318036.040    13582043.659 5  10573827.36821
  20494268.103   -17964259.866 7 -13869459.62123
  23037384.673    -2602132.858 6  -1939017.09221
  20821929.899    -1620479.538 6  -1239194.48823
  21944537.548   -12426184.831 6  -9522243.60421
 91  4  9 22 49 59.9970000  0  5G18G 2G11G19G 6
  23325973.5244   13623758.95445  10606332.57061
  20489261.743   -17990572.934 7 -13889963.26623
  23041757.399    -2579154.485 6  -1921111.88821
  20823181.728    -1613896.486 6  -1234064.85423
  21936116.056   -12470437.360 6  -9556726.01421
 91  4  9 22 50 14.9970000  0  5G18G 2G11G19G 6
  23333911.8214   13665473.43545  10638837.12261
  20484261.728   -18016845.020 7 -13910434.97423
  23046146.001    -2556088.586 6  -1903138.47721
  20824443.610    -1607268.587 6  -1228900.28323
  21927691.814   -12514708.286 6  -9591222.75621
 91  4  9 22 50 29.9970000  0  5G18G 2G11G19G 6
  23341851.493    13707196.015 5  10671347.98921
  20479272.493   -18043066.954 7 -13930867.60223
  23050553.024    -2532926.422 6  -1885090.06121
  20825713.376    -1600586.709 6  -1223693.64523
  21919266.282   -12558988.409 6  -9625726.67321
 91  4  9 22 50 44.9970000  0  5G18G 2G11G19G 6
  23349791.4544   13748922.36845  10703861.78061
  20474291.470   -18069242.735 7 -13951264.26723
  23054981.485    -2509672.109 6  -1866969.84021
  20826997.001    -1593854.564 6  -1218447.83423
  21910837.204   -12603281.305 6  -9660240.53221
 91  4  9 22 50 59.9970000  0  5G18G 2G11G19G 6
  23357736.0564   13790657.28945  10736382.26761
  20469319.642   -18095367.342 7 -13971621.05623
  23059422.220    -2486320.934 6  -1848774.13921
  20828286.767    -1587067.017 6  -1213158.85923
  21902406.376   -12647581.947 6  -9694760.43121
 91  4  9 22 51 14.9970000  0  5G18G 2G11G19G 6
  23365680.876    13832410.863 5  10768917.25921
  20464359.985   -18121430.640 7 -13991930.07023
  23063887.493    -2462862.885 6  -1830495.16421
  20829592.681    -1580213.879 6  -1207818.77423
  21893976.899   -12691880.002 6  -9729278.31821
 91  4  9 22 51 29.9970000  0  5G18G 2G11G19G 6
  23373627.0244   13874169.32145  10801456.06361
  20459408.735   -18147445.895 7 -14012201.65523
  23068368.7284   -2439311.52646  -1812143.48261
  20830904.978    -1573308.187 6  -1202437.73923
  21885545.118   -12736188.607 6  -9763804.42221
 91  4  9 22 51 44.9970000  0  5G18G 2G11G19G 6
  23381575.751    13915942.358 5  10834006.21721
  20454468.868   -18173403.233 7 -14032428.10823
  23072871.618    -2415657.186 6  -1793711.54921
  20832232.189    -1566340.069 6  -1197008.05923
  21877113.915   -12780497.562 6  -9798330.79921
 91  4  9 22 51 59.9970000  0  5G18G 2G11G19G 6
  23389527.7044   13957737.26645  10866573.45461
  20449541.751   -18199295.377 7 -14052603.76023
  23077392.5324   -2391892.83246  -1775193.90461
  20833569.017    -1559301.986 6  -1191523.86023
  21868684.243   -12824799.565 6  -9832851.75921
 91  4  9 22 52 14.9970000  0  5G18G 2G11G19G 6
  23397487.564    13999550.701 5  10899155.07821
  20444626.649   -18225125.480 7 -14072731.07124
  23081934.3994   -2368021.78746  -1756593.11061
  20834922.642    -1552197.027 6  -1185987.55223
  21860253.321   -12869097.424 6  -9867369.49521
 91  4  9 22 52 29.9970000  0  5G18G 2G11G19G 6
  23405446.9854   14041379.68645  10931748.85061
  20439722.821   -18250895.996 7 -14092811.94923
  23086497.3604   -2344046.93346  -1737911.44161
  20836286.860    -1545027.760 6  -1180401.13923
  21851824.087   -12913393.699 6  -9901885.99221
 91  4  9 22 52 44.9970000  0  5G18G 2G11G19G 6
  23413407.9704   14083216.22545  10964348.51961
  20434828.7434  -18276614.45847 -14112852.26563
  23091079.4074   -2319976.12646  -1719154.99261
  20837663.774    -1537801.493 6  -1174770.30523
  21843394.243   -12957695.695 6  -9936406.94421
 91  4  9 22 52 59.9970000  0  5G18G 2G11G19G 6
  23421372.024    14125063.172 5  10996956.27821
  20429945.267   -18302278.163 7 -14132849.91823
  23095676.8454   -2295806.82546  -1700321.80461
  20839046.9314   -1530515.03746  -1169092.56862
  21834962.415   -13002000.423 6  -9970930.03121
 91  4  9 22 53 14.9970000  0  5G18G 2G11G19G 6
  23429335.782    14166924.416 5  11029575.16921
  20425072.9154  -18327882.98747 -14152801.68864
  23100296.5324   -2271535.01546  -1681408.73961
  20840449.384    -1523164.123 6  -1163364.61423
  21826531.595   -13046303.447 6 -10005451.79021
 91  4  9 22 53 29.9970000  0  5G18G 2G11G19G 6
  23437306.165    14208798.007 5  11062203.72621
  20420211.3924  -18353430.75447 -14172709.00164
  23104935.1814   -2247163.01546  -1662417.60361
  20841856.454    -1515750.878 6  -1157588.08423
  21818100.478   -13090606.627 6 -10039973.66921
 91  4  9 22 53 44.9970000  0  5G18G 2G11G19G 6
  23445274.860    14250673.627 5  11094833.84621
  20415358.3684  -18378931.40347 -14192579.59463
  23109587.0874   -2222701.00146  -1643356.32861
  20843280.220    -1508285.009 6  -1151770.55123
  21809670.251   -13134919.766 6 -10074503.31321
 91  4  9 22 53 59.9970000  0  5G18G 2G11G19G 6
  23453244.0644   14292557.25845  11127470.18061
  20410515.4934  -18404378.79747 -14212408.69364
  23114261.6424   -2198142.97346  -1624220.22761
  20844708.5954   -1500760.04046  -1145906.96363
  21801234.728   -13179236.470 6 -10109035.72721
 91  4  9 22 54 14.9970000  0  5G18G 2G11G19G 6
  23461215.884    14334446.958 5  11160111.26621
  20405682.9234  -18429774.68547 -14232197.65964
  23118953.6264   -2173490.76046  -1605010.74261
  20846154.3064   -1493177.62146  -1139998.61663
  21792802.321   -13223558.107 6 -10143571.99521
 91  4  9 22 54 29.9970000  0  5G18G 2G11G19G 6
  23469187.8374   14376342.15545  11192756.63361
  20400860.4394  -18455119.22747 -14251946.61563
  23123662.9464   -2148744.89146  -1585728.27661
  20847608.1814   -1485537.88146  -1134045.60463
  21784367.181   -13267884.869 6 -10178112.25321
 91  4  9 22 54 44.9970000  0  5G18G 2G11G19G 6
  23477161.782    14418242.474 5  11225405.99021
  20396047.5014  -18480412.59147 -14271655.69264
  23128387.564    -2123905.806 6  -1566373.17121
  20849072.8144   -1477840.90346  -1128047.98663
  21775930.009   -13312216.732 6 -10212656.48321
 91  4  9 22 54 59.9970000  0  5G18G 2G11G19G 6
  23485138.228    14460158.021 5  11258067.22021
  20391246.5484  -18505644.59047 -14291316.95464
  23133136.0874   -2098963.53246  -1546937.66861
  20850548.7514   -1470076.47846  -1121997.81663
  21767495.243   -13356543.250 6 -10247196.55221
 91  4  9 22 55 14.9970000  0  5G18G 2G11G19G 6
  23493117.040    14502085.064 5  11290737.36721
  20386455.9854  -18530818.46247 -14310932.92264
  23137899.2984   -2073921.86846  -1527424.71161
  20852040.3374   -1462247.89746  -1115897.65263
  21759061.462   -13400867.744 6 -10281735.04621
 91  4  9 22 55 29.9970000  0  5G18G 2G11G19G 6
  23501100.7824   14544022.95545  11323415.99161
  20381675.9854  -18555934.66047 -14330503.94664
  23142683.712    -2048781.382 6  -1507834.74921
  20853542.5404   -1454355.28646  -1109747.59663
  21750626.689   -13445190.315 6 -10316272.03921
 91  4  9 22 55 44.9970000  0  5G18G 2G11G19G 6
  23509081.290    14585976.931 5  11356107.16721
  20376908.7354  -18580988.20847 -14350026.15464
  23147489.3064   -2023537.02746  -1488163.85961
  20855058.3604   -1446393.06246  -1103543.29663
  21742193.290   -13489505.620 6 -10350803.37221
 91  4  9 22 55 59.9970000  0  5G18G 2G11G19G 6
  23517067.3374   14627939.05045  11388804.65561
  20372150.8844  -18605986.39347 -14369505.22264
  23152311.540    -1998196.496 6  -1468418.01221
  20856583.743    -1438368.601 6  -1097290.50023
  21733760.6344  -13533820.77646 -10385334.58561
 91  4  9 22 56 14.9970000  0  5G18G 2G11G19G 6
  23525053.6424   14669916.97545  11421514.48461
  20367405.7984  -18630921.08147 -14388934.81264
  23157153.4234   -1972752.06246  -1448591.21461
  20858124.8454   -1430273.90146  -1090982.97263
  21725327.6894  -13578127.74546 -10419859.42961
 91  4  9 22 56 29.9970000  0  5G18G 2G11G19G 6
  23533046.4394   14711904.95245  11454232.14961
  20362672.3764  -18655798.16647 -14408319.52164
  23162013.251    -1947209.886 6  -1428688.24621
  20859675.9234   -1422114.80246  -1084625.26363
  21716897.3144  -13622432.00546 -10454382.16361
 91  4  9 22 56 44.9970000  0  5G18G 2G11G19G 6
  23541039.5094   14753905.21745  11486959.39661
  20357949.1494  -18680615.36047 -14427657.55364
  23166893.2674   -1921567.80446  -1408707.43561
  20861243.0244   -1413888.74946  -1078215.38463
  21708468.2824  -13666731.15746 -10488900.91461
 91  4  9 22 56 59.9970000  0  5G18G 2G11G19G 6
  23549034.673    14795917.381 5  11519695.88621
  20353238.3294  -18705372.57847 -14446948.85464
  23171791.0644   -1895825.96346  -1388648.88761
  20862821.9314   -1405595.39746  -1071753.06463
  21700040.134   -13711024.971 6 -10523415.50021
 91  4  9 22 57 14.9970000  0  5G18G 2G11G19G 6
  23557029.282    14837947.670 4  11552446.53021
  20348540.2984  -18730063.51647 -14466188.50864
  23176709.7434   -1869978.34046  -1368507.90361
  20864413.6734   -1397228.38946  -1065233.35063
  21691613.1344  -13755306.81846 -10557920.77661
 91  4  9 22 57 29.9970000  0  5G18G 2G11G19G 6
  23565030.923    14879982.442 5  11585200.61921
  20343851.5794  -18754701.56747 -14485386.95364
  23181646.6034   -1844038.51946  -1348295.09361
  20866014.7824   -1388800.87446  -1058666.48463
  21683186.142   -13799589.968 6 -10592427.05321
 91  4  9 22 57 44.9970000  0  5G18G 2G11G19G 6
  23573032.712    14922034.831 5  11617968.46521
  20339175.0644  -18779272.84047 -14504533.35764
  23186603.118    -1817993.088 6  -1327999.96721
  20867635.3994   -1380299.03046  -1052041.70263
  21674761.5714  -13843860.43646 -10626923.45561
 91  4  9 22 57 59.9970000  0  5G18G 2G11G19G 6
  23581035.9074   14964095.02144  11650742.38861
  20334510.2674  -18803787.55847 -14523635.69664
  23191576.298    -1791852.408 6  -1307630.63921
  20869264.5404   -1371732.84346  -1045366.78263
  21666339.1424  -13888128.08246 -10661417.66061
 91  4  9 22 58 14.9970000  0  5G18G 2G11G19G 6
  23589042.384    15006168.834 4  11683526.91821
  20329857.4314  -18828239.47247 -14542689.09964
  23196572.548    -1765610.523 6  -1287182.44321
  20870908.3214   -1363096.01246  -1038636.81663
  21657916.4464  -13932386.62246 -10695904.77061
 91  4  9 22 58 29.9970000  0  5G18G 2G11G19G 6
  23597050.6814   15048250.08345  11716317.25261
  20325215.0564  -18852634.39847 -14561698.09664
  23201581.4314   -1739273.54946  -1266660.15961
  20872561.2044   -1354394.28146  -1031856.28063
  21649493.5714  -13976641.55746 -10730389.07161
 91  4  9 22 58 44.9970000  0  5G18G 2G11G19G 6
  23605059.7514   15090344.04545  11749117.47861
  20320584.3454  -18876967.05847 -14580658.56664
  23206612.649    -1712836.397 6  -1246059.80721
  20874235.2904   -1345622.33946  -1025021.03563
  21641074.6104  -14020887.57846 -10764866.42261
 91  4  9 22 58 59.9970000  0  5G18G 2G11G19G 6
  23613071.8064   15132445.20445  11781923.34161
  20315965.2984  -18901242.81347 -14599574.70464
  23211662.243    -1686304.706 6  -1225385.79621
  20875915.4314   -1336785.30146  -1018135.06563
  21632655.2044  -14065129.70546 -10799340.74161
 91  4  9 22 59 14.9970000  0  5G18G 2G11G19G 6
  23621087.3294   15174552.05945  11814733.59961
  20311355.9154  -18925462.82147 -14618447.40064
  23216727.8924   -1659679.87546  -1204639.21961
  20877609.0714   -1327884.12246  -1011199.11663
  21624236.7434  -14109368.91546 -10833812.78461
 91  4  9 22 59 29.9970000  0  4G 2G11G19G 6
  20306757.1574  -18949628.74847 -14637277.95464
  23221813.7354   -1632963.99846  -1183821.69461
  20879312.4854   -1318920.53446  -1004214.53263
  21615818.2284  -14153606.87246 -10868283.85861
 91  4  9 22 59 44.9970000  0  4G 2G11G19G 6
  20302167.8454  -18973746.74547 -14656071.15864
  23226913.4464   -1606163.38346  -1162938.12661
  20881032.0404   -1309900.45646   -997185.93763
  21607400.009   -14197849.406 6 -10902758.50121
 91  4  9 22 59 59.9970000  0  4G 2G11G19G 6
  20297588.9314  -18997813.02047 -14674824.06364
  23232030.1104   -1579274.52446  -1141985.80561
  20882758.6894   -1300820.04046   -990110.32463
  21598980.0404  -14242092.49646 -10937233.57161
 91  4  9 23  0 14.9970000  0  4G 2G11G19G 6
  20293019.1424  -19021822.73547 -14693532.89264
  23237162.7514   -1552292.79846  -1120961.10961
  20884499.6424   -1291674.26746   -982983.78063
  21590561.767   -14286330.972 6 -10971705.05521
 91  4  9 23  0 29.9970000  0  4G 2G11G19G 6
  20288462.3994  -19045772.74647 -14712195.20664
  23242314.9154   -1525215.28046  -1099861.78561
  20886253.0484   -1282459.90146   -975803.79263
  21582145.0954  -14330561.61946 -11006170.43761
 91  4  9 23  0 44.9970000  0  4G 2G11G19G 6
  20283914.8684  -19069667.13647 -14730814.17264
  23247487.009    -1498046.413 6  -1078691.26421
  20888019.0094   -1273180.88846   -968573.43063
  21573728.5094  -14374788.39646 -11040632.79761
 91  4  9 23  0 59.9970000  0  4G 2G11G19G 6
  20279378.1964  -19093510.15647 -14749393.11464
  23252673.1734   -1470790.65046  -1057453.03461
  20889794.1104   -1263841.38346   -961295.92963
  21565312.0564  -14419015.23446 -11075095.20361
 91  4  9 23  1 14.9970000  0  4G 2G11G19G 6
  20274851.3684  -19117294.42447 -14767926.27664
  23257877.8844   -1443440.92146  -1036141.59061
  20891586.9704   -1254433.83246   -953965.40263
  21556897.8684  -14463234.57346 -11109551.77561
 91  4  9 23  1 29.9970000  0  4G 2G11G19G 6
  20270335.3454  -19141024.01547 -14786416.83264
  23263098.064    -1416001.536 6  -1014760.26421
  20893388.5874   -1244962.25246   -946584.98863
  21548483.485   -14507450.229 6 -11144005.48021
 91  4  9 23  1 44.9970000  0  4G 2G11G19G 6
  20265831.7284  -19164692.78347 -14804859.99364
  23268337.759    -1388466.642 6   -993304.53021
  20895206.2594   -1235420.30746   -939149.74363
  21540070.681   -14551655.894 6 -11178451.38721
 91  4  9 23  1 59.9970000  0  4G 2G11G19G 6
  20261337.4704  -19188307.55747 -14823261.08564
  23273595.485    -1360843.263 6   -971779.84121
  20897031.0324   -1225814.72846   -931664.90763
  21531660.267   -14595858.239 6 -11212894.72021
 91  4  9 23  2 14.9970000  0  4G 2G11G19G 6
  20256855.2284  -19211863.63147 -14841616.43964
  23278868.556    -1333127.062 6   -950182.82421
  20898873.8924   -1216140.63346   -924126.69363
  21523250.4854  -14640052.44146 -11247331.70161
 91  4  9 23  2 29.9970000  0  4G 2G11G19G 6
  20252381.6424  -19235370.06147 -14859933.10864
  23284160.345    -1305327.369 6   -928520.74521
  20900725.3144   -1206407.02146   -916542.09262
  21514840.024   -14684247.173 6 -11281769.10521
 91  4  9 23  2 44.9970000  0  4G 2G11G19G 6
  20247919.8994  -19258816.58947 -14878203.09864
  23289468.712    -1277434.006 6   -906785.68421
  20902591.2124   -1196603.52546   -908903.04163
  21506431.196   -14728432.036 6 -11316198.81621
 91  4  9 23  2 59.9970000  0  4G 2G11G19G 6
  20243469.1264  -19282207.96447 -14896430.11264
  23294792.8994   -1249452.03046   -884981.57061
  20904467.0714   -1186734.70946   -901213.08363
  21498025.868   -14772611.545 6 -11350624.35421
 91  4  9 23  3 14.9970000  0  4G 2G11G19G 6
  20239028.8994  -19305543.20247 -14914613.38664
  23300133.767    -1221380.914 6   -863107.99521
  20906361.0404   -1176799.59346   -893471.46762
  21489619.759   -14816784.616 6 -11385044.87522
 91  4  9 23  3 29.9970000  0  4G 2G11G19G 6
  20234599.0174  -19328822.46547 -14932753.04264
  23305492.165    -1193221.146 5   -841165.33821
  20908261.9784   -1166798.25546   -885678.25362
  21481215.181   -14860951.210 6 -11419460.35421
 91  4  9 23  3 44.9970000  0  4G 2G11G19G 6
  20230180.0244  -19352043.08247 -14950847.00064
  23310868.454    -1164970.231 5   -819151.66421
  20910180.2204   -1156727.96346   -877831.30562
  21472812.1034  -14905108.36846 -11453868.47761
 91  4  9 23  3 59.9970000  0  4G 2G11G19G 6
  20225771.681   -19375205.739 7 -14968895.79624
  23316262.1494   -1136629.03945   -797067.64261
  20912108.2744   -1146589.24946   -869931.04663
  21464410.571   -14949256.548 6 -11488269.60121
 91  4  9 23  4 14.9970000  0  4G 2G11G19G 6
  20221374.4854  -19398316.78347 -14986904.36864
  23321672.220    -1108204.001 6   -774918.27621
  20914050.8844   -1136388.14346   -861982.16862
  21456009.735   -14993401.746 6 -11522668.40521
 91  4  9 23  4 29.9970000  0  4G 2G11G19G 6
  20216989.3684  -19421363.96147 -15004863.18164
  23327098.970    -1079683.312 5   -752694.39321
  20916004.5174   -1126112.34546   -853975.08962
  21447612.509   -15037531.621 6 -11557055.27121
 91  4  9 23  4 44.9970000  0  4G 2G11G19G 6
  20212613.4394  -19444352.59347 -15022776.37064
  23332541.634    -1051072.567 5   -730400.32421
  20917974.9544   -1115767.17946   -845913.95663
  21439215.509   -15081651.316 6 -11591434.20521
 91  4  9 23  4 59.9970000  0  4G 2G11G19G 6
  20208249.7514  -19467289.62147 -15040649.34864
  23338001.399    -1022378.983 5   -708041.70021
  20919953.9934   -1105359.48146   -837804.09862
  21430822.353   -15125767.506 6 -11625810.40621
 91  4  9 23  5 14.9970000  0  4G 2G11G19G 6
  20203895.5244  -19490170.12347 -15058478.28464
  23343481.4624    -993597.99145   -685614.97161
  20921949.2904   -1094884.18746   -829641.56562
  21422427.899   -15169875.111 6 -11660179.92022
 91  4  9 23  5 29.9970000  0  4G 2G11G19G 6
  20199550.6814  -19513001.06547 -15076268.60064
  23348971.774     -964736.843 5   -663125.78121
  20923951.1184   -1084348.24246   -821431.77462
  21414035.165   -15213981.068 6 -11694548.14821
 91  4  9 23  5 44.9970000  0  4G 2G11G19G 6
  20195216.6654  -19535774.83847 -15094014.37164
  23354482.134     -935788.190 6   -640568.40821
  20925973.1734   -1073743.64846   -813168.48862
  21405643.462   -15258077.152 6 -11728908.67822
 91  4  9 23  5 59.9970000  0  4G 2G11G19G 6
  20190891.1264  -19558504.85347 -15111726.04064
  23360004.6964    -906765.68545   -617953.48261
  20927998.9314   -1063083.85446   -804862.19062
  21397251.634   -15302176.782 6 -11763271.97722
 91  4  9 23  6 14.9970000  0  4G 2G11G19G 6
  20186575.9394  -19581184.25547 -15129398.27564
  23365538.7284    -877662.73945   -595275.87461
  20930039.6344   -1052361.96846   -796507.51162
  21388861.329   -15346272.784 6 -11797632.44622
 91  4  9 23  6 29.9970000  0  4G 2G11G19G 6
  20182268.8064  -19603816.86947 -15147034.04664
  23371094.1734    -848483.56745   -572538.86561
  20932089.3144   -1041581.73146   -788107.36562
  21380469.407   -15390368.961 6 -11831993.05022
 91  4  9 23  6 44.9970000  0  4G 2G11G19G 6
  20177970.3374  -19626403.78447 -15164634.21064
  23376661.376     -819229.357 6   -549743.40421
  20934153.2204   -1030743.93246   -779662.36062
  21372077.415   -15434465.990 6 -11866354.31322
 91  4  9 23  6 59.9970000  0  4G 2G11G19G 6
  20173682.2354  -19648939.60847 -15182194.56064
  23382243.4784    -789895.02546   -526885.51261
  20936229.2824   -1019843.12146   -771168.26462
  21363686.993   -15478558.386 6 -11900711.97522
 91  4  9 23  7 14.9970000  0  4G 2G11G19G 6
  20169402.9234  -19671426.13747 -15199716.50264
  23387838.532     -760482.622 6   -503966.75421
  20938314.3214   -1008881.09246   -762626.46162
  21355297.173   -15522647.656 6 -11935067.19522
 91  4  9 23  7 29.9970000  0  4G 2G11G19G 6
  20165133.4394  -19693863.16147 -15217199.87164
  23393453.4394    -730992.14445   -480987.18861
  20940409.6344    -997857.46546   -754036.66162
  21346908.2514  -15566733.36146 -11969419.63562
 91  4  9 23  7 44.9970000  0  4G 2G11G19G 6
  20160875.1494  -19716239.78847 -15234636.17264
  23399080.884     -701413.082 5   -457938.58221
  20942524.4074    -986761.34946   -745390.37862
  21338521.876   -15610804.380 6 -12003760.63522
 91  4  9 23  7 59.9970000  0  4G 2G11G19G 6
  20156627.407   -19738562.735 7 -15252030.64824
  23404725.7044    -671752.50145   -434826.47361
  20944647.8994    -975599.28146   -736692.70362
  21330136.0404  -15654867.25246 -12038095.28162
 91  4  9 23  8 14.9970000  0  4G 2G11G19G 6
  20152389.9854  -19760831.65147 -15269383.02164
  23410384.649     -642010.156 5   -411650.63621
  20946784.1894    -964370.63746   -727943.14962
  21321752.759   -15698921.367 6 -12072423.10622
 91  4  9 23  8 29.9970000  0  4G 2G11G19G 6
  20148162.8064  -19783045.13247 -15286692.19964
  23416060.282     -612184.965 5   -388410.25121
  20948932.7434    -953074.00246   -719140.62062
  21313371.493   -15742965.158 6 -12106742.88722
 91  4  9 23  8 44.9970000  0  4G 2G11G19G 6
  20143945.259   -19805209.089 7 -15303962.78824
  23421750.556     -582283.261 5   -365110.23921
  20951096.0714    -941715.40346   -710289.79862
  21304991.860   -15787004.206 6 -12141058.97822
 91  4  9 23  8 59.9970000  0  4G 2G11G19G 6
  20139737.540   -19827319.929 7 -15321191.99024
  23427458.267     -552301.513 5   -341747.85921
  20953267.735     -930290.838 6   -701387.58522
  21296612.259   -15831034.614 6 -12175368.32722
 91  4  9 23  9 14.9970000  0  4G 2G11G19G 6
  20135540.353   -19849378.531 7 -15338380.48324
  23433176.1264    -522241.03945   -318324.14661
  20955456.5094    -918801.24746   -692434.69262
  21288235.493   -15875057.215 6 -12209671.59822
 91  4  9 23  9 29.9970000  0  4G 2G11G19G 6
  20131354.282   -19871378.980 7 -15355523.66524
  23438912.7434    -492096.17845   -294834.65061
  20957657.0714    -907240.58246   -683426.42262
  21279859.876   -15919065.911 6 -12243964.03322
 91  4  9 23  9 44.9970000  0  4G 2G11G19G 6
  20127181.7354  -19893299.23247 -15372604.35264
  23444670.470     -461845.142 5   -271262.43621
  20959874.2044    -895586.61946   -674345.45462
  21271494.118   -15963038.338 6 -12278228.20522
 91  4  9 23  9 59.9970000  0  4G 2G11G19G 6
  20123026.4934  -19915133.99547 -15389618.42764
  23450447.6034    -431483.03045   -247603.66261
  20962108.689     -883834.080 6   -665187.66822
  21263133.6734  -16006969.03246 -12312459.85662
 91  4  9 23 10 14.9970000  0  4G 2G11G19G 6
  20118884.5094  -19936907.40247 -15406584.69264
  23456242.540     -401034.206 5   -223877.32221
  20964362.2124    -872006.91646   -655971.73862
  21254776.6494  -16050881.74346 -12346677.49962
 91  4  9 23 10 29.9970000  0  4G 2G11G19G 6
  20114750.509   -19958623.802 7 -15423506.53824
  23462052.204     -370503.187 5   -200086.94121
  20966624.9784    -860109.31446   -646700.91862
  21246423.743   -16094780.622 6 -12380884.36622
 91  4  9 23 10 44.9970000  0  4G 2G11G19G 6
  20110629.6814  -19980285.03647 -15440385.39464
  23467875.446     -339891.989 5   -176234.08421
  20968902.274     -848143.199 6   -637376.71922
  21238071.345   -16138667.303 6 -12415081.72422
 91  4  9 23 10 59.9970000  0  4G 2G11G19G 6
  20106518.0714  -20001891.29047 -15457221.40964
  23473716.2744    -309201.04945   -152319.07861
  20971189.2594    -836108.38746   -627998.98462
  21229723.720   -16182541.674 6 -12449269.48821
 91  4  9 23 11 14.9970000  0  4G 2G11G19G 6
  20102416.3534  -20023442.09947 -15474014.22164
  23479571.4154    -278430.48345   -128342.04761
  20973496.103     -824004.461 6   -618567.39522
  21221375.274   -16226403.204 6 -12483447.25122
 91  4  9 23 11 29.9970000  0  4G 2G11G19G 6
  20098324.0714  -20044943.74247 -15490768.72264
  23485440.907     -247586.864 5   -104308.07021
  20975812.6104    -811837.72846   -609086.86462
  21213030.899   -16270257.928 6 -12517619.71122
 91  4  9 23 11 44.9970000  0  4G 2G11G19G 6
  20094242.071   -20066399.416 7 -15507487.40324
  23491324.2284    -216673.57445    -80219.82361
  20978137.579     -799611.173 6   -599559.72123
  21204687.142   -16314108.843 6 -12551789.19722
 91  4  9 23 11 59.9970000  0  4G 2G11G19G 6
  20090170.1654  -20087798.81147 -15524162.22764
  23497222.032     -185680.480 5    -56069.36721
  20980475.478     -787314.284 6   -589977.76722
  21196344.603   -16357945.282 6 -12585947.40922
 91  4  9 23 12 14.9970000  0  4G 2G11G19G 6
  20086107.4314  -20109148.10147 -15540798.01364
  23503133.3374    -154614.02445    -31861.75161
  20982830.478     -774953.114 6   -580345.73522
  21188003.306   -16401773.104 6 -12620098.90322
 91  4  9 23 12 29.9970000  0  4G 2G11G19G 6
  20082054.4624  -20130447.16347 -15557394.65564
  23509059.5794    -123474.31845     -7597.06261
  20985193.642     -762527.574 6   -570663.53922
  21179665.993   -16445592.049 6 -12654243.48922
 91  4  9 23 12 44.9970000  0  4G 2G11G19G 6
  20078011.3844  -20151691.00747 -15573948.27363
  23515000.220      -92256.824 5     16728.24721
  20987572.110     -750032.584 6   -560927.22823
  21171331.353   -16489396.969 6 -12688377.13622
 91  4  9 23 12 59.9970000  0  4G 2G11G19G 6
  20073980.399   -20172876.547 7 -15590456.46024
  23520955.767      -60958.718 5     41116.35521
  20989965.8294    -737464.92246   -551134.28662
  21162998.189   -16533184.415 6 -12722497.17222
 91  4  9 23 13 14.9970000  0  4G 2G11G19G 6
  20069960.142   -20194005.567 7 -15606920.60624
  23526927.4704     -29582.00645     65565.74261
  20992367.454     -724826.325 6   -541286.07222
  21154668.540   -16576956.023 6 -12756604.86622
 91  4  9 23 13 29.9970000  0  4G 2G11G19G 6
  20065947.2044  -20215086.27547 -15623347.10564
  23532910.829        1864.875 5     90069.77621
  20994783.767     -712124.795 6   -531388.82322
  21146341.032   -16620719.638 6 -12790706.33622
 91  4  9 23 13 44.9970000  0  4G 2G11G19G 6
  20061947.9854  -20236106.69047 -15639726.62463
  23538910.540       33393.498 5    114637.53121
  20997217.314     -699348.377 6   -521433.20922
  21138015.860   -16664463.236 6 -12824792.20222
 91  4  9 23 13 59.9970000  0  4G 2G11G19G 6
  20057958.704   -20257069.314 7 -15656061.10724
  23544925.8534      65001.05445    139266.78861
  20999661.689     -686499.505 6   -511421.15022
  21129695.134   -16708189.079 6 -12858864.23522
 91  4  9 23 14 14.9970000  0  4G 2G11G19G 6
  20053979.7354  -20277979.86347 -15672355.01364
  23550954.485       96681.661 5    163952.94721
  21002119.587     -673583.751 6   -501356.97122
  21121376.118   -16751902.428 6 -12892926.53022
 91  4  9 23 14 29.9970000  0  4G 2G11G19G 6
  20050012.1104  -20298829.16947 -15688601.19664
  23556998.1814     128444.17145    188702.94061
  21004591.228     -660591.826 6   -491233.44022
  21113062.337   -16795593.971 6 -12926971.83222
 91  4  9 23 14 44.9970000  0  4G 2G11G19G 6
  20046054.6424  -20319625.63147 -15704806.20564
  23563057.564      160279.823 5    213509.92921
  21007078.196     -647532.060 6   -481057.05122
  21104750.009   -16839271.889 6 -12961006.51822
 91  4  9 23 14 59.9970000  0  4G 2G11G19G 6
  20042107.2124  -20340369.99547 -15720970.61664
  23569127.7434     192187.67845    238373.17861
  21009575.415     -634405.005 6   -470828.22622
  21096442.056   -16882936.781 6 -12995031.05722
 91  4  9 23 15 14.9970000  0  5G15G 2G11G19G 6
  23327649.9464         -0.36555
  20038169.001   -20361062.822 7 -15737094.87324
  23575213.337      224166.914 5    263292.05121
  21012086.907     -621211.278 6   -460547.44822
  21088134.267   -16926588.844 6 -13029045.59922
 91  4  9 23 15 29.9970000  0  5G15G 2G11G19G 6
  23319796.8454     -41262.15945
  20034242.0484  -20381696.78347 -15753173.25764
  23581313.439      256224.644 5    288272.07521
  21014610.579     -607943.286 6   -450208.80422
  21079832.095   -16970220.453 6 -13063044.20022
 91  4  9 23 15 44.9970000  0  4G15G 2G19G 6
  23311957.2044     -82451.67645
  20030327.1964  -20402273.97447 -15769207.40564
  21017150.720     -594603.123 6   -439813.91822
  21071532.774   -17013833.480 6 -13097028.32822
 91  4  9 23 15 59.9970000  0  4G15G 2G19G 6
  23304134.0404    -123576.20245
  20026420.485   -20422801.989 7 -15785203.23624
  21019700.228     -581198.365 6   -429368.70122
  21063236.423   -17057435.384 6 -13131003.78422
 91  4  9 23 16 14.9970000  0  4G15G 2G19G 6
  23296318.118     -164630.728 5        -0.33731
  20022523.985   -20443276.393 7 -15801157.29124
  21022264.1654    -567724.52246   -418869.64462
  21054940.790   -17101021.434 6 -13164966.88622
 91  4  9 23 16 29.9970000  0  4G15G 2G19G 6
  23288521.0794    -205620.89245    -31940.58161
  20018637.306   -20463703.196 7 -15817074.25624
  21024840.048     -554187.516 6   -408321.37822
  21046649.040   -17144597.418 6 -13198922.14022
 91  4  9 23 16 44.9970000  0  4G15G 2G19G 6
  23280732.368     -246542.658 5    -63827.53521
  20014760.204   -20484078.960 8 -15832951.45024
  21027430.079     -540583.603 6   -397720.97822
  21038359.415   -17188159.561 6 -13232866.61722
 91  4  9 23 16 59.9970000  0  4G15G 2G19G 6
  23272955.720     -287400.955 5    -95665.01021
  20010891.712   -20504409.129 8 -15848793.11824
  21030028.103     -526918.201 6   -387072.66322
  21030071.204   -17231712.941 6 -13266804.26422
 91  4  9 23 17 14.9970000  0  4G15G 2G19G 6
  23265192.8924    -328195.87745   -127453.11861
  20007030.954   -20524693.823 8 -15864599.35024
  21032641.837     -513191.438 6   -376376.53522
  21021785.517   -17275257.603 6 -13300735.11822
 91  4  9 23 17 29.9970000  0  4G15G 2G19G 6
  23257442.118     -368933.051 5   -159196.21521
  20003179.243   -20544939.300 8 -15880375.02524
  21035264.157     -499409.333 6   -365637.28622
  21013498.876   -17318799.462 6 -13334663.78222
 91  4  9 23 17 44.9970000  0  4G15G 2G19G 6
  23249699.8924    -409611.70545   -190893.71461
  19999333.439   -20565145.344 8 -15896119.97024
  21037898.439     -485571.649 6   -354854.72422
  21005212.892   -17362338.118 6 -13368589.95422
 91  4  9 23 17 59.9970000  0  4G15G 2G19G 6
  23241969.2124    -450230.35745   -222544.48261
  19995496.314   -20585311.006 8 -15911833.44824
  21040540.798     -471677.384 6   -344028.07522
  20996929.501   -17405872.490 6 -13402512.78422
 91  4  9 23 18 14.9970000  0  4G15G 2G19G 6
  23234251.571     -490789.601 5   -254148.91221
  19991666.376   -20605436.911 8 -15927515.95024
  21043196.985     -457727.046 6   -333157.72722
  20988645.564   -17449402.791 6 -13436432.44722
 91  4  9 23 18 29.9960000  0  4G15G 2G19G 6
  23226545.0124    -531285.34745   -285703.90861
  19987844.520   -20625521.044 8 -15943165.90124
  21045860.246     -443720.787 6   -322243.80122
  20980364.223   -17492925.169 6 -13470345.93322
 91  4  9 23 18 44.9960000  0  4G15G 2G19G 6
  23218849.363     -571720.950 5   -317212.01821
  19984030.606   -20645564.445 7 -15958784.11424
  21048539.707     -429655.131 6   -311283.59722
  20972083.309   -17536443.595 6 -13504256.34022
 91  4  9 23 18 59.9960000  0  4G15G 2G19G 6
  23211168.9654    -612100.27345   -348676.27361
  19980223.715   -20665572.599 7 -15974374.85924
  21051223.379     -415537.849 6   -300283.16622
  20963801.6294  -17579961.90046 -13538166.65462
 91  4  9 23 19 14.9960000  0  4G15G 2G19G 6
  23203496.3324    -652425.99645   -380098.75461
  19976421.590   -20685548.823 7 -15989940.72824
  21053920.559     -401372.155 6   -289245.01022
  20955519.231   -17623482.943 6 -13572079.10122
 91  4  9 23 19 29.9960000  0  4G15G 2G19G 6
  23195830.7544    -692698.79545   -411479.99061
  19972625.426   -20705494.158 7 -16005482.52424
  21056626.598     -387158.760 6   -278169.69122
  20947236.973   -17667007.384 6 -13605994.20122
 91  4  9 23 19 44.9960000  0  4G15G 2G19G 6
  23188181.746     -732909.088 5   -442812.54421
  19968837.973   -20725399.389 7 -16020993.07124
  21059341.566     -372888.514 6   -267050.06922
  20938955.504   -17710525.978 6 -13639904.74522
 91  4  9 23 19 59.9960000  0  4G15G 2G19G 6
  23180539.145     -773061.010 5   -474099.61921
  19965057.402   -20745269.094 7 -16036475.93624
  21062065.777     -358565.856 6   -255889.60822
  20930675.434   -17754042.991 6 -13673814.05622
 91  4  9 23 20 14.9960000  0  4G15G 2G19G 6
  23172906.1764    -813157.37745   -505343.38361
  19961282.223   -20765106.478 7 -16051933.61624
  21064802.457     -344193.818 6   -244690.66322
  20922393.723   -17797561.463 7 -13707724.50922
 91  4  9 23 20 29.9960000  0  4G15G 2G19G 6
  23165289.1844    -853186.03345   -536534.39361
  19957515.731   -20784899.898 8 -16067357.03724
  21067549.066     -329760.554 6   -233444.01322
  20914114.254   -17841069.217 6 -13741626.61122
 91  4  9 23 20 44.9960000  0  4G15G 2G19G 6
  23157684.465     -893159.853 5   -567682.68821
  19953755.113   -20804662.982 7 -16082756.82024
  21070304.387     -315279.824 6   -222160.38022
  20905834.816   -17884579.742 6 -13775530.87022
 91  4  9 23 20 59.9960000  0  4G15G 2G19G 6
  23150089.3094    -933071.60445   -598782.63761
  19950000.746   -20824388.377 8 -16098127.23224
  21073069.090     -300744.294 6   -210834.03622
  20897555.106   -17928085.552 6 -13809431.44722
 91  4  9 23 21 14.9960000  0  4G15G 2G19G 6
  23142502.527     -972931.068 5   -629841.81121
  19946252.731   -20844086.386 8 -16113476.30424
  21075844.051     -286164.298 6   -199473.05322
  20889274.645   -17971596.703 6 -13843336.19322
 91  4  9 23 21 29.9960000  0  4G15G 2G19G 6
  23134930.996    -1012729.878 5   -660853.73121
  19942511.254   -20863749.459 7 -16128798.15824
  21078628.316     -271532.045 6   -188071.34322
  20880996.238   -18015105.349 6 -13877238.98922
 91  4  9 23 21 44.9960000  0  4G15G 2G19G 6
  23127367.801    -1052467.730 5   -691818.14221
  19938774.981   -20883377.700 7 -16144092.86524
  21081425.488     -256847.208 6   -176628.65922
  20872717.348   -18058611.103 6 -13911139.53122
 91  4  9 23 21 59.9960000  0  4G15G 2G19G 6
  23119815.973    -1092147.114 5   -722737.01721
  19935046.402   -20902973.612 8 -16159362.38524
  21084228.652     -242112.667 6   -165147.24222
  20864437.051   -18102116.365 6 -13945039.69022
 91  4  9 23 22 14.9960000  0  4G15G 2G19G 6
  23112277.184    -1131768.562 5   -753610.72121
  19931324.293   -20922538.317 7 -16174607.58424
  21087041.863     -227329.367 6   -153627.84022
  20856160.395   -18145622.064 6 -13978940.19722
 91  4  9 23 22 29.9960000  0  4G15G 2G19G 6
  23104751.363    -1171327.783 5   -784435.96221
  19927607.129   -20942068.033 7 -16189825.52524
  21089862.402     -212493.426 6   -142067.40922
  20847880.1994  -18189124.18146 -14012837.90562
 91  4  9 23 22 44.9960000  0  4G15G 2G19G 6
  23097230.918    -1210828.369 5   -815215.50221
  19923896.809   -20961566.381 8 -16205019.02324
  21092697.137     -197608.329 6   -130468.68022
  20839604.676   -18232626.074 6 -14046735.44422
 91  4  9 23 22 59.9960000  0  4G15G 2G19G 6
  23089726.9884   -1250265.23545   -845945.39661
  19920194.207   -20981029.215 8 -16220184.84524
  21095539.504     -182669.859 6   -118828.36122
  20831325.418   -18276123.202 6 -14080629.26322
 91  4  9 23 23 14.9960000  0  4G15G 2G19G 6
  23082232.5354   -1289647.62145   -876632.84561
  19916494.160   -21000466.112 8 -16235330.46124
  21098391.941     -167687.553 6   -107153.89222
  20823048.2624  -18319624.94346 -14114526.68862
 91  4  9 23 23 29.9960000  0  4G15G 2G19G 6
  23074747.434    -1328972.551 5   -907275.52221
  19912801.504   -21019874.198 8 -16250453.62324
  21101248.481     -152658.642 6    -95443.10122
  20814769.215   -18363128.228 6 -14148425.30422
 91  4  9 23 23 44.9960000  0  4G15G 2G19G 6
  23067277.7314   -1368238.79745   -937872.48361
  19909113.590   -21039252.821 8 -16265553.83024
  21104120.012     -137582.130 6    -83695.22122
  20806490.090   -18406632.113 7 -14182324.39422
 91  4  9 23 23 59.9960000  0  4G15G 2G19G 6
  23059819.684    -1407445.024 5   -968422.66221
  19905431.543   -21058600.977 8 -16280630.29924
  21107000.137     -122457.147 6    -71909.57122
  20798213.3794  -18450135.29447 -14216222.93062
 91  4  9 23 24 14.9960000  0  4G15G 2G19G 6
  23052366.7704   -1446589.88445   -998925.00961
  19901756.129   -21077917.698 8 -16295682.26824
  21109884.363     -107282.717 6    -60085.38422
  20789934.785   -18493636.613 6 -14250120.02722
 91  4  9 23 24 29.9960000  0  4G15G 2G19G 6
  23044929.0434   -1485676.71445  -1029382.14761
  19898085.777   -21097207.014 8 -16310712.88724
  21112779.168      -92062.458 6    -48225.49922
  20781656.2074  -18537139.58246 -14284018.40262
 91  4  9 23 24 44.9960000  0  4G15G 2G19G 6
  23037502.2934   -1524699.23045  -1059789.18261
  19894420.566   -21116462.930 8 -16325717.48224
  21115688.574      -76790.818 6    -36325.56722
  20773378.816   -18580638.287 6 -14317913.45022
 91  4  9 23 24 59.9960000  0  4G15G 2G19G 6
  23030089.5514   -1563658.64145  -1090147.02461
  19890762.840   -21135687.322 8 -16340697.50924
  21118603.145      -61469.193 6    -24386.69222
  20765102.191   -18624134.014 6 -14351806.19422
 91  4  9 23 25 14.9960000  0  4G15G 2G19G 6
  23022685.1914   -1602566.70145  -1120464.85761
  19887108.660   -21154892.124 8 -16355662.27224
  21121527.324      -46109.336 6    -12418.01722
  20756823.231   -18667638.551 6 -14385705.78222
 91  4  9 23 25 29.9960000  0  4G15G 2G19G 6
  23015294.434    -1641416.005 5  -1150736.92521
  19883459.059   -21174070.355 8 -16370606.33024
  21124458.262      -30704.316 6      -414.16122
  20748542.910   -18711144.650 6 -14419606.59622
 91  4  9 23 25 44.9960000  0  4G15G 2G19G 6
  23007915.090    -1680198.438 5  -1180956.86721
  19879816.340   -21193214.377 8 -16385523.73224
  21127399.801      -15246.685 6     11630.69722
  20740266.004   -18754644.431 6 -14453502.47922
 91  4  9 23 25 59.9960000  0  4G15G 2G19G 6
  23000543.4574   -1718917.73245  -1211127.60761
  19876178.496   -21212328.364 8 -16400417.73224
  21130348.637         259.698 6     23713.53822
  20731987.566   -18798141.741 6 -14487396.44822
 91  4  9 23 26 14.9960000  0  4G15G 2G19G 6
  22993189.8954   -1757576.24945  -1241250.99361
  19872546.066   -21231414.927 8 -16415290.36224
  21133309.402       15812.238 6     35832.35122
  20723711.184   -18841638.949 7 -14521290.33222
 91  4  9 23 26 29.9960000  0  5G15G 2G13G19G 6
  22985847.3714   -1796164.64645  -1271319.75061
  19868922.160   -21250465.037 8 -16430134.58924
  22986059.0824         -0.12054
  21136279.793       31420.081 6     47994.25222
  20715437.0824  -18885126.90447 -14555177.01362
 91  4  9 23 26 44.9960000  0  5G15G 2G13G19G 6
  22978512.738    -1834680.091 5  -1301331.64421
  19865303.566   -21269476.304 8 -16444948.54124
  22971987.8954     -73945.82944
  21139262.699       47085.518 6     60201.03822
  20707163.090   -18928602.837 7 -14589054.31822
 91  4  9 23 26 59.9960000  0  5G15G 2G13G19G 6
  22971198.6134   -1873121.12845  -1331285.57461
  19861693.832   -21288447.775 8 -16459731.49224
  22957919.6914    -147875.34644
  21142251.6844      62809.65946     72453.56262
  20698892.1684  -18972065.48747 -14622921.27962
 91  4  9 23 27 14.9960000  0  5G15G 2G13G19G 6
  22963898.348    -1911484.545 5  -1361179.00921
  19858091.254   -21307376.568 8 -16474481.18324
  22943853.4654    -221785.26645
  21145256.926       78595.420 6     84754.10422
  20690624.5824  -19015511.74947 -14656775.46862
 91  4  9 23 27 29.9960000  0  5G15G 2G13G19G 6
  22956611.895    -1949774.666 5  -1391015.32921
  19854496.809   -21326267.802 8 -16489201.60924
  22929790.0124    -295680.26044
  21148270.863       94437.968 6     97098.89322
  20682359.277   -19058946.276 7 -14690620.51422
 91  4  9 23 27 44.9960000  0  5G15G 2G13G19G 6
  22949342.4574   -1987982.50645  -1420787.54361
  19850910.684   -21345112.592 8 -16503885.84624
  22915734.7774    -369550.88344
  21151298.238      110346.110 6    109494.79422
  20674097.8404  -19102360.06247 -14724449.39562
 91  4  9 23 27 59.9960000  0  5G15G 2G13G19G 6
  22942087.7934   -2026113.31145  -1450499.72361
  19847332.152   -21363916.905 8 -16518538.54124
  22901680.332     -443402.530 5
  21154334.9814     126313.95146    121937.21062
  20665838.8874  -19145758.60347 -14758266.40162
 91  4  9 23 28 14.9960000  0  5G15G 2G13G19G 6
  22934846.5044   -2064157.98945  -1480144.77461
  19843763.496   -21382671.782 8 -16533152.71424
  22887633.012     -517225.970 5        -0.36031
  21157387.965      142350.422 6    134433.11222
  20657585.5204  -19189132.88647 -14792064.50562
 91  4  9 23 28 29.9960000  0  5G15G 2G13G19G 6
  22927623.762    -2102120.726 5  -1509725.99921
  19840202.832   -21401381.530 8 -16547731.72124
  22873589.0664    -591025.26945    -57505.95961
  21160452.8164     158451.11146    146979.04462
  20649335.4654  -19232486.96347 -14825846.86062
 91  4  9 23 28 44.9960000  0  5G15G 2G13G19G 6
  22920414.1764   -2139997.37545  -1539240.15361
  19836651.887   -21420042.722 8 -16562272.89324
  22859551.5904    -664796.65244   -114989.74261
  21163528.309      174619.674 6    159577.87122
  20641090.4574  -19275817.21347 -14859610.65362
 91  4  9 23 28 59.9960000  0  5G15G 2G13G19G 6
  22913222.0744   -2177791.19845  -1568689.73761
  19833110.121   -21438659.048 8 -16576779.10724
  22845517.637     -738543.027 4   -172454.05621
  21166617.9964     190852.66946    172226.89262
  20632848.996   -19319126.792 7 -14893358.33322
 91  4  9 23 29 14.9960000  0  5G15G 2G13G19G 6
  22906045.379    -2215503.731 5  -1598075.99021
  19829574.340   -21457232.292 8 -16591251.75124
  22831488.0824    -812266.01444   -229900.15261
  21169720.738      207148.081 6    184924.56322
  20624611.1914  -19362417.35547 -14927091.19962
 91  4  9 23 29 29.9960000  0  5G15G 2G13G19G 6
  22898884.6134   -2253136.93045  -1627400.41961
  19826048.293   -21475765.028 8 -16605692.82724
  22817461.621     -885967.647 5   -287329.59721
  21172829.7624     223503.48846    197668.97762
  20616376.2314  -19405691.17147 -14960811.01962
 91  4  9 23 29 44.9960000  0  5G15G 2G13G19G 6
  22891736.457    -2290697.098 5  -1656667.96221
  19822527.981   -21494264.169 8 -16620107.72624
  22803439.7464    -959654.15245   -344747.25561
  21175954.512      239912.128 6    210454.87422
  20608142.816   -19448954.778 7 -14994522.87722
 91  4  9 23 29 59.9960000  0  5G15G 2G13G19G 6
  22884606.738    -2328172.553 5  -1685869.47721
  19819015.824   -21512718.004 8 -16634487.32124
  22789422.285    -1033313.567 4   -402143.82421
  21179088.3014     256385.58046    223291.27362
  20599914.4654  -19492196.24547 -15028217.49262
 91  4  9 23 30 14.9960000  0  5G15G 2G13G19G 6
  22877488.402    -2365567.333 5  -1715008.13621
  19815512.160   -21531131.224 8 -16648835.27024
  22775410.848    -1106949.801 5   -459522.29221
  21182235.9184     272919.28146    236174.61362
  20591689.2934  -19535420.00147 -15061898.30363
 91  4  9 23 30 29.9960000  0  5G15G 2G13G19G 6
  22870386.8794   -2402878.80945  -1744081.87461
  19812016.676   -21549501.392 8 -16663149.67124
  22761401.8484   -1180560.21145   -516880.69761
  21185393.0514     289515.64346    249106.78762
  20583468.2074  -19578623.34747 -15095563.20962
 91  4  9 23 30 44.9960000  0  5G15G 2G13G19G 6
  22863304.066    -2440113.532 5  -1773095.80121
  19808528.035   -21567835.327 8 -16677435.83724
  22747395.1134   -1254151.46045   -574224.14061
  21188563.5514     306168.07646    262082.65462
  20575249.2314  -19621812.93147 -15129217.39062
 91  4  9 23 30 59.9960000  0  5G15G 2G13G19G 6
  22856234.418    -2477273.903 5  -1802051.79721
  19805045.020   -21586136.164 8 -16691696.21624
  22733397.566    -1327725.910 5   -631554.45121
  21191740.1374     322873.63346    275099.90762
  20567032.0984  -19664991.49547 -15162862.98462
 91  4  9 23 31 14.9960000  0  5G15G 2G13G19G 6
  22849175.1374   -2514350.16545  -1830942.25761
  19801570.121   -21604394.297 8 -16705923.31424
  22719401.0904   -1401273.70445   -688864.09561
  21194936.0594     339641.66646    288165.84762
  20558819.090   -19708149.183 7 -15196492.31122
 91  4  9 23 31 29.9960000  0  5G15G 2G13G19G 6
  22842136.660    -2551333.693 5  -1859760.45821
  19798105.566   -21622601.789 8 -16720110.95324
  22705409.652    -1474786.229 5   -746146.20021
  21198135.9024     356480.22046    301286.73762
  20550612.699   -19751277.718 7 -15230098.91922
 91  4  9 23 31 44.9960000  0  5G15G 2G13G19G 6
  22835115.6134   -2588234.19945  -1888513.96661
  19794648.441   -21640768.622 8 -16734266.90424
  22691426.9024   -1548273.14545   -803408.32361
  21201353.6604     373379.28646    314454.77662
  20542408.856   -19794386.839 7 -15263690.39622
 91  4  9 23 31 59.9960000  0  5G15G 2G13G19G 6
  22828110.7774   -2625054.43345  -1917204.91661
  19791199.270   -21658897.850 8 -16748393.55624
  22677448.176    -1621737.038 5   -860652.55621
  21204580.5044     390336.08046    327667.80062
  20534208.5274  -19837479.22347 -15297268.83662
 91  4  9 23 32 14.9960000  0  5G15G 2G13G19G 6
  22821119.0204   -2661789.57845  -1945829.57061
  19787756.676   -21676984.845 8 -16762487.29924
  22663468.5594   -1695172.90145   -917874.91861
  21207818.0744     407355.10946    340929.32362
  20526012.7624  -19880550.16947 -15330830.57662
 91  4  9 23 32 29.9960000  0  5G15G 2G13G19G 6
  22814145.1994   -2698439.59945  -1974387.91261
  19784322.160   -21695030.096 8 -16776548.51724
  22649501.582    -1768580.595 5   -975075.33321
  21211067.0594     424435.99146    354239.03762
  20517820.9964  -19923599.71447 -15364375.63562
 91  4  9 23 32 44.9960000  0  5G15G 2G13G19G 6
  22807190.160    -2735002.554 5  -2002878.39221
  19780897.629   -21713032.152 8 -16790576.07724
  22635540.3324   -1841958.09745  -1032252.23361
  21214331.8714     441580.34846    367598.21262
  20509632.8164  -19966626.06947 -15397902.62262
 91  4  9 23 32 59.9960000  0  5G15G 2G13G19G 6
  22800248.1064   -2771475.28145  -2031298.56961
  19777479.918   -21730988.296 8 -16804567.86024
  22621580.129    -1915302.706 5  -1089403.48921
  21217609.0124     458790.62246    381008.74762
  20501449.1214  -20009626.45147 -15431409.37562
 91  4  9 23 33 14.9960000  0  5G15G 2G13G19G 6
  22793319.8324   -2807868.96745  -2059657.16061
  19774070.207   -21748910.128 8 -16818532.90424
  22607627.5434   -1988625.14845  -1146537.51061
  21220892.0984     476055.37346    394461.73462
  20493271.152   -20052611.897 7 -15464904.48123
 91  4  9 23 33 29.9960000  0  5G15G 2G13G19G 6
  22786410.1604   -2844172.28945  -2087945.33761
  19770667.965   -21766786.736 8 -16832462.71124
  22593682.2314   -2061914.15445  -1203645.46761
  21224189.9734     493385.82146    407965.91262
  20485094.762   -20095571.317 7 -15498379.31123
 91  4  9 23 33 44.9960000  0  5G15G 2G13G19G 6
  22779521.590    -2880395.682 5  -2116171.24421
  19767272.910   -21784628.778 8 -16846365.58624
  22579739.324    -2135180.014 5  -1260735.38721
  21227499.6914     510771.16046    421512.86962
  20476924.0124  -20138515.12947 -15531841.98363
 91  4  9 23 33 59.9960000  0  5G15G 2G13G19G 6
  22772643.8874   -2916531.40945  -2144328.82061
  19763885.746   -21802428.927 8 -16860235.81624
  22565803.0664   -2208414.85545  -1317801.13361
  21230818.3014     528218.86346    435108.41462
  20468755.449   -20181435.664 7 -15565286.51523
 91  4  9 23 34 14.9960000  0  5G15G 2G13G19G 6
  22765782.637    -2952585.549 5  -2172422.85221
  19760505.410   -21820193.443 8 -16874078.27924
  22551872.3014   -2281624.62145  -1374847.37561
  21234151.5434     545722.68446    448747.68762
  20460590.590   -20224338.970 7 -15598717.61523
 91  4  9 23 34 29.9960000  0  5G15G 2G13G19G 6
  22758936.731    -2988551.858 5  -2200448.43721
  19757132.316   -21837916.695 8 -16887888.58924
  22537946.590    -2354803.413 5  -1431869.43921
  21237493.7854     563288.08346    462434.94561
  20452431.879   -20267219.269 7 -15632130.78723
 91  4  9 23 34 44.9960000  0  5G15G 2G13G19G 6
  22752109.707    -3024431.132 5  -2228406.20321
  19753767.301   -21855600.079 8 -16901667.83624
  22524025.121    -2427951.894 5  -1488867.91121
  21240848.160      580913.853 6    476169.23922
  20444274.973   -20310077.510 7 -15665526.77023
 91  4  9 23 34 59.9960000  0  5G15G 2G13G19G 6
  22745298.5354   -3060226.95345  -2256298.94361
  19750409.887   -21873247.457 8 -16915419.02324
  22510113.0664   -2501073.47145  -1545845.37261
  21244211.0044     598596.35146    489947.73762
  20436122.996   -20352917.112 7 -15698908.23523
 91  4  9 23 35 14.9960000  0  5G15G 2G13G19G 6
  22738502.348    -3095939.985 5  -2284127.17221
  19747057.457   -21890859.644 8 -16929142.78724
  22496202.2544   -2574168.57345  -1602802.28761
  21247586.8794     616334.68846    503769.75162
  20427974.9734  -20395738.85847 -15732275.79063
 91  4  9 23 35 29.9960000  0  5G15G 2G13G19G 6
  22731721.371    -3131574.063 5  -2311893.88321
  19743712.012   -21908441.009 8 -16942842.53824
  22482297.0124   -2647241.35345  -1659741.76561
  21250972.7854     634124.56546    517631.92462
  20419828.223   -20438546.548 7 -15765632.38723
 91  4  9 23 35 44.9960000  0  5G15G 2G13G19G 6
  22724956.8954   -3167121.51945  -2339593.09261
  19740374.051   -21925984.176 8 -16956512.52124
  22468396.3164   -2720283.84645  -1716657.68661
  21254370.785      651973.230 6    531539.90221
  20411687.051   -20481332.821 7 -15798972.29522
 91  4  9 23 35 59.9960000  0  5G15G 2G13G19G 6
  22718207.465    -3202590.513 5  -2367231.15121
  19737041.551   -21943497.743 8 -16970159.44224
  22454501.340    -2793303.882 5  -1773556.08121
  21257773.6914     669872.28746    545487.15362
  20403547.996   -20524105.781 7 -15832301.83023
 91  4  9 23 36 14.9960000  0  5G15G 2G13G19G 6
  22711473.8014   -3237974.69045  -2394803.13761
  19733714.770   -21960975.604 8 -16983778.53424
  22440609.9024   -2866295.08045  -1830432.02761
  21261193.0434     687827.79146    559478.38662
  20395411.481   -20566859.033 7 -15865616.00923
 91  4  9 23 36 29.9960000  0  5G15G 2G13G19G 6
  22704756.277    -3273279.480 5  -2422313.26121
  19730395.301   -21978423.815 8 -16997374.52724
  22426725.1214   -2939263.19645  -1887289.97661
  21264621.0664     705833.76946    573508.94662
  20387278.285   -20609598.321 7 -15898919.30423
 91  4  9 23 36 44.9960000  0  5G15G 2G13G19G 6
  22698051.559    -3308506.515 5  -2449762.79121
  19727080.371   -21995844.331 8 -17010948.93924
  22412844.5904   -3012209.73645  -1944131.11061
  21268055.223      723888.143 6    587577.21722
  20379148.777   -20652325.457 7 -15932213.13123
 91  4  9 23 36 59.9960000  0  5G15G 2G13G19G 6
  22691361.7074   -3343657.57245  -2477153.13161
  19723769.231   -22013239.124 8 -17024503.31024
  22398965.4734   -3085136.24045  -2000956.65161
  21271497.887      741989.041 6    601681.74122
  20371018.0274  -20695042.08147 -15965498.77063
 91  4  9 23 37 14.9960000  0  5G15G 2G13G19G 6
  22684689.496    -3378725.358 5  -2504478.56821
  19720466.246   -22030601.392 8 -17038032.33424
  22385094.457    -3158035.522 5  -2057760.96221
  21274952.715      760143.441 6    615827.95321
  20362893.629   -20737741.138 7 -15998770.72123
 91  4  9 23 37 29.9960000  0  5G15G 2G13G19G 6
  22678032.1684   -3413710.97845  -2531739.99561
  19717168.035   -22047932.708 8 -17051537.24324
  22371224.2774   -3230908.75645  -2114544.99561
  21278419.5824     778349.75446    630014.62062
  20354772.152   -20780423.798 7 -16032029.89123
 91  4  9 23 37 44.9960000  0  5G15G 2G13G19G 6
  22671389.668    -3448609.576 5  -2558933.62921
  19713877.121   -22065228.344 8 -17065014.34724
  22357363.8484   -3303750.46445  -2171304.47661
  21281893.395      796612.719 6    644245.42122
  20346652.895   -20823085.130 7 -16065272.44323
 91  4  9 23 37 59.9960000  0  5G15G 2G13G19G 6
  22664767.2544   -3483432.93745  -2586068.61661
  19710589.527   -22082500.446 8 -17078473.11124
  22343507.801    -3376572.678 5  -2228048.74221
  21285379.176      814919.954 5    658510.72722
  20338537.785   -20865736.926 7 -16098507.56323
 91  4  9 23 38 14.9960000  0  5G15G 2G13G19G 6
  22658152.723    -3518178.286 5  -2613142.81021
  19707307.645   -22099747.018 8 -17091911.98624
  22329653.410    -3449372.507 5  -2284775.56021
  21288869.965      833273.823 5    672812.36722
  20330422.371   -20908376.938 7 -16131733.50323
 91  4  9 23 38 29.9960000  0  5G15G 2G13G19G 6
  22651557.5984   -3552835.31645  -2640148.18861
  19704032.988   -22116957.619 8 -17105322.82824
  22315804.363    -3522139.368 5  -2341476.71921
  21292372.387      851684.933 6    687158.61121
  20322312.7154  -20950994.35247 -16164941.83663
 91  4  9 23 38 44.9960000  0  5G15G 2G13G19G 6
  22644977.1214   -3587411.54845  -2667090.60661
  19700763.121   -22134140.305 8 -17118711.92224
  22301962.090    -3594881.055 5  -2398158.25521
  21295887.254      870145.005 5    701543.01121
  20314207.0044  -20993596.91047 -16198138.59563
 91  4  9 23 38 59.9960000  0  5G15G 2G13G19G 6
  22638411.6214   -3621914.32945  -2693975.78061
  19697497.098   -22151302.628 8 -17132085.14124
  22288122.613    -3667604.279 5  -2454825.40621
  21299406.949      888646.392 6    715959.60322
  20306101.715   -21036192.110 7 -16231329.61422
 91  4  9 23 39 14.9960000  0  5G15G 2G13G19G 6
  22631861.3564   -3656340.60545  -2720801.35561
  19694236.074   -22168442.315 8 -17145440.72524
  22274288.012    -3740306.519 5  -2511476.17721
  21302936.566      907191.599 5    730410.33122
  20297996.168   -21078777.134 7 -16264512.70623
 91  4  9 23 39 29.9960000  0  5G15G 2G13G19G 6
  22625325.856    -3690684.498 5  -2747562.73821
  19690978.957   -22185553.852 8 -17158774.37724
  22260458.4264   -3812981.80645  -2568105.99561
  21306473.074      925786.174 6    744899.53722
  20289896.3564  -21121346.25347 -16297683.40763
 91  4  9 23 39 44.9960000  0  5G15G 2G13G19G 6
  22618805.7154   -3724947.34145  -2774260.96461
  19687728.246   -22202638.642 8 -17172087.18324
  22246632.574    -3885631.252 5  -2624715.63921
  21310021.387      944428.696 5    759426.10022
  20281798.8244  -21163900.44147 -16330842.47363
 91  4  9 23 39 59.9960000  0  5G15G 2G13G19G 6
  22612302.2704   -3759126.80745  -2800894.22361
  19684482.684   -22219694.826 8 -17185377.70124
  22232815.4494   -3958252.31645  -2681303.19561
  21313577.652      963120.867 5    773991.35122
  20273703.559   -21206437.796 7 -16363988.42223
 91  4  9 23 40 14.9960000  0  5G15G 2G13G19G 6
  22605814.324    -3793217.429 5  -2827458.24521
  19681243.1214  -22236717.35648 -17198641.99564
  22219000.6604   -4030839.45945  -2737864.31061
  21317147.199      981867.961 5    788599.39522
  20265613.5204  -21248952.71947 -16397116.89163
 91  4  9 23 40 29.9960000  0  5G15G 2G13G19G 6
  22599345.7624   -3827212.21045  -2853947.59361
  19678011.6994  -22253699.47948 -17211874.81164
  22205196.316    -4103385.722 5  -2794393.55821
  21320724.832     1000676.646 5    803255.43222
  20257528.707   -21291438.333 7 -16430222.52223
 91  4  9 23 40 44.9960000  0  5G15G 2G13G19G 6
  22592893.0824   -3861116.06145  -2880366.07861
  19674786.098   -22270646.499 8 -17225080.26424
  22191397.262    -4175896.035 5  -2850894.83421
  21324317.551     1019541.791 5    817955.46922
  20249447.9734  -21333899.50847 -16463309.11563
 91  4  9 23 40 59.9960000  0  5G15G 2G13G19G 6
  22586458.1134   -3894927.29945  -2906712.40561
  19671568.566   -22287557.153 8 -17238257.37924
  22177604.1994   -4248368.71145  -2907366.75761
  21327915.465     1038464.599 5    832700.43422
  20241373.176   -21376334.787 7 -16496375.52023
 91  4  9 23 41 14.9960000  0  5G15G 2G13G19G 6
  22580043.012    -3928636.684 5  -2932979.34921
  19668359.699   -22304422.379 8 -17251399.10024
  22163824.723    -4320794.106 5  -2963801.83521
  21331530.8244    1057454.07745    847497.34662
  20233304.965   -21418734.838 7 -16529414.47823
 91  4  9 23 41 29.9960000  0  5G15G 2G13G19G 6
  22573650.0434   -3962240.42245  -2959163.98461
  19665159.6064  -22321238.93648 -17264502.90264
  22150047.8794   -4393168.41845  -3020197.11361
  21335156.395     1076513.698 5    862348.92321
  20225244.9884  -21461096.06547 -16562423.18163
 91  4  9 23 41 44.9960000  0  5G15G 2G13G19G 6
  22567272.8244   -3995751.25945  -2985276.23561
  19661966.074   -22338019.987 8 -17277579.03424
  22136286.543    -4465504.470 5  -3076562.57921
  21338795.402     1095630.093 5    877244.72821
  20217187.5204  -21503431.40547 -16595411.72363
 91  4  9 23 41 59.9960000  0  5G15G 2G13G19G 6
  22560915.754    -4029153.454 5  -3011303.81321
  19658781.8954  -22354750.00048 -17290615.40064
  22122530.4654   -4537786.19145  -3132885.71361
  21342446.121     1114818.792 5    892196.88021
  20209140.9734  -21545724.89347 -16628367.64863
 91  4  9 23 42 14.9960000  0  5G15G 2G13G19G 6
  22554578.160    -4062457.535 5  -3037254.95121
  19655606.199   -22371439.686 8 -17303620.33624
  22108784.8014   -4610024.06345  -3189174.65061
  21346109.988     1134069.115 5    907197.05521
  20201096.6914  -21587987.11747 -16661299.21063
 91  4  9 23 42 29.9960000  0  5G15G 2G13G19G 6
  22548260.168    -4095658.822 5  -3063125.97321
  19652439.356   -22388084.698 8 -17316590.45924
  22095047.7934   -4682213.27745  -3245425.69961
  21349782.949     1153385.494 5    922248.69821
  20193061.0514  -21630213.43447 -16694202.79863
 91  4  9 23 42 44.9960000  0  5G15G 2G13G19G 6
  22541962.676    -4128756.187 5  -3088916.02521
  19649280.066   -22404684.414 8 -17329525.28724
  22081319.223    -4754352.618 5  -3301637.88321
  21353474.754     1172768.617 5    937352.34021
  20185033.7234  -21672402.73347 -16727077.54163
 91  4  9 23 42 59.9960000  0  5G15G 2G13G19G 6
  22535680.4574   -4161762.07045  -3114634.80461
  19646127.731   -22421251.739 8 -17342434.87624
  22067598.0514   -4826454.61545  -3357820.96161
  21357170.566     1192205.468 5    952497.85821
  20177009.7074  -21714567.69747 -16759933.32163
 91  4  9 23 43 14.9960000  0  5G15G 2G13G19G 6
  22529418.145    -4194665.400 5  -3140273.67321
  19642983.043   -22437775.977 8 -17355310.89224
  22053882.793    -4898508.045 5  -3413966.20021
  21360885.434     1211707.002 5    967693.77521
  20168992.215   -21756697.185 7 -16792761.45123
 91  4  9 23 43 29.9960000  0  5G15G 2G13G19G 6
  22523175.1294   -4227466.77445  -3165833.09861
  19639846.793   -22454257.735 8 -17368153.80724
  22040186.004    -4970513.324 5  -3470073.89521
  21364607.934     1231272.400 5    982939.46021
  20160981.8164  -21798791.77847 -16825562.39163
 91  4  9 23 43 44.9960000  0  5G15G 2G13G19G 6
  22516954.270    -4260164.485 5  -3191311.72921
  19636719.0354  -22470695.81648 -17380962.69064
  22026492.856    -5042468.652 5  -3526142.70021
  21368344.535     1250902.878 5    998235.85921
  20152978.7234  -21840849.88347 -16858334.90363
 91  4  9 23 43 59.9960000  0  5G15G 2G13G19G 6
  22510752.5044   -4292763.54345  -3216713.49661
  19633598.012   -22487095.581 8 -17393741.71424
  22012807.5204   -5114378.95845  -3582176.39661
  21372088.309     1270593.113 5   1013578.81721
  20144981.6764  -21882876.55747 -16891082.93063
 91  4  9 23 44 14.9960000  0  5G15G 2G13G19G 6
  22504570.340    -4325248.930 5  -3242026.69521
  19630487.9884  -22503442.57748 -17406479.62264
  21999136.168    -5186229.310 5  -3638163.40521
  21375852.707     1290357.825 5   1028979.81021
  20136992.6524  -21924856.84947 -16923794.81063
 91  4  9 23 44 29.9960000  0  5G15G 2G13G19G 6
  22498411.4964   -4357616.31745  -3267247.95261
  19627387.129   -22519732.624 8 -17419173.15124
  21985474.8244   -5258015.06145  -3694100.05361
  21379628.785     1310201.179 5   1044442.08921
  20129014.0044  -21966786.36447 -16956467.13063
 91  4  9 23 44 44.9960000  0  5G15G 2G13G19G 6
  22492274.3404   -4389873.00445  -3292382.93061
  19624297.066   -22535973.296 8 -17431828.20724
  21971825.1374   -5329743.51645  -3749992.05861
  21383418.082     1330115.377 5   1059959.56221
  20121042.9574  -22008672.44347 -16989105.60263
 91  4  9 23 44 59.9960000  0  5G15G 2G13G19G 6
  22486156.1064   -4422017.71145  -3317430.66661
  19621215.4734  -22552163.47748 -17444443.92264
  21958186.6684   -5401413.51845  -3805838.52561
  21387218.301     1350101.409 5   1075533.01121
  20113081.5354  -22050513.82347 -17021709.23563
 91  4  9 23 45 14.9960000  0  5G15G 2G13G19G 6
  22480062.3794   -4454046.10745  -3342387.76061
  19618145.9814  -22568299.15748 -17457017.16764
  21944559.027    -5473020.353 5  -3861635.76921
  21391039.879     1370163.479 5   1091165.71621
  20105127.8634  -22092306.07747 -17054274.59363
 91  4  9 23 45 29.9950000  0  5G15G 2G13G19G 6
  22473987.9214   -4485964.16745  -3367258.89061
  19615084.5304  -22584388.20448 -17469554.07764
  21930942.718    -5544567.544 5  -3917386.54621
  21394869.046     1390291.219 5   1106849.57921
  20097183.7884  -22134055.01547 -17086806.20463
 91  4  9 23 45 44.9950000  0  5G15G 2G13G19G 6
  22467932.0464   -4517774.51245  -3392046.08161
  19612030.976   -22600431.141 8 -17482055.05324
  21917338.8124   -5616062.69745  -3973096.77361
  21398713.054     1410489.128 5   1122588.12921
  20089246.6014  -22175764.09747 -17119306.75563
 91  4  9 23 45 59.9950000  0  5G15G 2G13G19G 6
  22461899.148    -4549477.436 5  -3416749.57221
  19608986.312   -22616429.797 8 -17494521.52324
  21903743.8124   -5687503.34945  -4028764.51261
  21402566.7654    1430752.71545   1138377.85061
  20081317.8824  -22217433.43547 -17151776.33863
 91  4  9 23 46 14.9950000  0  5G15G 2G13G19G 6
  22455889.2884   -4581067.58445  -3441365.17761
  19605951.0464  -22632379.18248 -17506949.60864
  21890159.8194   -5758884.10845  -4084385.62361
  21406438.343     1451087.068 5   1154222.71921
  20073395.9214  -22259057.54547 -17184210.67963
 91  4  9 23 46 29.9950000  0  5G15G 2G13G19G 6
  22449900.944    -4612549.253 5  -3465896.25921
  19602924.577   -22648283.829 8 -17519342.82124
  21876587.101    -5830208.850 5  -4139963.06121
  21410317.7184    1471487.88745   1170119.37661
  20065483.4914  -22300640.60647 -17216613.03563
 91  4  9 23 46 44.9950000  0  5G15G 2G13G19G 6
  22443931.2574   -4643920.90545  -3490341.62461
  19599907.202   -22664142.242 8 -17531700.01024
  21863026.491    -5901476.108 5  -4195495.70221
  21414213.179     1491956.444 5   1186068.81321
  20057578.5154  -22342181.07047 -17248982.19763
 91  4  9 23 46 59.9950000  0  5G15G 2G13G19G 6
  22437981.499    -4675180.020 5  -3514699.29021
  19596897.6404  -22679952.54548 -17544019.72264
  21849474.3274   -5972683.55745  -4250981.75561
  21418123.593     1512494.674 5   1202072.54521
  20049682.3584  -22383676.56847 -17281316.32163
 91  4  9 23 47 14.9950000  0  5G15G 2G13G19G 6
  22432054.007    -4706323.983 5  -3538967.22821
  19593899.335   -22695712.427 8 -17556300.13224
  21835939.062    -6043828.211 5  -4306418.86621
  21422045.155     1533104.756 5   1218132.26021
  20041793.6484  -22425124.63147 -17313613.48263
 91  4  9 23 47 29.9950000  0  5G15G 2G13G19G 6
  22426148.640    -4737358.851 5  -3563150.14621
  19590908.155   -22711428.210 8 -17568546.18624
  21822408.6944   -6114915.98145  -4361811.67161
  21425978.5304    1553780.48345   1234243.13161
  20033915.023   -22466531.015 7 -17345878.17123
 91  4  9 23 47 44.9950000  0  5G15G 2G13G19G 6
  22420261.562    -4768283.039 5  -3587246.81721
  19587927.343   -22727098.632 8 -17580756.88824
  21808891.194    -6185945.240 5  -4417158.88021
  21429928.444     1574523.110 5   1250406.13221
  20026043.616   -22507894.380 7 -17378109.34023
 91  4  9 23 47 59.9950000  0  5G15G 2G13G19G 6
  22414397.1714   -4799091.05145  -3611252.96861
  19584954.858   -22742718.603 8 -17592928.27524
  21795387.491    -6256910.620 5  -4472456.29821
  21433889.4214    1595337.89745   1266625.35461
  20018182.2024  -22549209.19747 -17410302.67463
 91  4  9 23 48 14.9950000  0  5G15G 2G13G19G 6
  22408559.3584   -4829787.32045  -3635172.03861
  19581991.023   -22758292.638 8 -17605063.87424
  21781893.8984   -6327816.18245  -4527707.11661
  21437862.0464    1616220.08045   1282897.09761
  20010329.2024  -22590479.66547 -17442461.44863
 91  4  9 23 48 29.9950000  0  5G15G 2G13G19G 6
  22402736.827    -4860376.255 5  -3659007.48421
  19579035.038   -22773825.580 8 -17617167.45124
  21768409.804    -6398666.480 5  -4582914.86821
  21441846.1944    1637164.68845   1299217.48561
  20002482.4374  -22631710.65947 -17474589.46563
 91  4  9 23 48 44.9950000  0  5G15G 2G13G19G 6
  22396935.0854   -4890853.32345  -3682755.75261
  19576087.905   -22789313.411 8 -17629235.87724
  21754941.1714   -6469456.54245  -4638075.69361
  21445846.0544    1658175.99145   1315589.84161
  19994644.327   -22672897.524 7 -17506683.10023
 91  4  9 23 48 59.9950000  0  5G15G 2G13G19G 6
  22391159.343    -4921218.507 5  -3706416.83221
  19573148.991   -22804756.223 8 -17641269.22124
  21741480.804    -6540186.280 5  -4693189.51721
  21449855.702     1679253.904 5   1332014.10221
  19986816.5854  -22714040.07847 -17538742.20263
 91  4  9 23 49 14.9950000  0  5G15G 2G13G19G 6
  22385400.2654   -4951477.34345  -3729995.05361
  19570217.593   -22820159.691 8 -17653271.91124
  21728033.093    -6610861.082 5  -4748260.52021
  21453881.499     1700392.706 5   1348485.81021
  19978993.7414  -22755143.73647 -17570770.99663
 91  4  9 23 49 29.9950000  0  5G15G 2G13G19G 6
  22379664.866    -4981621.954 5  -3753484.26421
  19567295.116   -22835516.558 8 -17665238.29024
  21714594.835    -6681473.387 5  -4803282.81521
  21457913.5854    1721599.38445   1365010.40261
  19971181.4524  -22796201.02247 -17602763.65763
 91  4  9 23 49 44.9950000  0  5G15G 2G13G19G 6
  22373951.9294   -5011647.66745  -3776880.82361
  19564382.788   -22850822.600 8 -17677165.06024
  21701170.944    -6752018.099 5  -4858252.45921
  21461963.116     1742878.457 5   1381591.41721
  19963378.8434  -22837207.20447 -17634716.49563
 91  4  9 23 49 59.9950000  0  5G15G 2G13G19G 6
  22368260.1874   -5041559.91445  -3800188.98461
  19561478.6484  -22866083.13248 -17689056.37464
  21687758.5694   -6822500.74345  -4913173.73761
  21466026.8904    1764224.46545   1398224.58061
  19955583.6404  -22878167.47147 -17666633.55763
 91  4  9 23 50 14.9950000  0  5G15G 2G13G19G 6
  22362586.3434   -5071356.35145  -3823406.89261
  19558584.398   -22881296.278 8 -17700910.76124
  21674357.4994   -6892918.71645  -4968044.59961
  21470102.468     1785639.323 5   1414911.40021
  19947798.2654  -22919079.52947 -17698513.04863
 91  4  9 23 50 29.9950000  0  5G15G 2G13G19G 6
  22356941.1244   -5101039.25745  -3846536.33761
  19555697.054   -22896464.607 8 -17712730.22724
  21660968.624    -6963274.192 5  -5022866.79821
  21474189.601     1807120.513 5   1431649.89721
  19940021.8194  -22959945.71247 -17730356.79363
 91  4  9 23 50 44.9950000  0  5G15G 2G13G19G 6
  22351313.843    -5130605.540 5  -3869574.91521
  19552820.124   -22911585.366 8 -17724512.62424
  21647594.6944   -7033563.89045  -5077637.72961
  21478289.452     1828670.780 5   1448442.22921
  19932254.2884  -23000762.82247 -17762162.30263
 91  4  9 23 50 59.9950000  0  5G15G 2G13G19G 6
  22345710.280    -5160054.619 5  -3892522.14021
  19549951.733   -22926658.169 8 -17736257.65224
  21634230.1714   -7103787.07945  -5132356.82761
  21482403.3984    1850290.33245   1465288.53861
  19924497.2024  -23041530.33747 -17793929.16663
 91  4  9 23 51 14.9950000  0  5G15G 2G13G19G 6
  22340131.1634   -5189382.96345  -3915375.30361
  19547092.280   -22941680.209 8 -17747963.11824
  21620881.483    -7173940.279 6  -5187021.39521
  21486531.4684    1871982.05645   1482191.09761
  19916748.5304  -23082244.96147 -17825654.81063
 91  4  9 23 51 29.9950000  0  5G15G 2G13G19G 6
  22334570.9524   -5218592.95445  -3938136.24861
  19544243.382   -22956654.045 8 -17759631.03324
  21607543.796    -7244025.847 6  -5241633.27021
  21490675.273     1893743.320 5   1499147.83521
  19909010.5854  -23122908.99847 -17857341.03763
 91  4  9 23 51 44.9950000  0  5G15G 2G13G19G 6
  22329031.5624   -5247699.58445  -3960816.65161
  19541400.890   -22971594.866 8 -17771273.22024
  21594216.2964   -7314058.61746  -5296203.99161
  21494824.9914    1915559.12245   1516147.07361
  19901279.2024  -23163537.33747 -17888999.45263
 91  4  9 23 51 59.9950000  0  5G15G 2G13G19G 6
  22323514.3744   -5276686.81145  -3983404.00361
  19538566.562   -22986486.707 8 -17782877.23924
  21580901.468    -7384022.047 6  -5350720.70321
  21498986.7884    1937445.40445   1533201.22961
  19893557.2024  -23204113.72947 -17920617.38463
 91  4  9 23 52 14.9950000  0  5G15G 2G13G19G 6
  22318021.4524   -5305562.13245  -4005904.15561
  19535740.9214  -23001337.45148 -17794449.23564
  21567599.8274   -7453923.59246  -5405189.16961
  21503167.1084    1959394.12645   1550304.04361
  19885844.9374  -23244645.69047 -17952200.70063
 91  4  9 23 52 29.9950000  0  5G15G 2G13G19G 6
  22312546.554    -5334325.563 6  -4028317.11821
  19532922.929   -23016147.375 8 -17805989.42624
  21554309.015    -7523763.403 6  -5459609.54221
  21507352.3744    1981404.97445   1567455.25861
  19878139.9604  -23285133.28147 -17983749.44063
 91  4  9 23 52 44.9950000  0  5G15G 2G13G19G 6
  22307096.5234   -5362972.03546  -4050638.94861
  19530113.1404  -23030911.86148 -17817494.20864
  21541032.7574   -7593536.43146  -5513977.87461
  21511556.4134    2003482.46245   1584658.40761
  19870444.7804  -23325571.54547 -18015259.74063
 91  4  9 23 52 59.9950000  0  5G15G 2G13G19G 6
  22301666.569    -5391506.009 6  -4072873.12021
  19527310.4834  -23045635.81048 -17828967.40364
  21527765.483    -7663246.660 5  -5568297.28521
  21515769.1554    2025622.10345   1601909.98761
  19862757.7654  -23365964.93047 -18046735.07263
 91  4  9 23 53 14.9950000  0  5G15G 2G13G19G 6
  22296259.069    -5419921.681 6  -4095015.09921
  19524517.913   -23060313.344 8 -17840404.43024
  21514513.6944   -7732888.31746  -5622563.26861
  21519997.6634    2047829.29345   1619214.20161
  19855081.4134  -23406307.33647 -18078170.67563
 91  4  9 23 53 29.9950000  0  5G15G 2G13G19G 6
  22290871.335    -5448228.481 6  -4117072.24821
  19521731.9524  -23074954.34948 -17851812.99564
  21501272.601    -7802470.725 5  -5676783.07121
  21524233.2804    2070094.30445   1636563.46461
  19847412.476   -23446608.408 7 -18109574.06923
 91  4  9 23 53 44.9950000  0  5G15G 2G13G19G 6
  22285506.7964   -5476423.77946  -4139042.51561
  19518953.0774  -23089556.36448 -17863191.18164
  21488042.4834   -7871991.05746  -5730954.51261
  21528482.155     2092419.562 5   1653959.68621
  19839751.8664  -23486865.36647 -18140943.08463
 91  4  9 23 53 59.9950000  0  5G15G 2G13G19G 6
  22280164.9914   -5504496.32846  -4160917.14961
  19516183.7334  -23104108.60248 -17874530.58164
  21474827.4914   -7941438.08346  -5785068.83861
  21532743.2024    2114815.78845   1671411.19361
  19832102.0624  -23527067.04747 -18172269.03663
 91  4  9 23 54 14.9950000  0  5G15G 2G13G19G 6
  22274844.858    -5532454.423 6  -4182702.58721
  19513422.3664  -23118619.58548 -17885837.82664
  21461626.148    -8010819.957 6  -5839132.38121
  21537017.7804    2137274.47545   1688911.37261
  19824460.0464  -23567221.83747 -18203558.44963
 91  4  9 23 54 29.9950000  0  5G15G 2G13G19G 6
  22269545.085    -5560299.520 6  -4204399.98521
  19510668.3664  -23133090.86448 -17897114.14164
  21448433.655    -8080137.844 6  -5893146.07321
  21541301.4764    2159793.86445   1706458.85861
  19816827.8194  -23607330.91447 -18234812.24063
 91  4  9 23 54 44.9950000  0  5G15G 2G13G19G 6
  22264270.280    -5588020.669 6  -4226000.79521
  19507924.3194  -23147511.99748 -17908351.38364
  21435257.0304   -8149381.00846  -5947101.54761
  21545601.8744    2182384.50345   1724061.85961
  19809204.7654  -23647383.52747 -18266022.03263
 91  4  9 23 54 59.9950000  0  5G15G 2G13G19G 6
  22259016.921    -5615623.040 6  -4247509.04721
  19505188.1554  -23161888.43148 -17919553.79064
  21422095.483    -8218554.123 6  -6001002.44021
  21549910.0694    2205040.98445   1741716.17061
  19801593.5074  -23687384.65847 -18297191.71163
 91  4  9 23 55 14.9950000  0  5G15G 2G13G19G 6
  22253785.116    -5643111.858 6  -4268928.83021
  19502460.0854  -23176225.52747 -17930725.54664
  21408943.218    -8287662.112 6  -6054852.58921
  21554236.999     2227757.871 5   1759417.54121
  19793990.6874  -23727339.49247 -18328325.31963
 91  4  9 23 55 29.9950000  0  5G15G 2G13G19G 6
  22248578.8584   -5670476.02546  -4290251.46961
  19499741.2334  -23190512.43947 -17941858.19464
  21395806.5694   -8356694.05246  -6108643.47861
  21558569.358     2250545.967 5   1777174.40721
  19786398.3664  -23767236.91647 -18359414.18963
 91  4  9 23 55 44.9950000  0  5G15G 2G13G19G 6
  22243394.851    -5697716.372 6  -4311477.63821
  19497032.4374  -23204750.40847 -17952952.70864
  21382684.3984   -8425650.57046  -6162375.60361
  21562921.562     2273404.269 5   1794985.97121
  19778817.2574  -23807077.55947 -18390458.81263
 91  4  9 23 55 59.9950000  0  5G15G 2G13G19G 6
  22238236.210    -5724832.884 6  -4332607.30421
  19494331.6014  -23218939.69347 -17964009.28564
  21369577.9374   -8494531.22146  -6216048.59661
  21567283.1404    2296332.43145   1812851.97261
  19771245.9994  -23846861.37747 -18421459.15063
 91  4  9 23 56 14.9950000  0  5G15G 2G13G19G 6
  22233097.757    -5751827.991 5  -4353642.37221
  19491640.3984  -23233082.95847 -17975030.00864
  21356482.296    -8563338.732 6  -6269664.60521
  21571662.085     2319327.424 5   1830770.04521
  19763685.2494  -23886590.94147 -18452417.22163
 91  4  9 23 56 29.9950000  0  5G15G 2G13G19G 6
  22227985.827    -5778690.726 5  -4374574.29521
  19488960.1484  -23247169.67047 -17986006.66164
  21343404.398    -8632062.272 6  -6323215.20421
  21576050.280     2342399.628 5   1848748.28221
  19756138.179   -23926255.475 7 -18483324.62723
 91  4  9 23 56 44.9950000  0  5G15G 2G13G19G 6
  22222895.148    -5805432.097 5  -4395411.65021
  19486287.7734  -23261210.97947 -17996947.93664
  21330341.038    -8700712.450 6  -6376708.62221
  21580455.3434    2365538.14345   1866778.19961
  19748600.0464  -23965865.88547 -18514189.85163
 91  4  9 23 56 59.9950000  0  5G15G 2G13G19G 6
  22217832.819    -5832047.430 5  -4416150.78721
  19483625.2884  -23275202.29347 -18007850.25264
  21317292.382    -8769284.244 6  -6430140.96321
  21584871.3824    2388747.46645   1884863.29461
  19741072.9374  -24005417.04247 -18545008.90263
 91  4  9 23 57 14.9950000  0  5G15G 2G13G19G 6
  22212791.093    -5858536.712 5  -4436791.71521
  19480972.8124  -23289143.89248 -18018713.83164
  21304257.9834   -8837777.45346  -6483512.06961
  21589302.9684    2412027.21945   1903003.24961
  19733558.4834  -24044908.97747 -18575781.81263
 91  4  9 23 57 29.9950000  0  5G15G 2G13G19G 6
  22207774.343    -5884892.719 5  -4457328.78121
  19478330.2104  -23303029.02848 -18029533.41364
  21291240.538    -8906184.877 6  -6536816.33421
  21593744.4294    2435384.35645   1921203.53161
  19726056.9374  -24084334.63047 -18606503.07363
 91  4  9 23 57 44.9950000  0  5G15G 2G13G19G 6
  22202785.4914   -5911118.24645  -4477764.19561
  19475698.6324  -23316860.35548 -18040311.06364
  21278238.937    -8974509.086 6  -6590055.76021
  21598204.9374    2458815.90545   1939461.77661
  19718566.5694  -24123696.44347 -18637174.59263
 91  4  9 23 57 59.9950000  0  5G15G 2G13G19G 6
  22197819.1874   -5937214.38445  -4498098.78861
  19473076.2494  -23330639.59348 -18051048.12664
  21265253.827    -9042751.259 6  -6643231.26021
  21602677.2574    2482320.25745   1957776.76561
  19711087.0934  -24162995.81047 -18667797.44563
 91  4  9 23 58 14.9950000  0  5G15G 2G13G19G 6
  22192878.999    -5963174.762 5  -4518327.59121
  19470464.9054  -23344360.91448 -18061740.05664
  21252283.8744   -9110905.22746  -6696338.03961
  21607165.3824    2505903.29345   1976153.05561
  19703622.0464  -24202226.37747 -18698366.68964
 91  4  9 23 58 29.9950000  0  5G15G 2G13G19G 6
  22187961.5464   -5989006.49545  -4538456.15561
  19467863.7024  -23358031.33748 -18072392.32964
  21239328.7734   -9178977.40446  -6749381.06761
  21611666.077     2529557.801 5   1994585.04221
  19696168.6554  -24241394.90547 -18728887.58963
 91  4  9 23 58 44.9950000  0  5G15G 2G13G19G 6
  22183071.4054   -6014711.40646  -4558485.89761
  19465271.7104  -23371653.07648 -18083006.66664
  21226389.6084   -9246969.60746  -6802361.79361
  21616181.312     2553281.553 5   2013070.97821
  19688727.1244  -24280503.39447 -18759361.71064
 91  4  9 23 58 59.9950000  0  5G15G 2G13G19G 6
  22178207.6634   -6040278.66445  -4578408.37061
  19462690.9604  -23385215.41848 -18093574.72064
  21213470.1084   -9314870.90146  -6855271.68161
  21620709.718     2577085.286 5   2031619.24321
  19681298.812   -24319540.840 7 -18789780.47623
 91  4  9 23 59 14.9950000  0  5G15G 2G13G19G 6
  22173368.733    -6065703.091 6  -4598219.53221
  19460121.9444  -23398713.48248 -18104092.68864
  21200565.585    -9382675.936 6  -6908106.56721
  21625258.9684    2600973.80145   2050233.57461
  19673884.171   -24358502.001 7 -18820139.79823
 91  4  9 23 59 29.9950000  0  5G15G 2G13G19G 6
  22168555.0934   -6090994.19746  -4617926.82861
  19457563.4294  -23412156.98748 -18114568.14264
  21187680.054    -9450394.034 6  -6960873.68921
  21629819.0464    2624937.32645   2068906.35961
  19666483.124   -24397396.281 7 -18850447.00524
 91  4  9 23 59 44.9950000  0  5G15G 2G13G19G 6
  22163769.9374   -6116145.84646  -4637525.45461
  19455016.6714  -23425540.07147 -18124996.51864
  21174811.038    -9518019.177 6  -7013568.41421
  21634394.257     2648981.514 5   2087641.98221
  19659094.952   -24436217.548 7 -18880697.31824
 91  4  9 23 59 59.9950000  0  5G15G 2G13G19G 6
  22159009.6244   -6141161.34346  -4657017.98061
  19452480.9914  -23438866.25747 -18135380.55864
  21161960.2024   -9585554.16346  -7066192.86261
  21638982.0384    2673102.99345   2106437.83761
  19651721.140   -24474969.062 7 -18910893.28023
 91  4 10  0  0 14.9950000  0  5G15G 2G13G19G 6
  22154277.226    -6166030.535 6  -4676396.49821
  19449957.8904  -23452125.62747 -18145712.52764
  21149126.319    -9652988.608 6  -7118738.97821
  21643588.069     2697311.738 5   2125301.69721
  19644362.0234  -24513640.28547 -18941026.67264
 91  4 10  0  0 29.9950000  0  5G15G 2G13G19G 6
  22149571.4764   -6190753.13546  -4695660.80161
  19447446.9374  -23465318.05047 -18155992.33164
  21136313.9524   -9720322.22546  -7171206.52161
  21648214.5074    2721607.62245   2144233.45661
  19637018.562   -24552231.090 7 -18971097.40724
 91  4 10  0  0 44.9950000  0  5G15G 2G13G19G 6
  22144893.6634   -6215336.39446  -4714816.52061
  19444948.5384  -23478451.12747 -18166225.89064
  21123518.054    -9787562.146 6  -7223601.07821
  21652851.116     2745982.989 5   2163227.14221
  19629688.968   -24590748.625 7 -19001111.04923
 91  4 10  0  0 59.9950000  0  5G15G 2G13G19G 6
  22140244.0774   -6239779.12646  -4733862.72961
  19442460.8744  -23491523.93947 -18176412.49064
  21110740.554    -9854707.142 6  -7275921.64221
  21657502.6944    2770438.69645   2182283.44461
  19622373.937   -24629191.704 7 -19031066.67223
 91  4 10  0  1 14.9950000  0  5G15G 2G13G19G 6
  22135617.9134   -6264089.27346  -4752805.64061
  19439983.0464  -23504544.47547 -18186558.35464
  21097980.6014   -9921764.79246  -7328174.14961
  21662173.046     2794966.784 5   2201396.13921
  19615070.226   -24667568.055 7 -19060970.29523
 91  4 10  0  1 29.9950000  0  5G15G 2G13G19G 6
  22131018.7964   -6288255.31546  -4771636.24961
  19437517.5854  -23517501.72647 -18196654.90964
  21085236.1014   -9988723.44846  -7380349.53361
  21666858.4444    2819578.19645   2220573.76061
  19607783.140   -24705866.352 7 -19090813.09924
 91  4 10  0  1 44.9950000  0  5G15G 2G13G19G 6
  22126446.3194   -6312280.32846  -4790356.97961
  19435062.7574  -23530399.21247 -18206704.89164
  21072514.343   -10055586.372 6  -7432450.32921
  21671556.2884    2844269.53445   2239813.66661
  19600508.749   -24744089.597 7 -19120597.42124
 91  4 10  0  1 59.9950000  0  5G15G 2G13G19G 6
  22121900.8514   -6336155.98946  -4808961.32561
  19432621.8434  -23543228.50647 -18216701.73864
  21059810.194   -10122344.783 6  -7484469.65621
  21676269.273     2869049.230 5   2259122.41821
  19593251.624   -24782229.153 7 -19150316.53224
 91  4 10  0  2 14.9950000  0  5G15G 2G13G19G 6
  22117388.0854   -6359881.73146  -4827448.86061
  19430193.9524  -23555989.26947 -18226645.18264
  21047127.569   -10188997.900 6  -7536406.96421
  21681001.9294    2893917.56445   2278500.24161
  19586009.788   -24820284.271 7 -19179969.84624
 91  4 10  0  2 29.9950000  0  5G15G 2G13G19G 6
  22112897.8124   -6383469.35246  -4845828.75661
  19427775.9994  -23568693.89547 -18236544.88564
  21034460.523   -10255557.710 6  -7588271.55821
  21685750.0774    2918862.05045   2297937.40461
  19578781.640   -24858267.054 7 -19209566.79523
 91  4 10  0  2 44.9950000  0  5G15G 2G13G19G 6
  22108439.5464   -6406915.20546  -4864098.18061
  19425370.0234  -23581338.89347 -18246398.12664
  21021812.523   -10322020.542 6  -7640060.58721
  21690511.968     2943886.024 5   2317436.49821
  19571568.640   -24896173.754 7 -19239104.45924
 91  4 10  0  2 59.9950000  0  5G15G 2G13G19G 6
  22104002.9764   -6430214.78346  -4882253.64261
  19422975.8744  -23593919.58647 -18256201.26264
  21009183.687   -10388381.367 6  -7691770.12821
  21695290.6794    2968993.73245   2337000.85061
  19564369.640   -24933999.609 7 -19268579.12823
 91  4 10  0  3 14.9950000  0  5G15G 2G13G19G 6
  22099600.7574   -6453354.87846  -4900284.81461
  19420595.8744  -23606423.10147 -18265944.25664
  20996577.0854  -10454626.79446  -7743389.76161
  21700085.757     2994198.096 5   2356640.51221
  19557190.2104  -24971731.50847 -19297980.57864
 91  4 10  0  3 29.9950000  0  5G15G 2G13G19G 6
  22095223.2654   -6476346.92845  -4918200.63161
  19418229.3124  -23618861.22847 -18275636.29564
  20983991.960   -10520768.269 6  -7794928.38521
  21704896.054     3019487.388 5   2376346.34721
  19550025.6164  -25009380.59247 -19327317.49763
 91  4 10  0  3 44.9950000  0  5G15G 2G13G19G 6
  22090878.866    -6499190.886 5  -4936001.04321
  19415874.9994  -23631233.95547 -18285277.37664
  20971424.6634  -10586805.31446  -7846385.64161
  21709726.632     3044861.571 5   2396118.33321
  19542876.476   -25046946.521 7 -19356589.62623
 91  4 10  0  3 59.9950000  0  5G15G 2G13G19G 6
  22086558.3824   -6521887.92046  -4953686.97961
  19413532.8664  -23643542.96547 -18294868.81164
  20958877.5624  -10652739.39146  -7897762.65861
  21714570.6404    3070319.13945   2415955.30161
  19535744.1164  -25084430.78647 -19385798.11663
 91  4 10  0  4 14.9950000  0  5G15G 2G13G19G 6
  22082266.4684   -6544438.82346  -4971259.05461
  19411202.5934  -23655789.20947 -18304411.32964
  20946350.2104  -10718571.04046  -7949059.87761
  21719432.0694    3095859.06445   2435856.43061
  19528625.8664  -25121833.98847 -19414943.43863
 91  4 10  0  4 29.9950000  0  5G15G 2G13G19G 6
  22078003.616    -6566837.320 6  -4988712.36821
  19408884.5154  -23667966.56447 -18313900.16864
  20933844.233   -10784293.693 6  -8000272.14721
  21724307.405     3121487.179 5   2455826.28821
  19521524.9054  -25159149.61747 -19444020.52263
 91  4 10  0  4 44.9950000  0  5G15G 2G13G19G 6
  22073770.9214   -6589087.98146  -5006050.48061
  19406579.7024  -23680079.87447 -18323339.09964
  20921357.1794  -10849911.54546  -8051402.77161
  21729200.1244    3147198.73745   2475861.15561
  19514440.1084  -25196382.18347 -19473032.88463
 91  4 10  0  4 59.9950000  0  5G15G 2G13G19G 6
  22069561.4524   -6611191.14446  -5023273.65961
  19404286.8824  -23692129.49347 -18332728.40664
  20908890.624   -10915424.857 6  -8102451.93721
  21734111.327     3172993.224 5   2495960.64821
  19507371.1794  -25233531.95047 -19501980.72663
 91  4 10  0  5 14.9950000  0  5G15G 2G13G19G 6
  22065388.2734   -6633143.58546  -5040379.40461
  19402006.2734  -23704112.64247 -18342065.91364
  20896443.108   -10980830.452 6  -8153417.16521
  21739034.421     3198873.463 5   2516126.95521
  19500317.7494  -25270595.65947 -19530861.50463
 91  4 10  0  5 29.9950000  0  5G15G 2G13G19G 6
  22061239.030    -6654948.245 6  -5057369.97521
  19399737.4524  -23716032.34847 -18351353.99064
  20884017.515   -11046131.155 6  -8204300.65421
  21743975.773     3224836.242 5   2536357.58521
  19493279.8194  -25307576.11347 -19559677.41363
 91  4 10  0  5 44.9950000  0  5G15G 2G13G19G 6
  22057116.9914   -6676601.54646  -5074242.62261
  19397482.4374  -23727885.05847 -18360589.86164
  20871613.2024  -11111322.98146  -8255099.30661
  21748931.843     3250885.102 5   2556655.29421
  19486260.062   -25344469.502 7 -19588425.47623
 91  4 10  0  5 59.9950000  0  5G15G 2G13G19G 6
  22053024.8584   -6698112.73946  -5091004.52561
  19395237.4524  -23739680.50447 -18369781.11164
  20859224.0934  -11176415.24346  -8305820.38261
  21753904.015     3277010.242 5   2577012.43321
  19479254.5934  -25381285.11847 -19617112.94563
 91  4 10  0  6 14.9950000  0  5G15G 2G13G19G 6
  22048961.2184   -6719472.00046  -5107648.04961
  19393006.4994  -23751408.97847 -18378920.17064
  20846860.601   -11241397.932 6  -8356456.07421
  21758891.882     3303221.316 5   2597436.54021
  19472264.9524  -25418013.03747 -19645732.07163
 91  4 10  0  6 29.9950000  0  5G15G 2G13G19G 6
  22044923.0854   -6740679.11846  -5124173.01661
  19390787.7574  -23763070.56547 -18388007.11464
  20834513.632   -11306270.634 6  -8407006.05421
  21763896.8584    3329518.05045   2617927.39061
  19465292.3664  -25454652.97247 -19674282.63863
 91  4 10  0  6 44.9950000  0  5G15G 2G13G19G 6
  22040913.7024   -6761745.81646  -5140588.55161
  19388578.0154  -23774677.16247 -18397051.21064
  20822188.585   -11371044.949 6  -8457479.38621
  21768914.765     3355888.518 5   2638475.69721
  19458335.1554  -25491216.46847 -19702773.64463
 91  4 10  0  6 59.9950000  0  5G15G 2G13G19G 6
  22036933.5774   -6782668.94246  -5156892.22961
  19386380.4054  -23786225.50147 -18406049.91164
  20809880.163   -11435717.449 6  -8507873.37321
  21773945.452     3382335.875 5   2659083.92421
  19451392.8984  -25527700.10747 -19731202.42163
 91  4 10  0  7 14.9950000  0  5G15G 2G13G19G 6
  22032978.5304   -6803446.69246  -5173082.62661
  19384194.1404  -23797714.13147 -18415002.08464
  20797593.679   -11500286.216 6  -8558186.53321
  21778995.038     3408861.540 5   2679753.16821
  19444464.7804  -25564102.09447 -19759567.57563
 91  4 10  0  7 29.9950000  0  5G15G 2G13G19G 6
  22029050.1324   -6824080.13846  -5189160.57161
  19382019.3514  -23809144.61847 -18423908.95064
  20785326.241   -11564751.973 6  -8608419.42821
  21784057.3904    3435464.09845   2700482.31961
  19437553.7104  -25600423.35847 -19787869.82963
 91  4 10  0  7 44.9950000  0  5G15G 2G13G19G 6
  22025151.3124   -6844571.07946  -5205127.48961
  19379855.2884  -23820518.73447 -18432771.89764
  20773078.663   -11629116.497 6  -8658573.43621
  21789132.726     3462141.434 5   2721269.73921
  19430657.1944  -25636665.53847 -19816110.45863
 91  4 10  0  7 59.9950000  0  5G15G 2G13G19G 6
  22021282.3194   -6864906.88446  -5220973.50661
  19377704.4134  -23831824.06847 -18441581.24164
  20760850.585   -11693366.962 6  -8708638.56621
  21794227.640     3488906.010 5   2742125.15121
  19423777.2734  -25672816.05047 -19844279.65564
 91  4 10  0  8 14.9950000  0  5G15G 2G13G19G 6
  22017441.280    -6885098.720 6  -5236707.34521
  19375563.1794  -23843071.96447 -18450345.83064
  20748644.5074  -11757514.13946  -8758623.21261
  21799334.944     3515746.506 5   2763039.71721
  19416914.0384  -25708885.65247 -19872385.80664
 91  4 10  0  8 29.9950000  0  5G15G 2G13G19G 6
  22013627.655    -6905144.001 6  -5252327.00221
  19373434.0934  -23854259.80247 -18459063.62164
  20736459.054   -11821555.358 6  -8808525.29521
  21804457.429     3542665.317 5   2784015.29721
  19410065.9444  -25744871.69447 -19900426.84564
 91  4 10  0  8 44.9950000  0  5G15G 2G13G19G 6
  22009841.515    -6925041.233 6  -5267831.28221
  19371316.9294  -23865386.60947 -18467733.85164
  20724292.030   -11885489.308 6  -8858343.80221
  21809594.7494    3569663.38245   2805052.64661
  19403234.5464  -25780772.86347 -19928401.75364
 91  4 10  0  8 59.9950000  0  5G15G 2G13G19G 6
  22006082.0464   -6944789.74546  -5283219.67761
  19369211.7104  -23876451.98547 -18476356.21464
  20712144.937   -11949315.190 6  -8908078.09121
  21814746.327     3596740.992 5   2826151.96621
  19396419.3274  -25816588.28447 -19956309.84563
 91  4 10  0  9 14.9950000  0  5G15G 2G13G19G 6
  22002351.960    -6964389.293 6  -5298492.00521
  19367117.179   -23887455.643 7 -18484930.48024
  20700020.687   -12013032.319 6  -8957727.63621
  21819916.179     3623898.380 5   2847313.45921
  19389619.3904  -25852317.43547 -19984150.71064
 91  4 10  0  9 29.9950000  0  5G15G 2G13G19G 6
  21998649.3194   -6983846.71746  -5313653.57361
  19365033.7104  -23898404.76047 -18493462.25264
  20687915.0304  -12076647.49946  -9007297.74161
  21825098.960     3651128.353 5   2868531.50621
  19382835.9374  -25887967.35647 -20011929.84064
 91  4 10  0  9 44.9950000  0  5G15G 2G13G19G 6
  21994976.7654   -7003158.79446  -5328701.88161
  19362961.155   -23909296.232 7 -18501949.10024
  20675829.5464  -12140157.33646  -9056785.77361
  21830294.7884    3678433.78945   2889808.35961
  19376068.3044  -25923534.36747 -20039644.36064
 91  4 10  0  9 59.9950000  0  5G15G 2G13G19G 6
  21991325.5464   -7022331.50646  -5343641.60661
  19360898.5304  -23920136.14547 -18510395.77564
  20663764.0384  -12203567.30646  -9106195.97261
  21835504.093     3705808.645 5   2911139.29921
  19369314.0464  -25959024.40247 -20067298.90264
 91  4 10  0 10 14.9950000  0  5G15G 2G13G19G 6
  21987705.5624   -7041358.09146  -5358467.45761
  19358846.4374  -23930918.09047 -18518797.28264
  20651715.8904  -12266870.83946  -9155523.24261
  21840725.9294    3733259.10845   2932529.16261
  19362576.2964  -25994430.66547 -20094888.16864
 91  4 10  0 10 29.9950000  0  5G15G 2G13G19G 6
  21984114.1634   -7060237.85846  -5373178.91561
  19356805.6244  -23941641.60847 -18527153.26964
  20639690.991   -12330067.080 6  -9204766.90521
  21845965.8194    3760785.62845   2953978.28261
  19355854.530   -26029752.325 7 -20122411.51324
 91  4 10  0 10 44.9950000  0  5G15G 2G13G19G 6
  21980546.444    -7078976.349 6  -5387780.28421
  19354775.1714  -23952312.38347 -18535468.15364
  20627683.1084  -12393161.35146  -9253931.11961
  21851217.046     3788382.382 5   2975482.13621
  19349148.671   -26064994.956 7 -20149873.28124
 91  4 10  0 10 59.9950000  0  5G15G 2G13G19G 6
  21977008.351    -7097567.235 6  -5402266.64221
  19352756.1554  -23962924.01047 -18543736.94964
  20615697.976   -12456147.029 6  -9303010.69821
  21856483.257     3816055.761 5   2997045.68821
  19342458.6014  -26100151.76447 -20177268.16864
 91  4 10  0 11 14.9950000  0  5G15G 2G13G19G 6
  21973497.819    -7116011.995 6  -5416639.12921
  19350748.1324  -23973478.01047 -18551960.83264
  20603732.2804  -12519025.20346  -9352006.52561
  21861762.523     3843804.172 5   3018667.71421
  19335783.960   -26135223.839 7 -20204597.03324
 91  4 10  0 11 29.9950000  0  5G15G 2G13G19G 6
  21970015.733    -7134313.690 6  -5430900.14621
  19348749.5854  -23983978.09047 -18560142.71364
  20591786.7884  -12581798.95846  -9400920.98761
  21867056.4134    3871623.89545   3040345.30461
  19329125.241   -26170214.667 7 -20231862.58824
 91  4 10  0 11 44.9950000  0  5G15G 2G13G19G 6
  21966562.983    -7152465.848 6  -5445044.64121
  19346763.5154  -23994417.68247 -18568277.46264
  20579862.6794  -12644461.67746  -9449748.92161
  21872365.491     3899521.130 5   3062083.29821
  19322483.3984  -26205117.46047 -20259059.54364
 91  4 10  0 11 59.9940000  0  5G15G 2G13G19G 6
  21963135.705    -7170466.862 6  -5459071.36221
  19344788.7134  -24004795.65147 -18576364.19264
  20567960.8694  -12707008.29246  -9498486.38961
  21877691.2294    3927494.49145   3083880.60661
  19315858.682   -26239929.287 7 -20286185.61624
 91  4 10  0 12 14.9940000  0  5G15G 2G13G19G 6
  21959737.885    -7188325.738 6  -5472987.31421
  19342823.6434  -24015120.39547 -18584409.44164
  20556076.7214  -12769453.96146  -9547145.19861
  21883026.971     3955540.662 5   3105734.63821
  19309249.549   -26274661.183 7 -20313249.40724
 91  4 10  0 12 29.9940000  0  5G15G 2G13G19G 6
  21956367.721    -7206037.572 6  -5486788.70821
  19340869.5574  -24025387.40747 -18592409.70364
  20544213.9714  -12831790.30046  -9595718.81861
  21888378.143     3983661.575 5   3127646.92721
  19302657.127   -26309306.724 7 -20340245.91024
 91  4 10  0 12 44.9940000  0  5G15G 2G13G19G 6
  21953027.9554   -7223597.09746  -5500471.40261
  19338927.4794  -24035591.98247 -18600361.31864
  20532374.7214  -12894012.30046  -9644203.34161
  21893741.846     4011861.967 5   3149621.15721
  19296081.9084  -26343860.95147 -20367171.25464
 91  4 10  0 12 59.9940000  0  5G15G 2G13G19G 6
  21949712.838    -7241009.527 6  -5514039.48421
  19336997.0254  -24045739.28847 -18608268.31264
  20520553.5184  -12956124.76746  -9692602.51461
  21899126.604     4040136.463 4   3171653.11721
  19289522.7054  -26378328.52747 -20394029.07664
 91  4 10  0 13 14.9940000  0  5G15G 2G13G19G 6
  21946426.0494   -7258274.44346  -5527492.60361
  19335076.9714  -24055829.26947 -18616130.63864
  20508755.7134  -13018126.85346  -9740915.68461
  21904520.6664    4068485.20745   3193742.91361
  19282980.7444  -26412709.17547 -20420819.16564
 91  4 10  0 13 29.9940000  0  5G15G 2G13G19G 6
  21943174.041    -7275382.135 6  -5540823.22221
  19333169.4004  -24065852.29547 -18623940.78764
  20496979.8694  -13080009.01346  -9789135.40161
  21909926.7914    4096917.40244   3215897.76761
  19276456.1434  -26446993.07647 -20447533.86464
 91  4 10  0 13 44.9940000  0  5G15G 2G13G19G 6
  21939945.760    -7292332.947 6  -5554031.59321
  19331275.2684  -24075808.59347 -18631698.93364
  20485227.455   -13141771.221 6  -9837261.65321
  21915356.0334    4125432.51744   3238117.20961
  19269950.518   -26481180.300 7 -20474173.23624
 91  4 10  0 13 59.9940000  0  5G15G 2G13G19G 6
  21936749.1194   -7309139.25146  -5567127.37061
  19329391.0804  -24085711.04247 -18639415.12464
  20473495.1354  -13203426.02346  -9885304.21161
  21920798.611     4154017.825 4   3260391.35321
  19263460.893   -26515283.288 7 -20500746.96924
 91  4 10  0 14 14.9940000  0  5G15G 2G13G19G 6
  21933577.0254   -7325792.31346  -5580103.72361
  19327518.4794  -24095550.68047 -18647082.37464
  20461783.9864  -13264964.15046  -9933255.85261
  21926251.783     4182682.183 5   3282727.10521
  19256988.869   -26549292.811 7 -20527247.88424
 91  4 10  0 14 29.9940000  0  5G15G 2G13G19G 6
  21930437.580    -7342299.022 6  -5592966.04521
  19325655.9244  -24105334.88447 -18654706.43164
  20450094.213   -13326392.420 6  -9981121.89421
  21931717.1904    4211418.02845   3305118.55961
  19250533.666   -26583215.850 7 -20553681.39924
 91  4 10  0 14 44.9940000  0  5G15G 2G13G19G 6
  21927326.0804   -7358654.90746  -5605710.83361
  19323804.9714  -24115059.37447 -18662283.95764
  20438427.4324  -13387706.29646 -10028898.79261
  21937202.197     4240229.724 5   3327569.11321
  19244095.791   -26617047.756 7 -20580043.90324
 91  4 10  0 14 59.9940000  0  5G15G 2G13G19G 6
  21924241.041    -7374860.872 6  -5618338.80921
  19321966.5724  -24124725.03547 -18669815.63964
  20426779.682   -13448906.460 6 -10076587.08721
  21942698.6434    4269116.10244   3350077.85361
  19237674.494   -26650789.251 7 -20606335.95024
 91  4 10  0 15 14.9940000  0  5G15G 2G13G19G 6
  21921186.182    -7390908.398 6  -5630843.31421
  19320139.4794  -24134323.68847 -18677295.10764
  20415157.690   -13509984.158 6 -10124179.95321
  21948210.0024    4298085.63944   3372651.39061
  19231273.393   -26684431.640 7 -20632550.77824
 91  4 10  0 15 29.9940000  0  5G15G 2G13G19G 6
  21918161.869    -7406807.736 6  -5643232.35821
  19318324.9944  -24143865.73147 -18684730.46564
  20403555.424   -13570949.555 6 -10171685.32121
  21953739.9244    4327127.61244   3395281.39061
  19224887.361   -26717985.049 7 -20658696.27724
 91  4 10  0 15 44.9940000  0  5G15G 2G13G19G 6
  21915166.869    -7422550.777 6  -5655499.61621
  19316520.2684  -24153343.13747 -18692115.45264
  20391978.322   -13631794.257 6 -10219096.63321
  21959279.729     4356249.946 4   3417973.98021
  19218521.963   -26751441.282 7 -20684766.05424
 91  4 10  0 15 59.9940000  0  5G15G 2G13G19G 6
  21912197.8774   -7438144.50246  -5667650.53261
  19314728.3304  -24162762.83247 -18699455.46764
  20380421.729   -13692524.965 6 -10266419.12521
  21964836.041     4385445.512 5   3440723.64421
  19212171.322   -26784806.994 7 -20710765.29124
 91  4 10  0 16 14.9940000  0  5G15G 2G13G19G 6
  21909261.143    -7453581.272 6  -5679679.12521
  19312947.6274  -24172117.21947 -18706744.60064
  20368887.596   -13753133.618 6 -10313646.51521
  21970405.588     4414721.855 5   3463536.26421
  19205841.674   -26818074.200 7 -20736687.76724
 91  4 10  0 16 29.9940000  0  5G15G 2G13G19G 6
  21906352.643    -7468866.461 6  -5691589.62321
  19311179.4244  -24181411.96347 -18713987.25464
  20357375.955   -13813625.494 6 -10360782.89921
  21975993.7834    4444073.33444   3486407.42661
  19199528.283   -26851248.220 7 -20762537.62924
 91  4 10  0 16 44.9940000  0  5G15G 2G13G19G 6
  21903472.088    -7483998.162 6  -5703380.50721
  19309422.1744  -24190645.19347 -18721181.97964
  20345887.377   -13873998.677 6 -10407826.80821
  21981594.268     4473501.479 4   3509338.31521
  19193234.393   -26884326.979 7 -20788313.26224
 91  4 10  0 16 59.9940000  0  5G15G 2G13G19G 6
  21900623.885    -7498977.560 6  -5715052.71121
  19307676.5574  -24199817.96347 -18728329.59164
  20334421.275   -13934253.813 6 -10454778.72121
  21987206.0254    4503005.17044   3532328.07161
  19186957.221   -26917311.407 7 -20814015.40224
 91  4 10  0 17 14.9940000  0  5G15G 2G13G19G 6
  21897801.4244   -7513814.05846  -5726613.58061
  19305940.0024  -24208940.07647 -18735437.73464
  20322974.7834  -13994400.52246 -10501646.15661
  21992834.674     4532574.368 4   3555368.88421
  19180696.971   -26950210.840 7 -20839651.30924
 91  4 10  0 17 29.9940000  0  5G15G 2G13G19G 6
  21895002.463    -7528497.894 6  -5738055.48721
  19304217.1824  -24218001.91047 -18742498.90964
  20311552.893   -14054428.883 6 -10548421.37021
  21998474.440     4562218.585 4   3578468.14121
  19174454.221   -26983015.410 7 -20865213.29724
 91  4 10  0 17 44.9940000  0  5G15G 2G13G19G 6
  21892241.643    -7543026.507 6  -5749376.43521
  19302502.9944  -24227001.10247 -18749511.26864
  20300152.174   -14114335.830 6 -10595101.97021
  22004132.1824    4591940.40644   3601627.87161
  19168230.854   -27015722.220 7 -20890699.09823
 91  4 10  0 17 59.9940000  0  5G15G 2G13G19G 6
  21889503.604    -7557402.236 6  -5760578.25721
  19300802.9004  -24235940.24547 -18756476.83564
  20288775.088   -14174123.740 6 -10641689.81521
  22009799.6194    4621737.14744   3624845.99161
  19162024.572   -27048333.620 7 -20916110.56323
 91  4 10  0 18 14.9940000  0  5G15G 2G13G19G 6
  21886797.4324   -7571627.18946  -5771662.59461
  19299112.7134  -24244821.27147 -18763397.11564
  20277420.580   -14233794.394 6 -10688186.30521
  22015483.690     4651606.551 4   3648120.72221
  19155836.455   -27080851.258 7 -20941448.96824
 91  4 10  0 18 29.9940000  0  5G15G 2G13G19G 6
  21884116.2364   -7585698.34046  -5782627.09261
  19297434.5414  -24253641.35447 -18770269.90964
  20266088.8544  -14293344.47146 -10734588.82861
  22021183.111     4681551.340 4   3671454.20021
  19149667.643   -27113272.140 7 -20966711.97624
 91  4 10  0 18 44.9940000  0  5G15G 2G13G19G 6
  21881471.7914   -7599622.23846  -5793476.83861
  19295766.4864  -24262407.18147 -18777100.42064
  20254778.4164  -14352780.37446 -10780902.39461
  22026894.5494    4711564.62744   3694841.05161
  19143515.494   -27145602.542 7 -20991904.48324
 91  4 10  0 18 59.9940000  0  5G15G 2G13G19G 6
  21878851.236    -7613387.202 6  -5804202.74421
  19294110.6904  -24271107.34147 -18783879.76364
  20243491.4944  -14412090.52946 -10827117.97361
  22032620.5024    4741657.77744   3718290.12661
  19137381.924   -27177830.760 7 -21017017.36524
 91  4 10  0 19 14.9940000  0  5G15G 2G13G19G 6
  21876255.9944   -7627011.71846  -5814819.20861
  19292464.5254  -24279760.27847 -18790622.31564
  20232225.8074  -14471292.79846 -10873249.48861
  22038361.541     4771812.300 4   3741787.03221
  19131265.533   -27209974.970 7 -21042064.78624
 91  4 10  0 19 29.9940000  0  5G15G 2G13G19G 6
  21873694.2684   -7640480.10046  -5825314.00961
  19290829.8774  -24288350.36447 -18797315.89364
  20220982.4864  -14530371.26146 -10919284.53761
  22044114.736     4802043.791 4   3765343.90521
  19125167.635   -27242019.193 7 -21067034.29624
 91  4 10  0 19 44.9940000  0  5G15G 2G13G19G 6
  21871158.4634   -7653797.53946  -5835691.19961
  19289206.5024  -24296883.22747 -18803964.87964
  20209762.4634  -14589331.47746 -10965227.43561
  22049879.252     4832346.557 4   3788956.31421
  19119087.307   -27273968.712 7 -21091930.00023
 91  4 10  0 19 59.9940000  0  5G15G 2G13G19G 6
  21868654.885    -7666965.760 6  -5845952.10621
  19287593.3304  -24305360.53447 -18810570.57464
  20198566.1904  -14648174.80646 -11011079.26361
  22055659.0724    4862718.57744   3812622.69361
  19113025.104   -27305824.940 7 -21116753.01524
 91  4 10  0 20 14.9940000  0  5G15G 2G13G19G 6
  21866176.580    -7679983.052 6  -5856095.39921
  19285990.6044  -24313780.52547 -18817131.60164
  20187390.7684  -14706899.03146 -11056838.28461
  22061452.252     4893161.608 4   3836344.41621
  19106981.197   -27337585.970 7 -21141501.84724
 91  4 10  0 20 29.9940000  0  5G15G 2G13G19G 6
  21863726.8074   -7692854.92646  -5866125.39161
  19284398.5884  -24322148.87647 -18823652.39264
  20176237.5184  -14765509.66946 -11102508.79461
  22067257.205     4923669.890 4   3860116.95221
  19100955.447   -27369256.965 7 -21166180.52423
 91  4 10  0 20 44.9940000  0  5G15G 2G13G19G 6
  21861308.643    -7705569.888 6  -5876033.10521
  19282818.3694  -24330454.32447 -18830124.17364
  20165107.330   -14823995.085 6 -11148081.73421
  22073077.697     4954254.509 4   3883948.99321
  19094947.572   -27400826.337 7 -21190780.01323
 91  4 10  0 20 59.9940000  0  5G15G 2G13G19G 6
  21858918.025    -7718129.483 6  -5885819.75621
  19281248.2364  -24338698.38047 -18836548.11364
  20154001.158   -14882356.244 6 -11193557.84821
  22078909.4794    4984913.85844   3907839.25961
  19088959.111   -27432295.482 7 -21215301.40723
 91  4 10  0 21 14.9940000  0  5G15G 2G13G19G 6
  21856559.932    -7730537.835 6  -5895488.54921
  19279690.5254  -24346885.33147 -18842927.55764
  20142917.354   -14940597.672 6 -11238940.66921
  22084761.7754    5015643.40444   3931784.21661
  19082988.869   -27463668.366 7 -21239747.78823
 91  4 10  0 21 29.9940000  0  5G15G 2G13G19G 6
  21854223.4084   -7742798.19446  -5905042.03761
  19278143.0254  -24355018.23747 -18849264.88564
  20131857.807   -14998721.975 6 -11284232.21621
  22090618.5964    5046439.95444   3955781.39861
  19077037.135   -27494947.857 7 -21264121.40323
 91  4 10  0 21 44.9940000  0  5G15G 2G13G19G 6
  21851918.400    -7754910.139 6  -5914479.86921
  19276605.5414  -24363096.96947 -18855559.99964
  20120819.557   -15056728.438 6 -11329431.94621
  22096492.908     5077303.693 4   3979830.91821
  19071102.846   -27526133.248 7 -21288421.69323
 91  4 10  0 21 59.9940000  0  5G15G 2G13G19G 6
  21849646.580    -7766872.524 6  -5923801.15921
  19275078.4634  -24371120.57747 -18861812.15064
  20109802.846   -15114616.019 6 -11374539.04121
  22102380.596     5108235.453 4   4003933.46121
  19065186.400   -27557223.532 7 -21312647.87523
 91  4 10  0 22 14.9940000  0  5G15G 2G13G19G 6
  21847395.1584   -7778682.11746  -5933003.40761
  19273563.4864  -24379085.77847 -18868018.79564
  20098811.611   -15172380.968 6 -11419550.58221
  22108279.908     5139238.218 4   4028091.32021
  19059288.916   -27588214.955 7 -21336797.01423
 91  4 10  0 22 29.9940000  0  5G15G 2G13G19G 6
  21845179.2604   -7790338.66246  -5942086.39361
  19272058.7604  -24386992.64447 -18874179.99164
  20087841.947   -15230022.948 6 -11464466.30321
  22114192.963     5170311.928 4   4052304.45621
  19053410.361   -27619107.296 7 -21360868.94723
 91  4 10  0 22 44.9940000  0  5G15G 2G13G19G 6
  21842989.9324   -7801844.56946  -5951051.99561
  19270564.8694  -24394843.50147 -18880297.53664
  20076897.658   -15287543.979 6 -11509287.77221
  22120118.135     5201454.205 4   4076571.02521
  19047550.080   -27649902.432 7 -21384865.14223
 91  4 10  0 22 59.9940000  0  5G15G 2G13G19G 6
  21840823.7914   -7813203.85846  -5959903.35961
  19269081.7604  -24402642.40447 -18886374.59864
  20065973.158   -15344948.124 6 -11554018.16321
  22126060.455     5232660.714 4   4100887.66021
  19041706.893   -27680604.285 7 -21408788.64024
 91  4 10  0 23 14.9940000  0  5G15G 2G13G19G 6
  21838693.6194   -7824416.16146  -5968640.18761
  19267607.0884  -24410388.89947 -18892410.82664
  20055071.190   -15402234.690 6 -11598656.94521
  22132008.6744    5263931.90044   4125254.67961
  19035882.486   -27711212.226 7 -21432638.95623
 91  4 10  0 23 29.9940000  0  5G15G 2G13G19G 6
  21836590.1824   -7835479.56846  -5977260.99161
  19266141.9474  -24418081.32247 -18898404.91865
  20044192.565   -15459401.525 6 -11643202.42421
  22137971.5574    5295269.28944   4149673.29061
  19030075.869   -27741724.290 7 -21456414.57223
 91  4 10  0 23 44.9940000  0  5G15G 2G13G19G 6
  21834512.7214   -7846390.68946  -5985763.13061
  19264688.6504  -24425716.81847 -18904354.65564
  20033337.166   -15516445.226 6 -11687651.94921
  22143950.479     5326675.699 4   4174145.66921
  19024288.775   -27772137.078 7 -21480112.82624
 91  4 10  0 23 59.9940000  0  5G15G 2G13G19G 6
  21832463.690    -7857153.014 6  -5994149.32121
  19263245.7294  -24433298.67447 -18910262.58964
  20022504.854   -15573369.198 6 -11732008.18421
  22149937.9244    5358147.52644   4198669.02961
  19018519.752   -27802453.847 7 -21503736.26223
 91  4 10  0 24 14.9940000  0  5G15G 2G13G19G 6
  21830445.2994   -7867764.26446  -6002417.79661
  19261814.4944  -24440824.82247 -18916127.12464
  20011697.385   -15630170.944 6 -11776269.17421
  22155939.150     5389686.795 4   4223244.95621
  19012770.018   -27832672.048 7 -21527282.89323
 91  4 10  0 24 29.9940000  0  5G15G 2G13G19G 6
  21828454.4244   -7878229.80446  -6010572.73661
  19260391.4404  -24448300.46247 -18921952.29565
  20000910.244   -15686855.265 6 -11820438.66821
  22161955.1744    5421287.98544   4247869.12861
  19007037.861   -27862796.680 7 -21550756.61223
 91  4 10  0 24 44.9940000  0  5G15G 2G13G19G 6
  21826491.807    -7888542.121 6  -6018608.27921
  19258979.8224  -24455717.85147 -18927732.07764
  19990146.611   -15743414.305 6 -11864510.54521
  22167981.9164    5452958.56344   4272547.34761
  19001324.893   -27892819.892 7 -21574151.30123
 91  4 10  0 24 59.9940000  0  5G15G 2G13G19G 6
  21824555.940    -7898707.233 6  -6026529.12621
  19257579.1194  -24463083.04747 -18933471.18864
  19979405.916   -15799853.913 6 -11908489.35221
  22174019.315     5484692.561 4   4297274.99621
  18995628.893   -27922747.343 7 -21597471.36923
 91  4 10  0 25 14.9940000  0  5G15G 2G13G19G 6
  21822648.775    -7908715.334 6  -6034327.61921
  19256190.4164  -24470386.56747 -18939162.23964
  19968690.619   -15856164.387 6 -11952367.53921
  22180070.080     5516499.413 4   4322059.38921
  18989954.197   -27952569.119 7 -21620709.10023
 91  4 10  0 25 29.9940000  0  5G15G 2G13G19G 6
  21820773.3774   -7918573.90046  -6042009.58961
  19254810.2914  -24477636.18247 -18944811.27964
  19957997.955   -15912352.975 6 -11996150.74721
  22186137.268     5548370.968 4   4346894.23821
  18984298.150   -27982292.784 7 -21643870.37724
 91  4 10  0 25 44.9940000  0  5G15G 2G13G19G 6
  21818931.033    -7928277.919 6  -6049571.13021
  19253441.3074  -24484827.14847 -18950414.62164
  19947329.377   -15968414.682 6 -12039835.08821
  22192214.3614    5580312.04244   4371783.24261
  18978660.377   -28011913.145 7 -21666951.15323
 91  4 10  0 25 59.9940000  0  5G15G 2G13G19G 6
  21817108.182    -7937838.386 6  -6057020.81721
  19252082.1584  -24491969.93847 -18955980.42064
  19936684.377   -16024359.649 6 -12083428.46521
  22198304.596     5612311.990 4   4396718.10721
  18973042.143   -28041440.666 7 -21689959.58823
 91  4 10  0 26 14.9940000  0  5G15G 2G13G19G 6
  21815319.7444   -7947254.19246  -6064357.77561
  19250731.7834  -24499063.88447 -18961508.16564
  19926060.502   -16080187.047 6 -12126930.22521
  22204406.4944    5644371.62644   4421699.49561
  18967441.0254  -28070874.14747 -21712894.74263
 91  4 10  0 26 29.9940000  0  5G15G 2G13G19G 6
  21813548.7914   -7956523.00846  -6071580.19361
  19249392.7054  -24506106.30647 -18966995.76264
  19915459.502   -16135893.900 6 -12170338.05621
  22210523.275     5676493.051 4   4446729.05421
  18961859.1434  -28100210.79547 -21735754.43664
 91  4 10  0 26 44.9940000  0  5G15G 2G13G19G 6
  21811818.838    -7965641.325 6  -6078685.35221
  19248062.5104  -24513094.00847 -18972440.72164
  19904881.588   -16191476.639 6 -12213649.18121
  22216642.6974    5708679.61644   4471809.34761
  18956295.463   -28129447.002 7 -21758535.86823
 91  4 10  0 26 59.9940000  0  5G15G 2G13G19G 6
  21810111.7364   -7974609.36246  -6085673.40561
  19246742.7524  -24520027.22347 -18977843.21964
  19894328.908   -16246935.357 6 -12256863.65421
  22222779.299     5740930.793 4   4496939.96921
  18950751.518   -28158582.713 7 -21781238.99223
 91  4 10  0 27 14.9940000  0  5G15G 2G13G19G 6
  21808430.3614   -7983428.19946  -6092545.19261
  19245434.2524  -24526906.89247 -18983203.99264
  19883799.479   -16302270.775 6 -12299982.06321
  22228927.6504    5773245.55544   4522120.14561
  18945225.5254  -28187618.55947 -21803864.29863
 91  4 10  0 27 29.9940000  0  5G15G 2G13G19G 6
  21806782.0964   -7992098.05946  -6099300.88961
  19244135.8154  -24533733.59447 -18988523.49264
  19873292.8384  -16357483.09746 -12343004.55061
  22235089.088     5805623.196 3   4547349.33321
  18939718.1664  -28216554.96047 -21826412.11663
 91  4 10  0 27 44.9940000  0  5G15G 2G13G19G 6
  21805160.8694   -8000618.79846  -6105940.40861
  19242845.8854  -24540507.27547 -18993801.67964
  19862808.885   -16412572.269 6 -12385931.07121
  22241264.1194    5838063.43943   4572627.29061
  18934230.940   -28245391.599 7 -21848882.19924
 91  4 10  0 27 59.9940000  0  5G15G 2G13G19G 6
  21803570.221    -8008989.154 6  -6112462.73121
  19241567.1664  -24547226.66047 -18999037.55464
  19852349.252   -16467536.439 6 -12428760.19121
  22247451.3074    5870567.47443   4597954.97161
  18928763.5884  -28274126.94147 -21871273.34564
 91  4 10  0 28 14.9940000  0  5G15G 2G13G19G 6
  21802004.729    -8017216.842 6  -6118873.89921
  19240297.7834  -24553899.41147 -19004237.09264
  19841912.119   -16522383.182 6 -12471497.81321
  22253645.3384    5903127.50843   4623326.25661
  18923312.8774  -28302768.31347 -21893591.26963
 91  4 10  0 28 29.9940000  0  5G15G 2G13G19G 6
  21800466.2684   -8025288.88246  -6125163.76261
  19239038.9864  -24560512.55247 -19009390.17764
  19831500.877   -16577099.246 6 -12514133.60421
  22259851.979     5935756.432 3   4648751.22521
  18917882.283   -28331302.305 7 -21915825.52523
 91  4 10  0 28 44.9940000  0  5G15G 2G13G19G 6
  21798959.4244   -8033203.27046  -6131330.79361
  19237792.1664  -24567064.00247 -19014495.19664
  19821113.682   -16631682.178 6 -12556665.65621
  22266077.6664    5968456.12543   4674231.34961
  18912474.729   -28359726.716 7 -21937974.38924
 91  4 10  0 28 59.9940000  0  5G15G 2G13G19G 6
  21797481.619    -8040964.895 6  -6137378.78121
  19236556.1354  -24573559.01147 -19019556.23164
  19810751.1664  -16686136.81246 -12599097.74361
  22272311.1194    6001221.35043   4699762.56661
  18907084.674   -28388046.356 7 -21960041.61724
 91  4 10  0 29 14.9940000  0  5G15G 2G13G19G 6
  21796034.3304   -8048577.88346  -6143310.94861
  19235330.2834  -24580001.75847 -19024576.54464
  19800412.0804  -16740467.34246 -12641433.12061
  22278561.627     6034047.860 3   4725341.51621
  18901716.244   -28416265.135 7 -21982030.25624
 91  4 10  0 29 29.9940000  0  5G15G 2G13G19G 6
  21794618.979    -8056041.160 6  -6149126.46821
  19234113.2524  -24586390.90047 -19029555.09164
  19790096.9714  -16794672.01246 -12683670.42861
  22284816.4554    6066936.87243   4750969.14461
  18896364.822   -28444381.493 7 -22003939.08224
 91  4 10  0 29 44.9940000  0  5G15G 2G13G19G 6
  21793222.9404   -8063345.64346  -6154818.24261
  19232911.4404  -24592717.71347 -19034485.06564
  19779807.3774  -16848741.82346 -12725802.64761
  22291090.596     6099896.740 3   4776651.99321
  18891035.463   -28472386.321 7 -22025761.00124
 91  4 10  0 29 59.9940000  0  5G15G 2G13G19G 6
  21791867.9714   -8070496.05646  -6160389.96361
  19231716.8154  -24598986.52347 -19039369.84564
  19769543.5254  -16902680.89646 -12767832.99761
  22297375.197     6132922.727 3   4802386.38721
  18885726.565   -28500283.881 7 -22047499.34024
 91  4 10  0 30 14.9940000  0  5G15G 2G13G19G 6
  21790530.1824   -8077498.56346  -6165846.42261
  19230535.4864  -24605203.86947 -19044214.52364
  19759303.3384  -16956495.56546 -12809766.40561
  22303672.6584    6166008.34643   4828167.22361
  18880437.3934  -28528080.31347 -22069158.86964
 91  4 10  0 30 29.9940000  0  5G15G 2G13G19G 6
  21789230.2294   -8084351.03946  -6171185.97761
  19229360.3464  -24611367.43047 -19049017.29364
  19749085.6504  -17010183.03546 -12851600.70161
  22309978.299     6199155.712 3   4853996.17721
  18875167.471   -28555773.102 7 -22090737.64323
 91  4 10  0 30 44.9940000  0  5G15G 2G13G19G 6
  21787949.135    -8091058.013 6  -6176412.16721
  19228198.4634  -24617481.79847 -19053781.72864
  19738893.6434  -17063748.09446 -12893339.61261
  22316298.7834    6232359.98243   4879869.47861
  18869916.111   -28583366.608 7 -22112239.05323
 91  4 10  0 30 59.9940000  0  5G15G 2G13G19G 6
  21786704.7994   -8097613.07746  -6181519.96461
  19227045.6974  -24623540.66547 -19058502.91864
  19728724.346   -17117184.107 6 -12934977.97021
  22322628.6744    6265627.28043   4905791.90361
  18864685.666   -28610854.206 7 -22133657.93723
 91  4 10  0 31 14.9940000  0  5G15G 2G13G19G 6
  21785488.9004   -8104017.75446  -6186510.59161
  19225901.5254  -24629545.64547 -19063182.11864
  19718580.7524  -17170492.27846 -12976516.70761
  22328970.182     6298956.197 3   4931762.34021
  18859475.033   -28638237.123 7 -22154995.25723
 91  4 10  0 31 29.9940000  0  5G15G 2G13G19G 6
  21784295.2684   -8110267.59146  -6191380.56161
  19224769.7134  -24635492.50347 -19067816.02964
  19708461.7754  -17223667.93746 -13017952.19361
  22335325.432     6332350.923 2   4957784.02921
  18854285.775   -28665510.760 7 -22176247.41924
 91  4 10  0 31 44.9940000  0  5G15G 2G13G19G 6
  21783134.9474   -8116364.55446  -6196131.40161
  19223650.0884  -24641382.98547 -19072406.01064
  19698366.8384  -17276712.73946 -13059285.71261
  22341691.4244    6365809.45943   4983855.46461
  18849115.650   -28692676.754 7 -22197415.70724
 91  4 10  0 31 59.9940000  0  5G15G 2G13G19G 6
  21782002.369    -8122315.964 6
  19222538.9244  -24647224.09447
  19688295.6744  -17329633.54346 -13100522.60561
  22348066.3384    6399324.45643   5009970.91561
  18843964.440   -28719741.855 7 -22218505.38023
 91  4 10  0 32 14.9940000  0  5G15G 2G13G19G 6
  21780897.869    -8128111.022 6
  19221438.9004  -24653005.25347
  19678252.1274  -17382419.33746 -13141654.30461
  22354456.8614    6432906.30043   5036138.43861
  18838835.025   -28746695.169 7 -22239507.93924
 91  4 10  0 32 29.9940000  0  5G15G 2G13G19G 6
  21779822.963    -8133754.205 6
  19220348.2994  -24658731.42047 -19085924.26764
  19668232.0884  -17435074.78146 -13182684.43061
  22360863.0804    6466550.07743   5062354.19661
  18833726.986   -28773541.094 7 -22260426.82324
 91  4 10  0 32 44.9940000  0  5G15G 2G13G19G 6
  21778779.986    -8139247.055 6
  19219268.5804  -24664403.86147 -19090344.34764
  19658236.0024  -17487601.11246 -13223613.94261
  22367278.0964    6500254.14943   5088616.99261
  18828638.744   -28800280.944 7 -22281263.04824
 91  4 10  0 32 59.9940000  0  5G15G 2G13G19G 6
  21777767.783    -8144585.904 6        -0.37731
  19218200.0104  -24670018.71347 -19094719.55364
  19648265.7364  -17539994.27146 -13264439.69261
  22373699.6044    6534022.25943   5114929.65661
  18823571.463   -28826910.536 7 -22302013.36424
 91  4 10  0 33 14.9940000  0  5G15G 2G13G19G 6
  21776781.6584   -8149775.40246     -4044.11161
  19217141.4634  -24675580.56547 -19099053.46064
  19638320.5574  -17592258.31746 -13305164.83761
  22380138.549     6567849.745 3   5141288.58721
  18818524.158   -28853434.076 7 -22322681.03724
 91  4 10  0 33 29.9940000  0  5G15G 2G13G19G 6
  21775817.8224   -8154812.55846     -7969.12561
  19216094.0654  -24681086.79347 -19103344.02664
  19628399.1114  -17644390.45546 -13345787.18961
  22386585.0574    6601739.06843   5167695.72461
  18813497.244   -28879848.593 7 -22343263.75924
 91  4 10  0 33 44.9940000  0  5G15G 2G13G19G 6
  21774890.6274   -8159697.58046    -11775.60961
  19215056.2604  -24686537.40547 -19107591.25564
  19618505.2294  -17696390.80546 -13386306.85661
  22393051.1824    6635689.90143   5194150.74961
  18808492.377   -28906154.023 7 -22363761.47724
 91  4 10  0 33 59.9940000  0  5G15G 2G13G19G 6
  21773989.0804   -8164430.72146    -15463.73061
  19214030.5574  -24691932.51347 -19111795.23464
  19608633.8074  -17748259.17946 -13426723.68661
  22399519.627     6669701.961 4   5220653.50721
  18803506.440   -28932350.378 7 -22384174.20424
 91  4 10  0 34 14.9940000  0  5G15G 2G13G19G 6
  21773116.8224   -8169009.32546    -19031.44561
  19213013.1434  -24697269.53047 -19115953.95264
  19598789.908   -17799992.411 6 -13467035.20521
  22406007.877     6703777.775 3   5247205.95221
  18798543.736   -28958434.533 7 -22404499.50324
 91  4 10  0 34 29.9940000  0  5G15G 2G13G19G 6
  21772272.3074   -8173442.66046    -22485.95961
  19212008.8224  -24702557.81447 -19120074.69264
  19588968.0104  -17851599.75346 -13507248.63061
  22412502.6044    6737907.86443   5273800.67361
  18793597.791   -28984415.571 7 -22424744.45323
 91  4 10  0 34 44.9940000  0  5G15G 2G13G19G 6
  21771460.8384   -8177723.16246    -25821.39061
  19211011.4634  -24707789.82747 -19124151.58564
  19579173.111   -17903073.689 6 -13547358.10821
  22419010.158     6772099.484 3   5300443.32221
  18788676.213   -29010285.797 7 -22444903.05923
 91  4 10  0 34 59.9940000  0  5G15G 2G13G19G 6
  21770670.1584   -8181854.30746    -29040.43061
  19210026.2134  -24712969.01847 -19128187.32264
  19569401.7754  -17954417.25046 -13587365.98861
  22425527.4864    6806349.26243   5327131.32661
  18783772.635   -29036048.290 7 -22464977.71824
 91  4 10  0 35 14.9940000  0  5G15G 2G13G19G 6
  21769914.5654   -8185835.22946    -32142.40861
  19209052.1974  -24718094.47847 -19132181.18664
  19559656.775   -18005629.611 6 -13627271.63821
  22432056.2524    6840657.69343   5353865.01061
  18778891.596   -29061702.044 7 -22484967.64223
 91  4 10  0 35 29.9940000  0  5G15G 2G13G19G 6
  21769188.3074   -8189671.21946    -35131.46461
  19208084.8544  -24723171.55847 -19136137.35464
  19549936.3544  -18056715.63946 -13667078.84561
  22438595.2444    6875019.22743   5380640.07461
  18774030.229   -29087251.927 7 -22504876.62623
 91  4 10  0 35 44.9940000  0  5G15G 2G13G19G 6
  21768486.1904   -8193357.00546    -38003.47061
  19207128.5804  -24728194.87247 -19140051.62664
  19540240.0804  -18107669.55646 -13706783.11061
  22445145.4634    6909439.05043   5407460.55061
  18769188.315   -29112692.550 7 -22524700.47524
 91  4 10  0 35 59.9940000  0  5G15G 2G13G19G 6
  21767815.6114   -8196888.22946    -40755.04561
  19206183.6584  -24733159.96947 -19143920.53664
  19530571.197   -18158487.010 6 -13746381.04221
  22451709.9554    6943921.42543   5434329.80361
  18764368.580   -29138019.106 7 -22544435.43923
 91  4 10  0 36 14.9940000  0  5G15G 2G13G19G 6
  21767172.033    -8200269.534 6    -43389.80221
  19205249.5964  -24738071.49947 -19147747.70664
  19520923.5654  -18209172.46446 -13785876.11761
  22458278.7214    6978461.68343   5461244.15361
  18759570.065   -29163235.884 7 -22564084.86323
 91  4 10  0 36 29.9940000  0  5G15G 2G13G19G 6
  21766555.3694   -8203503.14746    -45909.46361
  19204324.8854  -24742931.73547 -19151534.90564
  19511304.9244  -18259727.41846 -13825269.50261
  22464857.3774    7013057.63943   5488201.87161
  18754792.432   -29188344.841 7 -22583650.27024
 91  4 10  0 36 44.9940000  0  5G15G 2G13G19G 6
  21765967.4634   -8206592.30246    -48316.57061
  19203408.5884  -24747744.09847 -19155284.80164
  19501708.057   -18310155.337 6 -13864563.90121
  22471455.315     7047705.492 3   5515200.05121
  18750034.815   -29213349.127 7 -22603134.11824
 91  4 10  0 36 59.9940000  0  5G15G 2G13G19G 6
  21765406.4164   -8209532.28746    -50607.43661
  19202503.7134  -24752503.96147 -19158993.79264
  19492135.4164  -18360451.45846 -13903755.59861
  22478062.697     7082409.617 2   5542242.04821
  18745297.174   -29238243.823 7 -22622532.57224
 91  4 10  0 37 14.9940000  0  4G15G 2G13G 6
  21764874.9004   -8212318.25846    -52778.29061
  19201608.4944  -24757206.12047 -19162657.81564
  19482592.690   -18410610.321 6 -13942840.34421
  18740582.1664  -29263023.59847 -22641841.47664
 91  4 10  0 37 29.9940000  0  4G15G 2G13G 6
  21764375.9324   -8214948.97146    -54828.15861
  19200724.1194  -24761849.42847 -19166275.98164
  19473072.525   -18460630.807 6 -13981817.26221
  18735889.018   -29287687.090 7 -22661059.77024
 91  4 10  0 37 44.9940000  0  4G15G 2G13G 6
  21763905.2054   -8217426.03546    -56758.30861
  19199852.2444  -24766435.40647 -19169849.47264
  19463580.447   -18510514.114 6 -14020687.29321
  18731216.6044  -29312235.52447 -22680188.40964
 91  4 10  0 37 59.9940000  0  4G15G 2G13G 6
  21763459.541    -8219749.923 6    -58569.09721
  19198990.6194  -24770964.52847 -19173378.66264
  19454115.025   -18560260.053 6 -14059450.27721
  18726567.916   -29336668.990 7 -22699227.46124
 91  4 10  0 38 14.9940000  0  4G15G 2G13G 6
  21763050.0254   -8221924.28945    -60263.37561
  19198139.0884  -24775440.32347 -19176866.29864
  19444671.791   -18609872.277 6 -14098109.07521
  18721939.158   -29360990.811 7 -22718179.51524
 91  4 10  0 38 29.9940000  0  4G15G 2G13G 6
  21762659.1434   -8223959.56845    -61849.27661
  19197295.8224  -24779873.32647 -19180320.59064
  19435254.729   -18659361.262 7 -14136671.83821
  18717330.049   -29385211.229 7 -22737052.55623
 91  4 10  0 38 44.9940000  0  4G15G 2G13G 6
  21762302.2754   -8225840.97845    -63315.27561
  19196462.7604  -24784248.77047 -19183730.03164
  19425864.994   -18708711.833 6 -14175126.74821
  18712743.025   -29409315.153 7 -22755834.82223
 91  4 10  0 38 59.9940000  0  4G15G 2G13G 6
  21761973.9554   -8227575.30645    -64666.68761
  19195639.4794  -24788573.09647 -19187099.64064
  19416498.658   -18757930.808 7 -14213479.11521
  18708177.9714  -29433309.16347 -22774531.44463
 91  4 10  0 39 14.9940000  0  4G15G 2G13G 6
  21761669.1194   -8229159.82645    -65901.33461
  19194826.2834  -24792843.71447 -19190427.39864
  19407157.236   -18807014.898 7 -14251726.38421
  18703633.244   -29457190.122 7 -22793139.97123
 91  4 10  0 39 29.9940000  0  4G15G 2G13G 6
  21761393.5654   -8230600.05145    -67023.57361
  19194024.4554  -24797066.09147 -19193717.56764
  19397842.604   -18855969.345 7 -14289872.62921
  18699108.049   -29480963.348 7 -22811664.54823
 91  4 10  0 39 44.9940000  0  4G15G 2G13G 6
  21761149.861    -8231884.396 5    -68024.32521
  19193232.3304  -24801228.74747 -19196961.19864
  19388552.861   -18904782.569 7 -14327908.83021
  18694607.2364  -29504616.93447 -22830095.90463
 91  4 10  0 39 59.9940000  0  4G15G 2G13G 6
  21760937.3384   -8233016.68445    -68906.59761
  19192450.0104  -24805335.28347 -19200161.09864
  19379290.275   -18953458.020 7 -14365837.67521
  18690128.619   -29528154.338 7 -22848436.72523
 91  4 10  0 40 14.9940000  0  4G15G 2G13G 6
  21760746.4714   -8234004.51445    -69676.31261
  19191677.9004  -24809393.09047 -19203323.03364
  19370053.369   -19002002.983 7 -14403664.84821
  18685669.854   -29551582.726 7 -22866692.59823
 91  4 10  0 40 29.9940000  0  4G15G 2G13G 6
  21760588.971    -8234840.653 5    -70327.82621
  19190917.5414  -24813394.97247 -19206441.38664
  19360842.307   -19050410.024 7 -14441384.54121
  18681234.807   -29574894.725 7 -22884857.77823
 91  4 10  0 40 44.9940000  0  4G15G 2G13G 6
  21760452.5724   -8235536.22945    -70869.79861
  19190164.4164  -24817352.10947 -19209524.87364
  19351653.611   -19098689.778 7 -14479005.05421
  18676817.283   -29598101.080 7 -22902940.64123
 91  4 10  0 40 59.9940000  0  4G15G 2G13G 6
  21760355.6904   -8236079.95345    -71293.46261
  19189421.0024  -24821253.01647 -19212564.54464
  19342492.5414  -19146830.87947 -14516517.53061
  18672424.822   -29621190.012 7 -22920932.00323
 91  4 10  0 41 14.9940000  0  4G15G 2G13G 6
  21760281.7684   -8236474.36745    -71600.75261
  19188688.4324  -24825100.67047 -19215562.72464
  19333358.924   -19194835.888 7 -14553923.95721
  18668052.307   -29644164.210 7 -22938833.96324
 91  4 10  0 41 29.9940000  0  4G15G 2G13G 6
  21760229.6274   -8236729.44445    -71799.49961
  19187966.0024  -24828904.57547 -19218526.80864
  19324246.893   -19242714.365 7 -14591231.78921
  18663700.385   -29667033.018 7 -22956653.80023
 91  4 10  0 41 44.9940000  0  4G15G 2G13G 6
  21760207.6434   -8236832.20645
  19187251.5024  -24832651.86347 -19221446.77864
  19315162.4244  -19290453.10447 -14628430.73961
  18659371.432   -29689783.359 7 -22974381.32723
 91  4 10  0 41 59.9940000  0  4G15G 2G13G 6
  21760220.7444   -8236788.44445
  19186548.4474  -24836348.13647 -19224326.99564
  19306103.4244  -19338057.59247 -14665525.07261
  18655063.018   -29712420.668 7 -22992020.77323
 91  4 10  0 42 14.9930000  0  4G15G 2G13G 6
  21760254.427    -8236594.695 5
  19185856.0524  -24839989.66747 -19227164.55364
  19297072.614   -19385520.841 7 -14702509.35021
  18650777.794   -29734939.743 7 -23009568.09323
 91  4 10  0 42 29.9930000  0  4G15G 2G13G 6
  21760323.0214   -8236254.73045
  19185171.8334  -24843580.75547 -19229962.80664
  19288063.989   -19432852.944 7 -14739391.43521
  18646515.1074  -29757346.93847 -23027028.23563
 91  4 10  0 42 44.9930000  0  4G15G 2G13G 6
  21760411.716    -8235774.715 5    -71055.42421
  19184496.9744  -24847127.19247 -19232726.26464
  19279080.8414  -19480056.73347 -14776173.54161
  18642272.0674  -29779646.66147 -23044404.63063
 91  4 10  0 42 59.9930000  0  4G15G 2G13G 6
  21760529.810    -8235144.284 5    -70564.15821
  19183833.4974  -24850618.30847 -19235446.61864
  19270126.0214  -19527121.46347 -14812847.29461
  18638049.5604  -29801828.26447 -23061688.98663
 91  4 10  0 43 14.9930000  0  4G15G 2G13G 6
  21760681.661    -8234369.199 5    -69960.17421
  19183178.3494  -24854060.09047 -19238128.52964
  19261194.2394  -19574052.80647 -14849417.10161
  18633850.1304  -29823897.19647 -23078885.54763
 91  4 10  0 43 29.9930000  0  4G15G 2G13G 6
  21760855.216    -8233450.368 5    -69244.18121
  19182532.5604  -24857453.46747 -19240772.72364
  19252289.3334  -19620851.34147 -14885883.42761
  18629671.646   -29845854.139 7 -23095994.84023
 91  4 10  0 43 44.9930000  0  4G15G 2G13G 6
  21761056.974    -8232389.809 5    -68417.75421
  19181895.6534  -24860800.08047 -19243380.47864
  19243408.0284  -19667518.82747 -14922247.63561
  18625514.591   -29867700.574 7 -23113018.02423
 91  4 10  0 43 59.9930000  0  4G15G 2G13G 6
  21761283.0134   -8231189.62645    -67482.51561
  19181267.6924  -24864101.81747 -19245953.26464
  19234553.4354  -19714056.80547 -14958510.92861
  18621378.1924  -29889438.08147 -23129956.33063
 91  4 10  0 44 14.9930000  0  4G15G 2G13G 6
  21761539.325    -8229847.864 5    -66436.98621
  19180648.3644  -24867356.94147 -19248489.72964
  19225721.3494  -19760463.38947 -14994671.83362
  18617263.1694  -29911064.72347 -23146808.24963
 91  4 10  0 44 29.9930000  0  4G15G 2G13G 6
  21761823.2944   -8228361.49645    -65278.75061
  19180037.5834  -24870562.39847 -19250987.49264
  19216917.325   -19806735.262 7 -15030727.76521
  18613169.4974  -29932577.20747 -23163571.21463
 91  4 10  0 44 44.9930000  0  4G15G 2G13G 6
  21762136.3494   -8226727.57645    -64005.53661
  19179437.0754  -24873715.25047 -19253444.25964
  19208138.0524  -19852869.45247 -15066676.42162
  18609098.9894  -29953972.22047 -23180242.64363
 91  4 10  0 44 59.9930000  0  4G15G 2G13G 6
  21762473.294    -8224951.375 5    -62621.47321
  19178846.9354  -24876820.65747 -19255864.05964
  19199383.3104  -19898870.89547 -15102521.63262
  18605048.0604  -29975254.80347 -23196826.46563
 91  4 10  0 45 14.9930000  0  4G15G 2G13G 6
  21762835.575    -8223034.540 5    -61127.81521
  19178265.8254  -24879880.02947 -19258247.99064
  19190653.833   -19944740.855 7 -15138264.38521
  18601018.2004  -29996426.03147 -23213323.51763
 91  4 10  0 45 29.9930000  0  4G15G 2G13G 6
  21763226.169    -8220977.383 5    -59524.81321
  19177691.4274  -24882893.51947 -19260596.16464
  19181951.5054  -19990479.28247 -15173904.65461
  18597012.810   -30017485.949 7 -23229733.83923
 91  4 10  0 45 44.9930000  0  4G15G 2G13G 6
  21763647.732    -8218773.685 5    -57807.63121
  19177127.6924  -24885854.80747 -19262903.66164
  19173273.7394  -20036079.65447 -15209437.34562
  18593027.2864  -30038428.10947 -23246052.38663
 91  4 10  0 45 59.9930000  0  4G15G 2G13G 6
  21764091.302    -8216429.885 5    -55981.27621
  19176573.9274  -24888770.32447 -19265175.49364
  19164621.3884  -20081548.42347 -15244867.48562
  18589062.4974  -30059258.66247 -23262283.97563
 91  4 10  0 46 14.9930000  0  4G15G 2G13G 6
  21764567.317    -8213938.372 5    -54039.83121
  19176027.6074  -24891632.20447 -19267405.52964
  19155995.4504  -20126877.48247 -15280188.76962
  18585121.5214  -30079969.45247 -23278422.24163
 91  4 10  0 46 29.9930000  0  4G15G 2G13G 6
  21765067.528    -8211301.226 5    -51984.88921
  19175494.7164  -24894442.52047 -19269595.38864
  19147395.4504  -20172069.25947 -15315403.07762
  18581202.6534  -30100562.50947 -23294468.77163
 91  4 10  0 46 44.9930000  0  4G15G 2G13G 6
  21765597.9034   -8208519.84245    -49817.55861
  19174968.7554  -24897202.84547 -19271746.28964
  19138821.0524  -20217124.61847 -15350511.08962
  18577305.4424  -30121038.89747 -23310424.38563
 91  4 10  0 46 59.9930000  0  4G15G 2G13G 6
  21766149.903    -8205604.042 5    -47545.49121
  19174451.9424  -24899922.88347 -19273865.80064
  19130271.2944  -20262052.92447 -15385520.09962
  18573429.724   -30141408.096 7 -23326296.47423
 91  4 10  0 47 14.9930000  0  4G15G 2G13G 6
  21766735.857    -8202543.348 5    -45160.51021
  19173943.3024  -24902591.87147 -19275945.52864
  19121747.8254  -20306843.38347 -15420421.69862
  18569576.700   -30161659.103 7 -23342076.46723
 91  4 10  0 47 29.9930000  0  4G15G 2G13G 6
  21767346.2474   -8199340.91045    -42665.08661
  19173444.9824  -24905212.78448 -19277987.79964
  19113250.2784  -20351498.86747 -15455218.11062
  18565744.466   -30181794.639 7 -23357766.48323
 91  4 10  0 47 44.9930000  0  4G15G 2G13G 6
  21767982.177    -8195994.407 5    -40057.40221
  19172954.4824  -24907783.39747 -19279990.87564
  19104778.1534  -20396017.13847 -15489907.61262
  18561935.567   -30201812.429 7 -23373364.74923
 91  4 10  0 47 59.9930000  0  4G15G 2G13G 6
  21768643.5284   -8192511.16345    -37343.16261
  19172472.6534  -24910310.78047 -19281960.26664
  19096332.661   -20440405.048 7 -15524495.51722
  18558148.208   -30221719.210 7 -23388876.51323
 91  4 10  0 48 14.9930000  0  4G15G 2G13G 6
  21769334.5754   -8188886.63845    -34518.83261
  19172003.9504  -24912789.99248 -19283892.11964
  19087911.364   -20484657.616 7 -15558977.96622
  18554380.974   -30241510.039 7 -23404297.92823
 91  4 10  0 48 29.9930000  0  4G15G 2G13G 6
  21770049.802    -8185122.020 5    -31585.34321
  19171539.4274  -24915222.44148 -19285787.53764
  19079516.802   -20528775.702 7 -15593355.62122
  18550636.021   -30261185.922 7 -23419629.77123
 91  4 10  0 48 44.9930000  0  4G15G 2G13G 6
  21770794.7784   -8181217.22245    -28542.61661
  19171086.1144  -24917608.11547 -19287646.50564
  19071145.919   -20572759.744 7 -15627628.83122
  18546914.966   -30280746.727 7 -23434871.94123
 91  4 10  0 48 59.9930000  0  4G15G 2G13G 6
  21771562.857    -8177175.879 5    -25393.49321
  19170639.2634  -24919950.16047 -19289471.48064
  19062802.0364  -20616612.44547 -15661799.70162
  18543213.716   -30300195.241 7 -23450026.61723
 91  4 10  0 49 14.9930000  0  4G15G 2G13G 6
  21772359.013    -8172991.417 5    -22132.86021
  19170203.1854  -24922242.42447 -19291257.65864
  19054482.9354  -20660327.72347 -15695863.48562
  18539535.6224  -30319525.04947 -23465088.79663
 91  4 10  0 49 29.9930000  0  4G15G 2G13G 6
  21773183.380    -8168663.532 5    -18760.46521
  19169777.5674  -24924484.16647 -19293004.47264
  19046189.8104  -20703904.66347 -15729819.48162
  18535879.567   -30338735.219 7 -23480057.74123
 91  4 10  0 49 44.9930000  0  4G15G 2G13G 6
  21774032.841    -8164198.340 5    -15281.07621
  19169358.1464  -24926681.31247 -19294716.53564
  19037922.7554  -20747349.04047 -15763672.17962
  18532245.310   -30357831.554 7 -23494937.98823
 91  4 10  0 49 59.9930000  0  4G15G 2G13G 6
  21774908.403    -8159598.431 5    -11696.72021
  19168948.0524  -24928836.61347 -19296395.98864
  19029680.6694  -20790663.45447 -15797423.60762
  18528632.755   -30376816.558 7 -23509731.48623
 91  4 10  0 50 14.9930000  0  4G15G 2G13G 6
  21775808.442    -8154861.527 5     -8005.60821
  19168547.1384  -24930947.48947 -19298040.82864
  19021462.5054  -20833845.14247 -15831071.61362
  18525041.380   -30395687.410 7 -23524436.03223
 91  4 10  0 50 29.9930000  0  4G15G 2G13G 6
  21776736.622    -8149986.952 6     -4207.21921
  19168155.2164  -24933013.05347 -19299650.35464
  19013271.1924  -20876892.94747 -15864615.29662
  18521473.107   -30414443.075 7 -23539050.82323
 91  4 10  0 50 44.9930000  0  4G15G 2G13G 6
  21777688.810    -8144974.750 5      -301.59321
  19167769.0134  -24935033.52447 -19301224.74564
  19005104.0134  -20919806.85347 -15898054.64362
  18517924.771   -30433083.362 7 -23553575.70723
 91  4 10  0 50 59.9930000  0  4G15G 2G13G 6
  21778670.5444   -8139821.75546      3713.75161
  19167394.8104  -24937005.42647 -19302761.29664
  18996964.247   -20962583.607 7 -15931387.12722
  18514401.505   -30451604.715 7 -23568007.91523
 91  4 10  0 51 14.9930000  0  4G15G 2G13G 6
  21779679.380    -8134529.129 5      7837.88221
  19167027.6304  -24938929.86547 -19304260.85964
  18988850.583   -21005224.034 7 -15964613.38822
  18510899.950   -30470007.894 7 -23582348.04423
 91  4 10  0 51 29.9930000  0  4G15G 2G13G 6
  21780710.669    -8129098.491 5     12069.56621
  19166669.9274  -24940807.85247 -19305724.22764
  18980761.560   -21047729.126 7 -15997734.18622
  18507419.771   -30488293.969 7 -23596596.92223
 91  4 10  0 51 44.9930000  0  4G15G 2G13G 6
  21781771.0754   -8123527.01845     16410.96561
  19166323.1144  -24942636.51447 -19307149.16764
  18972700.1144  -21090095.94447 -16030747.23262
  18503962.8174  -30506459.91047 -23610752.18763
 91  4 10  0 51 59.9930000  0  4G15G 2G13G 6
  21782858.357    -8117810.917 5     20865.08621
  19165984.8174  -24944412.32047 -19308532.90064
  18964665.5674  -21132320.80647 -16063649.66162
  18500528.380   -30524501.868 7 -23624810.84523
 91  4 10  0 52 14.9930000  0  4G15G 2G13G 6
  21783972.317    -8111958.090 5     25425.74821
  19165655.0134  -24946142.90947 -19309881.41264
  18956655.5674  -21174411.33447 -16096447.41262
  18497119.1304  -30542427.32147 -23638778.71863
 91  4 10  0 52 29.9930000  0  4G15G 2G13G 6
  21785114.005    -8105960.505 5     30099.21321
  19165336.6774  -24947820.01347 -19311188.24564
  18948673.0134  -21216358.73647 -16129133.63862
  18493730.310   -30560227.506 7 -23652648.98123
 91  4 10  0 52 44.9930000  0  4G15G 2G13G 6
  21786282.0134   -8099820.41945     34883.70261
  19165026.9034  -24949446.07247 -19312455.30464
  18940717.3964  -21258165.42247 -16161710.21362
  18490367.692   -30577904.674 7 -23666423.38723
 91  4 10  0 52 59.9930000  0  4G15G 2G13G 6
  21787476.114    -8093538.734 5     39778.53721
  19164726.9894  -24951021.56647 -19313682.96064
  18932787.3884  -21299831.90147 -16194177.53962
  18487026.4974  -30595459.29747 -23680102.30563
 91  4 10  0 53 14.9930000  0  4G15G 2G13G 6
  21788697.888    -8087118.237 5     44781.53121
  19164436.6464  -24952549.01147 -19314873.17564
  18924884.7394  -21341360.69747 -16226537.58162
  18483708.607   -30612893.738 7 -23693687.56823
 91  4 10  0 53 29.9930000  0  4G15G 2G13G 6
  21789948.560    -8080555.468 5     49895.39321
  19164154.6304  -24954024.98847 -19316023.28564
  18917010.122   -21382748.312 7 -16258787.61122
  18480416.302   -30630204.234 7 -23707176.25423
 91  4 10  0 53 44.9930000  0  4G15G 2G13G 6
  21791222.028    -8073857.836 5     55114.33521
  19163882.2944  -24955456.85247 -19317139.02064
  18909159.0914  -21424001.88247 -16290933.19262
  18477143.208   -30647398.112 7 -23720574.06923
 91  4 10  0 53 59.9930000  0  4G15G 2G13G 6
  21792524.0754   -8067020.41545     60442.21061
  19163619.6694  -24956839.58347 -19318216.47064
  18901334.8964  -21465116.27547 -16322970.32362
  18473893.716   -30664469.930 7 -23733876.77623
 91  4 10  0 54 14.9930000  0  4G15G 2G13G 6
  21793854.614    -8060036.987 5     65883.85621
  19163367.1384  -24958166.49447 -19319250.43164
  18893539.505   -21506085.038 7 -16354893.98322
  18470669.763   -30681412.981 7 -23747079.13623
 91  4 10  0 54 29.9930000  0  4G15G 2G13G 6
  21795205.9744   -8052914.38245     71433.94861
  19163124.8174  -24959444.60047 -19320246.35664
  18885769.724   -21546914.739 7 -16386709.27622
  18467469.8334  -30698233.94047 -23760186.36963
 91  4 10  0 54 44.9930000  0  4G15G 2G13G 6
  21796592.5364   -8045647.50145     77096.45261
  19162891.2554  -24960668.70347 -19321200.20764
  18878027.466   -21587600.097 7 -16418412.09922
  18464292.1304  -30714927.33947 -23773194.20263
 91  4 10  0 54 59.9930000  0  4G15G 2G13G 6
  21797997.2324   -8038247.14345     82862.97361
  19162667.0754  -24961849.33247 -19322120.17964
  18870310.7864  -21628151.42247 -16450010.47762
  18461138.286   -30731503.591 7 -23786110.75023
 91  4 10  0 55 14.9930000  0  4G15G 2G13G 6
  21799433.8334   -8030712.16445     88734.39161
  19162449.6774  -24962985.05947 -19323005.16364
  18862619.700   -21668567.102 7 -16481503.16122
  18458005.982   -30747961.217 7 -23798934.86123
 91  4 10  0 55 29.9930000  0  4G15G 2G13G 6
  21800895.466    -8023033.521 5     94717.76521
  19162245.7474  -24964066.59247 -19323847.91764
  18854956.286   -21708838.413 7 -16512883.34922
  18454898.747   -30764290.723 7 -23811659.13923
 91  4 10  0 55 44.9930000  0  4G15G 2G13G 6
  21802381.4824   -8015216.63445    100808.83761
  19162047.1534  -24965099.17647 -19324652.52864
  18847319.8804  -21748970.12447 -16544154.75362
  18451814.8254  -30780497.14647 -23824287.50963
 91  4 10  0 55 59.9930000  0  4G15G 2G13G 6
  21803894.942    -8007261.251 5    107007.84621
  19161859.9034  -24966082.59747 -19325418.83164
  18839709.310   -21788961.975 7 -16575317.17922
  18448755.411   -30796579.980 7 -23836819.57323
 91  4 10  0 56 14.9930000  0  4G15G 2G13G 6
  21805438.2554   -7999161.39945    113319.43161
  19161681.4664  -24967010.63047 -19326141.97664
  18832126.4034  -21828807.31247 -16606365.43762
  18445719.942   -30812532.973 7 -23849250.46623
 91  4 10  0 56 29.9930000  0  4G15G 2G13G 6
  21807004.872    -7990925.589 5    119736.95221
  19161517.7944  -24967891.62447 -19326828.47164
  18824570.4824  -21868514.72747 -16637306.22162
  18442707.255   -30828364.125 7 -23861586.41523
 91  4 10  0 56 44.9930000  0  4G15G 2G13G 6
  21808599.9424   -7982546.10845    126266.41561
  19161359.1464  -24968717.91447 -19327472.33164
  18817042.8334  -21908076.58247 -16668133.57962
  18439718.3804  -30844065.66347 -23873821.37063
 91  4 10  0 56 59.9930000  0  4G15G 2G13G 6
  21810217.9354   -7974035.73845    132897.87861
  19161209.1694  -24969501.88847 -19328083.21964
  18809538.8104  -21947505.16447 -16698857.09562
  18436753.4974  -30859649.80147 -23885964.84563
 91  4 10  0 57 14.9930000  0  4G15G 2G13G 6
  21811864.3104   -7965393.87945    139631.79561
  19161070.6534  -24970242.73847 -19328660.50064
  18802062.3644  -21986799.43347 -16729475.94762
  18433810.5214  -30875115.51347 -23898016.04263
 91  4 10  0 57 29.9930000  0  4G15G 2G13G 6
  21813532.4114   -7956617.44845    146470.58361
  19160936.2004  -24970937.49847 -19329201.87364
  18794610.4744  -22025956.33247 -16759987.75762
  18430890.1774  -30890459.48847 -23909972.37563
 91  4 10  0 57 44.9930000  0  4G15G 2G13G 6
  21815226.3724   -7947709.80345    153411.60561
  19160814.0134  -24971589.36247 -19329709.82364
  18787185.0444  -22064979.01547 -16790394.98762
  18427991.9034  -30905684.74447 -23921836.20463
 91  4 10  0 57 59.9930000  0  4G15G 2G13G 6
  21816946.6694   -7938670.42945    160455.27761
  19160697.4974  -24972197.49547 -19330183.68764
  18779784.1614  -22103866.42847 -16820696.80662
  18425118.4194  -30920790.42947 -23933606.86063
 91  4 10  0 58 14.9930000  0  4G15G 2G13G 6
  21818696.6614   -7929488.73945    167609.85261
  19160592.3334  -24972751.04447 -19330615.02564
  18772411.771   -22142607.794 7 -16850884.82522
  18422268.982   -30935765.401 7 -23945275.66023
 91  4 10  0 58 29.9930000  0  4G15G 2G13G 6
  21820468.4894   -7920169.77545    174871.39661
  19160496.1924  -24973255.07547 -19331007.77864
  18765066.0674  -22181208.17347 -16880962.98762
  18419441.9034  -30950614.73947 -23956846.56163
 91  4 10  0 58 44.9930000  0  4G15G 2G13G 6
  21822268.810    -7910711.387 5    182241.58421
  19160411.5524  -24973707.06947 -19331359.98364
  18757748.7004  -22219664.69747 -16910929.04962
  18416641.0914  -30965335.48247 -23968317.26063
 91  4 10  0 58 59.9930000  0  4G15G 2G13G 6
  21824091.2324   -7901124.03045    189712.24861
  19160333.4744  -24974117.21147 -19331679.57264
  18750455.950   -22257987.822 7 -16940791.17122
  18413862.7394  -30979937.84947 -23979695.72163
 91  4 10  0 59 14.9930000  0  4G15G 2G13G 6
  21825942.7474   -7891401.51745    197288.24061
  19160264.9504  -24974479.11547 -19331961.57664
  18743189.1464  -22296171.02247 -16970544.25562
  18411107.7244  -30994415.34947 -23990976.88463
 91  4 10  0 59 29.9930000  0  4G15G 2G13G 6
  21827818.2714   -7881541.31845    204971.52661
  19160204.2474  -24974790.20247 -19332203.98164
  18735950.927   -22334211.833 7 -17000186.38722
  18408376.7084  -31008765.23247 -24002158.60163
 91  4 10  0 59 44.9930000  0  4G15G 2G13G 6
  21829724.1144   -7871541.95245    212763.24161
  19160156.9274  -24975048.86647 -19332405.53464
  18728738.6384  -22372108.37147 -17029716.10162
  18405670.5214  -31022985.62447 -24013239.42163
 91  4 10  0 59 59.9930000  0  4G15G 2G13G 6
  21831651.0604   -7861398.34145    220667.36361
  19160116.5444  -24975250.00747 -19332562.26864
  18721556.427   -22409855.325 7 -17059129.25722
  18402990.6694  -31037071.07447 -24024215.08763
 91  4 10  1  0 14.9930000  0  4G15G 2G13G 6
  21833609.2554   -7851116.73645    228679.00461
  19160090.2944  -24975399.49347
  18714400.7164  -22447458.60447 -17088430.45262
  18400334.3174  -31051027.38847 -24035090.12963
 91  4 10  1  0 29.9930000  0  4G15G 2G13G 6
  21835586.4424   -7840704.81045    236792.20061
  19160067.2864  -24975504.85047
  18707271.122   -22484925.791 7 -17117625.61022
  18397702.8334  -31064861.91147 -24045870.27063
 91  4 10  1  0 44.9930000  0  4G15G 2G13G 6
  21837596.333    -7830159.317 5    245009.48321
  19160056.3024  -24975562.46547
  18700168.2004  -22522253.28047 -17146711.90862
  18395093.7324  -31078570.97747 -24056552.65363
 91  4 10  1  0 59.9930000  0  4G15G 2G13G 6
  21839627.2554   -7819478.24345    253332.40061
  19160055.5524  -24975570.27047
  18693091.6464  -22559438.72447 -17175687.52462
  18392509.2474  -31092152.16447 -24067135.38963
 91  4 10  1  1 14.9930000  0  4G15G 2G13G 6
  21841688.5214   -7808658.34545    261763.50261
  19160064.0754  -24975524.99047
  18686043.1464  -22596478.67047 -17204549.76562
  18389949.9114  -31105602.12647 -24077615.87563
 91  4 10  1  1 29.9930000  0  4G15G 2G13G 6
  21843770.591    -7797709.137 5    270295.36421
  19160082.9114  -24975435.77347
  18679020.1384  -22633382.48247 -17233305.92362
  18387413.3724  -31118929.87947 -24088001.13363
 91  4 10  1  1 44.9930000  0  4G15G 2G13G 6
  21845880.4424   -7786623.67745    278933.38761
  19160107.5674  -24975295.58847
  18672024.341   -22670143.146 7 -17261950.54422
  18384902.0364  -31132128.23447 -24098285.55763
 91  4 10  1  1 59.9930000  0  4G15G 2G13G 6
  21848018.724    -7775395.538 5    287682.59921
  19160145.0054  -24975097.68447
  18665058.0214  -22706753.84447 -17290478.30662
  18382415.5604  -31145190.25947 -24108463.75463
 91  4 10  1  2 14.9930000  0  4G15G 2G13G 6
  21850179.841    -7764038.159 5    296532.51921
  19160193.4034  -24974855.19947 -19332254.63064
  18658117.685   -22743227.495 7 -17318899.27722
  18379954.4584  -31158128.94347 -24118545.84263
 91  4 10  1  2 29.9930000  0  4G15G 2G13G 6
  21852365.6774   -7752549.48345    305484.74361
  19160244.9274  -24974566.05847 -19332029.32364
  18651202.7004  -22779562.08547 -17347211.89262
  18377516.3254  -31170941.96047 -24128530.00063
 91  4 10  1  2 44.9930000  0  4G15G 2G13G 6
  21854578.403    -7740923.093 5    314544.27521
  19160311.6534  -24974223.57447 -19331762.45464
  18644316.536   -22815750.814 7 -17375410.84722
  18375102.3964  -31183622.52447 -24138410.95663
 91  4 10  1  2 59.9930000  0  4G15G 2G13G 6
  21856815.450    -7729166.269 5    323705.44921
  19160385.5444  -24973834.89247 -19331459.58464
  18637456.497   -22851800.776 7 -17403501.67122
  18372713.2324  -31196177.68847 -24148194.19463
 91  4 10  1  3 14.9930000  0  4G15G 2G13G 6
  21859077.630    -7717274.314 5    332971.91021
  19160468.3254  -24973395.06147 -19331116.86064
  18630623.372   -22887706.912 7 -17431480.42622
  18370349.5284  -31208602.27947 -24157875.69063
 91  4 10  1  3 29.9930000  0  4G15G 2G13G 6
  21861366.153    -7705253.315 5    342338.95421
  19160562.8254  -24972910.03247 -19330738.91664
  18623816.9504  -22923475.39247 -17459351.91462
  18368008.7394  -31220902.18647 -24167460.02763
 91  4 10  1  3 44.9930000  0  4G15G 2G13G 6
  21863679.9584   -7693097.16545    351811.29661
  19160664.4194  -24972373.10347 -19330320.53064
  18617037.513   -22959099.358 7 -17487110.79522
  18365692.4274  -31233070.56647 -24176941.87663
 91  4 10  1  3 59.9930000  0  4G15G 2G13G 6
  21866016.419    -7680808.737 5    361386.70721
  19160776.3804  -24971787.39847 -19329864.13964
  18610285.028   -22994581.947 7 -17514759.50722
  18363401.6304  -31245110.15747 -24186323.36963
 91  4 10  1  4 14.9930000  0  4G15G 2G13G 6
  21868379.200    -7668386.367 5    371066.49921
  19160897.1144  -24971150.97347 -19329368.22864
  18603560.919   -23029921.311 7 -17542296.62022
  18361135.7004  -31257019.02347 -24195602.99863
 91  4 10  1  4 29.9930000  0  4G15G 2G13G 6
  21870769.2084   -7655831.76445    380849.32761
  19161026.8884  -24970465.14847 -19328833.82264
  18596862.1464  -23065118.53247 -17569722.97062
  18358894.4974  -31268798.28247 -24204781.63863
 91  4 10  1  4 44.9930000  0  4G15G 2G13G 6
  21873183.388    -7643150.253 5    390731.04321
  19161165.1854  -24969734.90747 -19328264.80564
  18590190.700   -23100178.504 7 -17597042.37622
  18356675.8884  -31280452.83047 -24213863.10063
 91  4 10  1  4 59.9930000  0  4G15G 2G13G 6
  21875623.560    -7630327.791 5    400722.57821
  19161315.4664  -24968946.31047 -19327650.31764
  18583548.325   -23135087.384 7 -17624244.04322
  18354484.5214  -31291968.55247 -24222836.38763
 91  4 10  1  5 14.9930000  0  4G15G 2G13G 6
  21878089.3174   -7617374.34945    410816.18461
  19161475.2944  -24968108.94747 -19326997.83064
  18576933.0674  -23169854.72147 -17651335.41862
  18352317.9824  -31303355.05647 -24231708.98363
 91  4 10  1  5 29.9930000  0  4G15G 2G13G 6
  21880574.200    -7604297.249 5    421006.16121
  19161641.8574  -24967230.02147 -19326312.95464
  18570342.0604  -23204487.70947 -17678322.10762
  18350174.4824  -31314619.20747 -24240486.23663
 91  4 10  1  5 44.9930000  0  4G15G 2G13G 6
  21883092.7394   -7591086.45645    431300.28461
  19161818.6224  -24966299.21647 -19325587.65764
  18563778.302   -23238975.814 7 -17705195.89922
  18348056.2864  -31325750.52347 -24249159.98563
 91  4 10  1  5 59.9930000  0  4G15G 2G13G 6
  21885629.982    -7577739.072 5    441700.86121
  19162006.0444  -24965313.46347 -19324819.54064
  18557244.271   -23273316.038 7 -17731954.46222
  18345963.7084  -31336745.79547 -24257727.72463
 91  4 10  1  6 14.9930000  0  4G15G 2G13G 6
  21888193.567    -7564259.978 5    452204.06721
  19162204.3574  -24964277.44747 -19324012.25864
  18550736.7784  -23307513.16647 -17758601.51562
  18343896.2864  -31347609.66747 -24266193.07963
 91  4 10  1  6 29.9930000  0  4G15G 2G13G 6
  21890786.1774   -7550649.99745    462809.27861
  19162410.8104  -24963191.82247 -19323166.32364
  18544256.7554  -23341567.80747 -17785137.54862
  18341853.9274  -31358342.59647 -24274556.39363
 91  4 10  1  6 44.9930000  0  4G15G 2G13G 6
  21893400.6924   -7536911.55145    473514.56661
  19162626.0994  -24962058.62547 -19322283.31764
  18537802.1304  -23375481.83947 -17811564.00762
  18339836.3724  -31368946.40647 -24282819.09963
 91  4 10  1  6 59.9930000  0  4G15G 2G13G 6
  21896039.466    -7523044.159 5    484320.35721
  19162850.6694  -24960877.00947 -19321362.58564
  18531375.497   -23409254.569 7 -17837880.36722
  18337843.2784  -31379420.15047 -24290980.45063
 91  4 10  1  7 14.9930000  0  4G15G 2G13G 6
  21898702.419    -7509043.019 5    495230.35021
  19163086.5604  -24959642.13047 -19320400.34764
  18524976.739   -23442881.346 7 -17864082.99922
  18335876.6774  -31389758.94547 -24299036.65163
 91  4 10  1  7 29.9930000  0  4G15G 2G13G 6
  21901393.177    -7494908.006 5    506244.67321
  19163331.6614  -24958353.71847 -19319396.39464
  18518604.903   -23476361.842 7 -17890171.64022
  18333934.0604  -31399962.31447 -24306987.32163
 91  4 10  1  7 44.9930000  0  4G15G 2G13G 6
  21904108.630    -7480639.318 5    517363.14121
  19163585.9744  -24957011.57047 -19318350.57064
  18512261.989   -23509695.753 7 -17916146.06122
  18332019.0994  -31410030.00947 -24314832.27163
 91  4 10  1  7 59.9930000  0  4G15G 2G13G 6
  21906847.075    -7466240.521 5    528582.99421
  19163852.1694  -24955619.05247 -19317265.48964
  18505945.9584  -23542886.31747 -17942008.78462
  18330127.3884  -31419965.24347 -24322574.00863
 91  4 10  1  8 14.9930000  0  4G15G 2G13G 6
  21909614.044    -7451712.193 5    539903.79121
  19164127.2324  -24954176.66447 -19316141.55664
  18499657.4744  -23575933.87147 -17967760.06962
  18328261.3254  -31429768.22047 -24330212.68463
 91  4 10  1  8 29.9930000  0  4G15G 2G13G 6
  21912402.138    -7437054.684 5    551325.25121
  19164411.2634  -24952684.02547 -19314978.46364
  18493396.013   -23608838.153 7 -17993399.72022
  18326421.5834  -31439438.65147 -24337748.07863
 91  4 10  1  8 44.9930000  0  4G15G 2G13G 6
  21915216.2004   -7422268.39245    562847.05161
  19164703.8104  -24951141.92647 -19313776.83264
  18487161.138   -23641600.059 7 -18018928.42422
  18324607.0134  -31448977.15447 -24345180.67463
 91  4 10  1  8 59.9930000  0  4G15G 2G13G 6
  21918053.732    -7407347.333 5    574473.87021
  19165008.5364  -24949544.05247 -19312531.73864
  18480954.888   -23674213.383 7 -18044341.35422
  18322818.6224  -31458377.04047 -24352505.25663
 91  4 10  1  9 14.9930000  0  4G15G 2G13G 6
  21920919.075    -7392293.838 5    586203.87721
  19165321.6854  -24947892.26147 -19311244.63164
  18474776.380   -23706679.774 7 -18069639.78922
  18321055.7324  -31467640.23847 -24359723.32863
 91  4 10  1  9 29.9930000  0  4G15G 2G13G 6
  21923808.888    -7377109.081 5    598036.18421
  19165646.4664  -24946187.24847 -19309916.05264
  18468626.442   -23739000.339 7 -18094824.59022
  18319319.2324  -31476767.38847 -24366835.39063
 91  4 10  1  9 44.9930000  0  4G15G 2G13G 6
  21926722.4424   -7361793.40945    609970.49861
  19165981.0604  -24944429.70347 -19308546.54264
  18462503.146   -23771175.509 7 -18119896.10022
  18317607.7864  -31485759.01247 -24373841.84863
 91  4 10  1  9 59.9930000  0  4G15G 2G13G 6
  21929662.060    -7346351.286 5    622003.33821
  19166325.6384  -24942623.58047 -19307139.17464
  18456407.739   -23803209.178 7 -18144857.35222
  18315921.4274  -31494618.94647 -24380745.68763
 91  4 10  1 10 14.9930000  0  4G15G 2G13G 6
  21932624.357    -7330784.480 5    634133.33421
  19166677.1144  -24940770.32747 -19305695.08364
  18450338.544   -23835102.841 7 -18169709.50422
  18314261.3574  -31503348.53747 -24387547.96663
 91  4 10  1 10 29.9930000  0  4G15G 2G13G 6
  21935608.989    -7315091.701 5    646361.52221
  19167039.4424  -24938868.46147 -19304213.11364
  18444295.935   -23866854.954 7 -18194451.36622
  18312625.0444  -31511946.06147 -24394247.32663
 91  4 10  1 10 44.9930000  0  4G15G 2G13G 6
  21938619.7244   -7299271.13845    658689.23761
  19167411.4194  -24936916.01547 -19302691.73164
  18438281.200   -23898463.617 7 -18219081.44222
  18311012.9274  -31520409.55047 -24400842.25063
 91  4 10  1 10 59.9930000  0  3G 2G13G 6
  19167794.0284  -24934908.86247 -19301127.71964
  18432294.474   -23929924.796 7 -18243596.59922
  18309429.4194  -31528734.59047 -24407329.29463
 91  4 10  1 11 14.9930000  0  3G 2G13G 6
  19168183.0674  -24932851.02847 -19299524.21664
  18426334.247   -23961242.315 7 -18267999.81522
  18307872.0524  -31536925.20847 -24413711.58763
 91  4 10  1 11 29.9930000  0  3G 2G13G 6
  19168585.2324  -24930744.52247 -19297882.79064
  18420402.177   -23992418.146 7 -18292292.62022
  18306337.2004  -31544983.27947 -24419990.60063
 91  4 10  1 11 44.9930000  0  3G 2G13G 6
  19168995.4034  -24928589.08947 -19296203.23464
  18414496.942   -24023452.365 7 -18316475.08022
  18304830.1384  -31552908.47647 -24426166.07963
 91  4 10  1 11 59.9930000  0  3G 2G13G 6
  19169416.7324  -24926379.80647 -19294481.71764
  18408618.997   -24054340.119 7 -18340543.41522
  18303346.4894  -31560695.88847 -24432234.19063
 91  4 10  1 12 14.9930000  0  3G 2G13G 6
  19169845.5834  -24924121.87847 -19292722.29664
  18402767.935   -24085086.436 7 -18364501.53722
  18301891.9664  -31568350.31747 -24438198.67563
 91  4 10  1 12 29.9930000  0  3G 2G13G 6
  19170284.1304  -24921821.76747 -19290930.00364
  18396942.349   -24115697.990 7 -18388354.65122
  18300457.3254  -31575878.42247 -24444064.73163
 91  4 10  1 12 44.9930000  0  3G 2G13G 6
  19170731.7324  -24919467.34247 -19289095.39064
  18391145.661   -24146162.411 7 -18412093.11422
  18299052.3414  -31583267.70547 -24449822.60863
 91  4 10  1 12 59.9930000  0  3G 2G13G 6
  19171187.3804  -24917065.27347 -19287223.65263
  18385374.896   -24176486.481 7 -18435722.21722
  18297672.5284  -31590524.94647 -24455477.59963
 91  4 10  1 13 14.9930000  0  3G 2G13G 6
  19171654.6694  -24914610.35147 -19285310.72864
  18379632.435   -24206665.188 7 -18459238.04422
  18296316.2864  -31597644.91247 -24461025.62463
 91  4 10  1 13 29.9930000  0  3G 2G13G 6
  19172131.1074  -24912108.57747 -19283361.29864
  18373916.232   -24236704.475 7 -18482645.23922
  18294985.8884  -31604633.37547 -24466471.17863
 91  4 10  1 13 44.9930000  0  3G 2G13G 6
  19172618.1924  -24909555.58547 -19281371.95664
  18368227.591   -24266600.033 7 -18505940.43222
  18293681.9424  -31611485.86647 -24471810.78163
 91  4 10  1 13 59.9930000  0  3G 2G13G 6
  19173113.8414  -24906949.79147 -19279341.47463
  18362565.778   -24296350.302 7 -18529122.41822
  18292404.1534  -31618200.70147 -24477043.11763
 91  4 10  1 14 14.9930000  0  3G 2G13G 6
  19173619.8174  -24904293.26347 -19277271.45764
  18356931.732   -24325957.312 7 -18552192.76822
  18291151.7944  -31624779.71147 -24482169.61663
 91  4 10  1 14 29.9930000  0  3G 2G13G 6
  19174134.2944  -24901589.26647 -19275164.45164
  18351323.989   -24355424.338 7 -18575154.04522
  18289924.6534  -31631226.09547 -24487192.77063
 91  4 10  1 14 44.9930000  0  3G 2G13G 6
  19174658.0524  -24898836.73547 -19273019.62963
  18345743.825   -24384750.584 7 -18598005.61822
  18288723.6534  -31637538.68047 -24492111.66163
 91  4 10  1 14 59.9930000  0  3G 2G13G 6
  19175192.0674  -24896029.63547 -19270832.28263
  18340190.239   -24413930.021 7 -18620742.79822
  18287550.6614  -31643711.53947 -24496921.68163
 91  4 10  1 15 14.9920000  0  3G 2G13G 6
  19175736.1094  -24893168.01047 -19268602.44963
  18334666.180   -24442960.484 7 -18643363.89422
  18286402.7974  -31649743.91947 -24501622.23263
 91  4 10  1 15 29.9920000  0  3G 2G13G 6
  19176290.6564  -24890257.74247 -19266334.71464
  18329168.5244  -24471852.21047 -18665876.88762
  18285279.8204  -31655642.82647 -24506218.78263
 91  4 10  1 15 44.9920000  0  3G 2G13G 6
  19176854.4224  -24887295.03947 -19264026.12263
  18323697.859   -24500599.302 7 -18688277.17022
  18284182.8994  -31661403.93447 -24510707.95863
 91  4 10  1 15 59.9920000  0  3G 2G13G 6
  19177426.7034  -24884280.15447 -19261676.86163
  18318255.305   -24529201.900 7 -18710564.86822
  18283114.6334  -31667027.14247 -24515089.67963
 91  4 10  1 16 14.9920000  0  3G 2G13G 6
  19178011.3754  -24881219.98247 -19259292.31363
  18312838.297   -24557667.193 7 -18732745.57622
  18282067.5084  -31672519.27547 -24519369.26163
 91  4 10  1 16 29.9920000  0  3G 2G13G 6
  19178601.2974  -24878106.48647 -19256866.21463
  18307448.875   -24585987.065 7 -18754812.96522
  18281050.4454  -31677872.30847 -24523540.45763
 91  4 10  1 16 44.9920000  0  3G 2G13G 6
  19179204.6724  -24874941.81647 -19254400.23963
  18302087.469   -24614164.004 7 -18776768.97822
  18280056.0314  -31683088.39647 -24527604.93963
 91  4 10  1 16 59.9920000  0  3G 2G13G 6
  19179817.0864  -24871719.53847 -19251889.37363
  18296753.266   -24642191.493 7 -18798608.53922
  18279092.6494  -31688160.86947 -24531557.51663
 91  4 10  1 17 14.9920000  0  3G 2G13G 6
  19180439.7194  -24868448.49047 -19249340.50663
  18291446.813   -24670078.285 7 -18820338.46622
  18278152.8054  -31693098.57947 -24535405.08163
 91  4 10  1 17 29.9920000  0  3G 2G13G 6
  19181072.0634  -24865131.03147 -19246755.47363
  18286166.664   -24697826.727 7 -18841960.58922
  18277236.5314  -31697903.73947 -24539149.36263
 91  4 10  1 17 44.9920000  0  3G 2G13G 6
  19181715.4224  -24861748.73447 -19244119.92263
  18280916.844   -24725418.568 7 -18863460.68022
  18276351.2274  -31702557.93847 -24542776.01063
 91  4 10  1 17 59.9920000  0  3G 2G13G 6
  19182368.0864  -24858316.81747 -19241445.70363
  18275692.250   -24752869.283 7 -18884850.80622
  18275492.1174  -31707076.31747 -24546296.82663
 91  4 10  1 18 14.9920000  0  3G 2G13G 6
  19183030.2664  -24854834.13247 -19238731.92963
  18270495.727   -24780177.770 7 -18906130.10722
  18274659.3134  -31711457.56747 -24549710.78563
 91  4 10  1 18 29.9920000  0  3G 2G13G 6
  19183702.5784  -24851299.00447 -19235977.28763
  18265326.367   -24807342.208 7 -18927297.15822
  18273852.5864  -31715699.83347 -24553016.44863
 91  4 10  1 18 44.9920000  0  3G 2G13G 6
  19184384.1804  -24847715.19747 -19233184.71363
  18260183.742   -24834366.590 7 -18948355.07622
  18273071.6724  -31719806.93947 -24556216.79263
 91  4 10  1 18 59.9920000  0  3G 2G13G 6
  19185075.9614  -24844083.67047 -19230354.95163
  18255066.5554  -24861251.82247 -18969304.57062
  18272315.0084  -31723779.76847 -24559312.50063
 91  4 10  1 19 14.9920000  0  3G 2G13G 6
  19185778.2114  -24840396.27547 -19227481.65863
  18249978.688   -24887989.845 7 -18990139.34922
  18271585.3524  -31727610.18447 -24562297.24163
 91  4 10  1 19 29.9920000  0  3G 2G13G 6
  19186488.6414  -24836664.07747 -19224573.45163
  18244916.484   -24914591.950 7 -19010868.22122
  18270880.2424  -31731309.21247 -24565179.60063
 91  4 10  1 19 44.9920000  0  3G 2G13G 6
  19187210.6884  -24832870.95147 -19221617.76563
  18239883.336   -24941041.849 7 -19031478.48922
  18270203.9064  -31734860.38647 -24567946.75063
 91  4 10  1 19 59.9920000  0  3G 2G13G 6
  19187940.7424  -24829030.78347 -19218625.42663
  18234876.2974  -24967353.62647 -19051981.13162
  18269555.2114  -31738277.82547 -24570609.69263
 91  4 10  1 20 14.9920000  0  3G 2G13G 6
  19188681.0474  -24825137.58647 -19215591.76363
  18229897.445   -24993521.100 7 -19072371.32922
  18268931.4774  -31741555.27647 -24573163.55263
 91  4 10  1 20 29.9920000  0  3G 2G13G 6
  19189433.7034  -24821189.59047 -19212515.39863
  18224944.992   -25019542.999 7 -19092648.09022
  18268333.2114  -31744691.09747 -24575607.04763
